GFSSGP_925_temp_000.txt.gz
Temp
24 25 23 26 27 27 28 28 28 29 29 30 30 29 30 31 32 31 24 23 22 22 21 20 19 20 20 19 19 19 19 18 17 18 18 18 18 18 18 18 18 18 17 17 17 17 17 17 17
23 24 24 26 27 27 29 28 28 28 29 29 29 29 29 32 31 30 28 23 22 22 21 21 20 20 20 20 20 19 18 17 17 18 18 18 18 18 18 18 17 17 16 16 16 17 17 16 17
23 24 27 26 25 27 27 27 27 28 29 28 30 30 31 32 30 29 24 22 22 22 21 21 20 20 20 20 20 19 18 17 17 17 18 17 18 18 18 18 17 17 16 16 15 15 16 16 16
24 27 26 26 26 26 26 27 27 27 29 28 29 30 30 28 29 25 23 22 22 22 22 20 20 20 20 20 19 19 19 18 17 17 17 17 18 18 18 18 17 17 17 15 15 15 15 15 15
24 26 26 25 25 26 27 27 27 26 28 29 28 31 31 27 24 23 23 22 23 22 22 20 20 19 19 19 19 19 18 18 17 17 17 18 18 18 18 18 18 17 16 15 15 15 15 15 15
26 25 25 25 26 26 27 27 26 27 28 28 29 29 30 26 25 23 22 22 22 22 21 21 19 19 19 19 19 19 19 18 18 17 17 18 18 18 18 18 18 17 16 16 16 16 16 16 15
24 25 25 25 25 25 26 26 27 27 28 28 28 28 31 29 24 22 22 22 21 21 21 21 20 19 19 19 19 19 19 19 18 17 17 17 17 18 18 18 18 17 17 16 16 16 16 16 16
24 25 24 24 26 25 26 26 26 26 28 28 28 29 30 28 24 22 21 21 21 20 20 20 20 20 20 20 18 18 18 18 18 17 17 17 17 17 17 17 17 17 16 16 15 15 16 16 16
22 23 24 24 24 26 26 25 27 26 26 28 28 28 28 25 23 22 22 21 21 20 20 20 20 20 20 20 20 18 18 18 17 17 17 17 18 18 17 17 17 16 16 16 15 15 15 15 16
23 23 24 25 26 26 26 25 25 25 27 28 28 28 27 26 26 25 25 25 23 22 21 20 20 20 20 19 19 19 19 19 19 18 18 18 18 18 17 16 16 16 16 16 16 16 16 15 17
23 23 25 24 25 25 25 25 25 25 26 28 27 29 28 27 27 27 26 25 25 23 22 20 20 20 20 20 20 20 19 19 19 18 18 18 18 18 18 17 17 17 17 17 17 17 17 17 17
22 23 25 25 24 24 24 25 25 26 26 28 28 28 26 27 28 28 27 25 24 22 22 21 20 20 19 20 19 20 19 19 19 19 18 18 18 18 18 18 18 17 18 18 17 18 17 17 17
22 24 24 24 24 24 24 24 25 25 27 28 27 26 26 27 27 26 24 23 23 22 22 21 20 20 19 19 19 20 20 19 19 19 18 18 18 18 18 18 18 18 18 18 18 18 18 18 18
23 23 24 24 24 24 23 25 23 26 28 27 27 26 26 24 23 24 23 23 23 22 21 21 20 20 20 19 19 19 19 19 19 18 18 18 17 17 17 17 18 18 18 18 17 18 17 17 18
23 22 23 24 24 24 24 24 25 27 26 25 26 25 22 21 21 21 20 21 20 21 20 20 19 20 20 19 19 19 19 18 18 18 18 17 17 17 17 17 17 18 17 17 17 17 17 17 17
22 22 22 24 24 24 23 24 27 25 26 26 25 24 22 21 20 19 19 19 19 20 20 18 18 18 19 19 19 19 18 18 18 17 17 17 17 17 17 17 17 17 17 17 17 17 17 17 17
21 21 22 23 24 24 23 24 26 25 25 26 26 24 23 22 21 19 18 18 18 19 19 18 18 19 18 18 18 18 17 18 17 17 17 16 16 16 16 16 16 16 16 17 16 17 16 16 16
20 21 23 23 24 23 23 24 25 26 24 26 25 23 23 22 20 18 18 18 18 18 18 18 18 18 18 18 18 18 17 17 16 16 16 16 16 16 16 16 16 16 16 16 16 16 16 16 17
23 23 22 24 23 22 24 24 25 26 25 25 24 23 22 21 19 18 17 18 18 18 18 18 18 18 19 19 19 18 17 16 15 15 15 15 14 14 14 15 15 15 15 15 14 15 15 16 16
22 22 22 24 22 22 24 24 25 26 25 25 24 23 22 20 20 18 18 18 18 18 18 18 17 17 17 17 17 16 16 15 14 14 13 13 13 13 13 13 13 13 13 13 13 13 13 14 14
21 21 23 23 21 22 22 24 25 23 22 21 23 23 22 21 20 19 18 17 17 17 16 16 16 16 16 17 16 16 15 15 15 14 13 12 12 12 12 12 12 12 12 12 12 12 12 12 13
21 23 22 21 20 22 22 24 25 26 23 21 21 21 21 20 19 19 18 17 16 15 15 15 16 15 15 16 16 16 16 15 13 13 12 12 11 11 10 10 10 11 11 11 11 11 11 11 12
22 21 21 21 20 21 22 22 26 22 23 21 21 21 20 20 19 18 17 16 15 14 14 15 14 14 14 14 15 15 14 13 13 12 12 11 11 10 9 9 9 9 9 9 9 9 10 10 10
20 20 20 20 20 21 23 23 26 25 25 23 22 21 20 19 18 18 16 15 14 14 14 14 14 13 13 13 13 13 13 12 12 11 12 11 11 10 8 8 8 8 8 8 8 8 8 9 9
21 20 17 18 19 22 21 21 25 25 23 23 22 21 20 19 18 17 17 16 15 14 13 13 13 12 12 12 11 11 11 11 11 11 10 10 10 9 8 7 7 7 7 7 7 7 8 8 7
19 21 22 21 21 23 19 22 25 23 22 23 23 22 20 19 19 18 17 16 15 14 13 13 12 11 11 10 10 10 10 10 9 9 9 9 8 8 7 6 6 6 6 6 6 7 7 7 7
16 17 22 21 20 22 23 24 25 22 22 21 22 21 20 19 18 17 16 15 14 13 12 12 11 10 10 9 9 9 9 8 8 8 7 7 7 6 6 6 6 6 6 6 6 6 6 6 6
19 21 19 20 20 21 23 23 25 25 23 21 21 20 20 19 18 17 16 15 14 12 11 10 10 10 9 9 8 8 8 7 7 7 6 6 6 5 5 5 5 5 5 5 5 5 5 5 5
19 18 19 21 21 23 23 24 25 24 23 22 22 22 20 18 18 17 16 14 12 11 10 10 9 9 8 8 8 7 7 6 6 6 5 5 5 5 5 4 4 5 5 5 5 5 5 5 5
21 20 21 21 19 20 21 24 23 22 21 21 22 21 20 19 18 17 15 13 11 11 10 9 9 8 7 7 7 6 6 5 6 5 5 4 4 4 4 3 4 4 4 4 4 4 4 4 4

GFSSGP_925_temp_003.txt.gz
Temp
24 25 25 27 28 29 29 31 31 31 31 31 31 31 31 32 32 30 27 26 25 25 23 20 20 20 20 19 19 18 19 18 18 18 18 18 18 18 18 18 18 17 17 17 17 17 17 17 17
24 26 26 27 27 28 30 31 30 31 31 31 31 31 31 33 33 31 29 26 25 25 24 22 20 20 20 19 19 19 18 18 18 18 18 18 18 18 18 18 18 17 17 16 16 16 16 16 16
25 26 27 28 27 26 28 30 30 30 31 31 31 32 33 32 32 31 27 25 25 25 24 22 21 20 20 20 19 19 18 17 17 17 18 17 18 18 18 18 18 17 17 16 16 16 16 16 16
26 29 28 26 28 29 28 28 29 29 31 31 31 31 33 30 31 28 26 25 26 25 24 21 20 20 20 19 19 19 18 18 17 17 17 18 18 18 18 18 18 17 17 16 16 16 16 16 16
27 28 26 27 27 28 30 30 29 28 29 29 30 31 32 29 27 27 26 26 26 25 24 21 20 19 19 19 19 19 18 19 18 17 17 18 17 18 18 18 18 18 17 16 16 16 16 16 16
26 27 26 27 28 29 29 30 29 29 30 30 30 29 30 29 28 26 25 26 26 25 24 22 20 20 20 19 20 19 19 19 18 18 17 17 17 18 18 18 18 18 17 17 16 16 16 16 16
25 26 26 27 28 28 29 29 29 29 29 30 30 29 32 30 27 25 25 26 25 24 23 23 21 20 19 19 19 19 19 19 18 18 17 17 17 17 18 17 17 17 17 17 16 16 16 16 16
26 26 25 26 27 27 29 28 29 28 28 30 30 30 31 30 27 25 25 25 24 24 23 23 23 21 20 20 20 19 18 18 18 18 17 17 18 18 18 18 18 17 17 17 16 16 15 16 16
25 24 24 26 27 27 29 27 29 29 28 29 30 30 31 28 27 26 25 24 24 23 23 23 23 23 22 22 20 19 19 18 18 18 18 17 18 19 19 19 18 18 17 17 16 15 15 16 16
24 24 25 27 28 28 28 27 28 27 28 29 30 31 30 29 29 29 28 28 26 24 23 23 23 23 22 22 21 20 21 20 20 20 20 20 20 20 18 18 18 17 17 17 17 17 17 16 17
24 24 26 27 28 27 27 27 28 27 27 28 29 30 30 30 29 29 29 29 28 26 25 23 23 23 22 22 21 22 21 21 21 20 20 20 19 20 19 19 19 18 18 18 18 18 18 19 18
24 25 26 27 27 26 25 27 27 27 27 29 29 29 29 29 29 30 30 29 28 26 25 24 23 22 22 22 21 22 21 21 21 21 20 20 20 20 20 20 19 19 19 19 19 19 19 19 19
23 25 26 26 27 26 26 25 26 26 28 29 29 29 29 29 29 29 28 27 27 26 24 23 23 22 22 21 22 22 22 21 21 20 20 20 20 20 20 20 19 19 19 19 19 19 20 20 20
23 25 25 26 26 26 25 26 26 27 28 29 29 29 29 29 28 26 27 27 26 25 24 23 23 22 22 21 21 21 21 21 21 20 20 19 19 19 19 19 19 19 19 19 19 19 19 19 19
23 23 24 25 26 26 26 25 26 27 29 28 28 29 27 26 25 25 24 24 24 24 22 22 22 22 22 21 21 21 21 20 20 20 19 19 19 19 19 19 19 18 18 18 19 19 18 18 19
22 21 21 24 25 26 25 24 27 29 28 28 28 27 26 24 24 23 22 22 22 23 22 21 20 21 21 22 21 21 20 20 19 19 19 18 18 18 18 18 18 18 18 18 18 18 18 18 18
18 20 20 23 26 26 25 24 27 28 27 27 28 28 26 25 24 22 21 22 22 22 22 21 21 21 21 21 20 20 20 20 19 19 18 18 17 18 18 17 17 18 18 18 17 17 17 17 17
19 20 22 22 25 25 25 25 26 28 28 27 28 28 26 25 23 21 21 21 21 22 21 21 21 21 20 20 20 19 19 18 18 17 17 17 17 16 17 17 17 16 17 16 16 16 16 16 16
21 21 23 24 26 26 25 25 26 27 28 27 27 27 25 24 22 21 21 21 21 21 21 21 21 21 21 21 20 19 18 17 16 16 16 16 15 15 15 15 15 15 15 15 15 15 14 15 15
20 21 23 23 25 24 25 25 27 27 27 28 27 27 25 23 22 21 21 21 21 21 20 20 20 20 20 19 18 18 17 17 16 15 15 15 14 14 14 13 14 14 14 14 13 13 13 14 14
20 20 22 23 24 24 24 24 25 27 27 26 27 27 25 23 22 22 21 21 20 19 19 18 18 18 18 18 17 17 17 17 16 15 15 13 13 12 12 12 12 12 13 12 12 12 12 12 13
18 21 24 23 23 23 24 25 27 27 25 24 25 25 24 23 23 22 21 20 19 18 18 18 18 18 18 18 18 18 17 16 15 15 14 14 12 11 11 11 11 11 11 11 11 11 11 11 12
18 20 23 23 23 22 22 23 26 28 26 25 25 24 23 22 22 21 20 19 18 17 17 17 17 17 17 17 17 17 16 15 14 14 14 13 13 11 10 10 10 10 10 10 9 10 10 10 10
19 21 21 22 23 21 24 24 27 27 27 27 25 24 22 22 21 20 19 18 17 16 16 16 16 16 15 15 15 15 15 15 14 13 13 13 13 11 10 9 9 9 9 8 8 9 9 9 9
18 18 19 19 20 22 26 25 27 26 26 27 24 23 22 21 21 19 19 18 17 16 16 16 15 15 14 14 14 13 13 13 12 13 12 12 12 10 9 8 8 8 8 8 8 8 8 9 8
17 19 22 21 21 24 23 23 26 26 27 27 25 24 22 21 21 19 19 18 17 16 16 15 15 14 13 13 12 12 12 12 11 11 10 10 10 9 8 8 8 8 7 7 7 7 8 8 8
16 19 23 24 24 25 24 25 26 26 24 25 25 24 22 21 21 20 19 18 17 16 15 14 14 13 12 12 12 11 11 10 10 9 9 9 9 8 7 7 7 7 7 7 7 7 7 7 7
18 23 21 23 22 23 25 26 26 25 25 24 24 23 23 22 21 20 19 18 17 15 14 13 13 12 12 11 11 10 10 9 9 8 8 8 7 7 6 7 6 6 6 6 6 6 6 6 6
16 19 22 25 24 24 24 25 27 26 25 25 24 24 23 22 20 20 19 17 16 14 13 13 12 11 11 10 10 9 8 8 8 8 7 7 6 6 6 6 6 6 6 6 6 5 6 6 5
20 20 23 23 21 23 23 24 26 26 25 24 25 24 23 22 21 20 19 17 15 14 13 12 11 11 10 9 9 8 8 7 7 7 6 6 6 5 5 5 5 5 5 5 5 5 5 5 5

GFSSGP_925_temp_006.txt.gz
Temp
24 25 26 25 23 24 25 27 30 30 30 29 29 29 28 29 30 26 27 26 25 23 21 20 20 21 20 19 19 19 18 18 18 18 18 18 19 19 18 18 18 17 17 16 16 16 16 16 16
25 25 27 23 23 24 25 29 29 29 28 29 29 30 30 29 29 26 26 26 26 24 22 20 20 20 20 20 19 18 18 17 18 18 18 18 18 19 19 18 18 17 17 16 16 16 16 16 16
25 26 24 24 24 24 25 27 27 28 28 30 29 31 31 28 28 27 26 25 25 25 23 21 21 21 21 20 20 18 18 18 17 17 18 18 18 18 18 19 18 17 17 16 16 16 16 16 16
25 25 25 24 24 27 28 27 27 27 28 29 29 28 28 28 28 27 26 26 25 25 23 21 21 21 20 20 19 19 18 18 17 17 18 18 17 18 18 19 18 18 17 17 16 16 16 16 16
26 24 23 23 25 28 28 30 27 27 27 29 29 28 28 28 27 27 26 26 26 25 23 21 21 20 20 19 19 19 19 18 18 17 18 17 17 18 18 18 18 17 17 17 16 16 16 16 16
23 24 22 23 25 28 29 29 29 28 28 29 29 27 27 27 26 26 26 26 26 25 23 21 20 20 20 20 20 19 19 19 18 18 18 17 17 18 18 18 17 17 17 17 17 16 16 16 16
22 22 22 24 25 27 28 28 28 27 27 28 29 28 26 25 26 26 26 26 26 24 23 21 20 20 20 19 19 19 19 19 18 17 18 18 18 18 18 18 18 18 18 17 17 16 16 16 16
23 23 22 23 24 25 28 28 28 28 27 27 30 27 27 26 26 26 25 25 25 24 24 22 21 20 20 20 20 19 19 18 18 18 18 18 18 18 18 18 18 17 17 17 17 17 16 16 16
24 21 22 23 24 25 28 27 28 29 27 27 27 28 29 28 27 26 25 24 25 24 24 24 23 21 21 21 20 19 19 19 18 18 18 18 19 19 19 18 18 18 18 18 18 17 17 17 17
22 20 22 25 25 26 27 27 27 26 26 26 27 28 30 29 29 29 27 25 24 24 23 23 23 23 23 22 21 20 20 19 20 19 19 20 20 20 19 19 19 18 18 18 18 18 18 18 18
22 21 23 25 26 27 26 26 27 25 24 26 26 27 27 28 28 28 28 29 27 25 24 23 23 23 22 22 21 21 21 20 20 20 20 20 20 20 19 19 19 19 18 19 18 19 19 19 19
21 23 23 24 25 26 25 25 25 25 25 26 26 27 27 26 27 27 28 29 28 26 25 24 23 23 23 22 22 22 21 21 21 21 20 20 20 20 20 20 19 19 19 19 19 19 19 19 19
21 23 24 25 25 25 26 24 24 24 25 26 26 26 26 26 26 28 29 27 27 26 25 24 23 23 22 22 22 22 22 21 21 20 20 20 20 19 19 19 19 19 19 18 18 18 18 18 19
22 23 23 24 25 25 25 24 24 24 25 25 26 26 26 26 26 26 26 27 26 26 25 24 23 23 22 21 21 21 21 21 21 20 20 19 19 19 19 19 18 18 18 18 18 18 18 18 18
21 19 22 22 24 25 25 23 24 25 25 25 25 25 26 25 25 25 24 24 24 24 23 23 23 23 22 21 21 21 21 20 20 20 19 19 19 18 18 18 18 18 18 18 18 18 17 17 18
18 19 17 22 24 24 24 22 24 26 25 25 26 27 24 24 24 23 23 23 23 23 22 21 21 22 22 21 21 21 20 20 19 19 18 18 17 18 18 17 17 17 17 17 17 16 16 16 16
17 18 18 19 23 24 23 22 24 25 25 25 25 24 23 22 22 22 22 22 22 22 21 21 21 21 22 21 20 20 20 19 18 18 17 17 17 17 17 16 16 16 16 15 15 15 15 14 15
17 17 19 19 22 24 23 23 24 25 25 24 25 25 22 21 20 22 22 22 22 21 21 21 21 21 21 20 19 18 18 17 17 16 16 16 15 16 16 15 15 14 14 14 14 13 13 13 13
18 19 19 21 22 23 23 24 24 24 24 24 24 24 22 20 20 21 21 22 22 21 21 20 20 20 20 19 18 17 16 16 16 15 15 15 15 14 14 14 13 13 13 13 12 12 12 12 12
17 17 17 21 23 22 23 24 24 24 25 24 24 23 20 19 19 20 21 21 21 20 20 20 20 20 19 19 18 17 16 15 15 15 14 14 14 14 13 13 12 12 12 12 11 11 11 11 11
17 17 18 19 22 21 22 22 22 24 25 25 25 23 21 19 18 18 19 20 19 19 19 18 18 18 18 17 17 16 16 15 15 14 14 13 13 13 12 12 11 11 11 11 10 10 10 10 10
16 18 18 17 20 19 21 19 22 24 24 23 23 22 20 19 18 18 18 18 18 18 18 18 18 18 17 17 17 17 16 15 14 14 14 13 12 12 11 11 10 10 10 10 9 9 9 9 9
17 18 18 17 17 19 21 20 22 24 23 21 21 21 19 18 18 17 16 18 17 17 17 17 17 17 17 17 17 16 15 15 14 14 14 13 12 11 10 10 9 9 9 9 9 8 8 8 9
17 17 16 16 16 17 19 21 22 23 23 22 22 20 20 18 17 17 17 17 16 16 16 16 16 16 16 16 16 15 15 14 13 13 13 13 11 10 10 9 9 9 8 8 8 8 8 8 8
16 16 15 16 15 18 22 21 24 24 24 24 22 21 19 18 17 16 15 15 15 15 15 15 15 14 14 14 14 14 13 13 12 12 11 11 10 9 9 8 8 8 8 7 7 7 7 7 7
15 15 15 17 17 20 23 21 23 24 24 23 23 21 19 18 16 15 14 15 15 15 15 15 14 13 13 13 12 12 12 11 11 10 10 10 9 8 8 8 7 7 7 7 7 6 6 6 7
14 13 14 16 22 20 20 23 23 22 22 21 21 20 19 18 17 16 15 16 16 15 15 14 13 13 12 12 11 11 11 10 10 9 9 9 8 8 7 7 7 6 6 6 6 6 6 6 6
14 16 14 17 20 20 20 21 21 21 21 21 21 19 19 18 17 16 15 16 16 15 14 13 13 12 12 11 11 10 10 9 9 9 8 7 7 7 6 6 6 6 6 6 5 5 5 5 5
15 15 16 18 20 20 19 21 22 21 21 21 20 20 19 18 17 16 15 16 15 14 14 13 12 11 11 10 10 9 9 8 8 8 7 7 6 6 6 5 5 5 5 5 5 4 4 4 4
16 17 17 20 20 20 20 20 22 21 22 21 20 21 20 19 17 16 15 15 14 13 13 12 11 11 10 10 9 8 8 8 7 7 6 6 5 5 5 5 5 5 4 4 4 4 4 3 3

GFSSGP_925_temp_009.txt.gz
Temp
25 25 25 24 21 20 22 25 28 25 27 27 28 28 27 26 27 25 25 24 23 22 21 20 20 20 20 19 19 19 18 18 18 18 18 18 19 18 17 17 18 17 17 16 16 16 16 16 16
24 25 25 20 21 20 21 24 24 25 27 26 28 29 28 27 25 23 24 24 23 22 21 21 21 20 20 20 19 19 18 18 17 18 18 19 19 19 18 18 18 17 17 16 16 16 16 16 17
24 24 21 20 20 21 22 25 26 26 26 27 27 28 27 26 24 24 25 24 23 22 22 21 20 21 20 19 20 19 18 17 17 18 18 18 18 19 18 19 18 17 17 17 16 16 16 16 17
24 22 20 21 21 23 24 26 26 26 26 27 28 27 25 26 26 26 25 25 24 22 22 21 21 20 20 20 19 19 17 17 17 18 18 17 17 18 18 19 18 18 17 17 17 16 16 16 16
23 18 20 20 21 23 24 27 27 26 27 27 28 27 25 25 26 26 26 25 24 23 22 21 21 20 20 19 19 19 18 18 18 18 18 17 18 18 18 18 18 18 17 17 17 16 16 16 16
19 18 19 19 20 23 24 28 27 27 26 26 27 26 24 25 26 26 26 25 24 23 22 21 20 20 20 19 19 19 18 18 18 18 18 17 18 18 18 18 17 17 17 16 16 16 16 16 16
19 18 18 20 20 22 26 26 26 26 25 26 26 26 24 24 25 25 26 25 24 23 23 21 20 20 20 19 19 19 18 18 18 18 18 18 18 18 18 18 17 17 17 17 16 16 16 16 16
19 18 19 19 21 21 24 26 27 26 26 26 27 25 24 24 26 25 25 25 24 23 23 22 21 20 20 20 19 19 18 18 18 18 18 18 18 18 18 18 18 18 17 17 18 17 17 17 17
20 17 18 19 20 22 24 26 27 27 26 26 26 26 27 26 25 25 25 24 24 23 23 22 22 21 21 20 20 19 19 19 18 18 19 19 19 19 18 18 18 18 18 18 18 18 18 18 18
18 16 19 21 21 22 23 24 25 26 25 25 25 26 26 26 24 23 23 23 24 24 23 22 22 21 21 20 20 20 19 19 19 19 19 19 19 19 19 19 19 18 18 18 18 18 18 18 18
18 18 20 22 22 23 23 24 25 25 24 24 24 24 25 27 26 26 25 24 24 24 23 23 22 22 21 20 20 20 20 20 20 19 19 19 19 19 19 19 19 19 19 18 18 18 18 18 18
17 20 20 21 22 22 22 24 23 23 23 24 23 24 24 24 24 26 26 26 26 24 23 23 23 23 22 22 21 21 20 20 20 20 20 20 19 19 19 19 19 19 18 18 18 18 18 18 18
17 19 21 22 22 22 22 22 22 23 23 23 23 24 23 22 23 26 27 26 26 24 24 23 23 23 22 22 21 21 21 21 21 20 20 19 19 19 19 19 18 18 18 18 18 18 18 18 18
18 19 20 21 22 22 22 22 22 22 23 22 23 22 22 22 23 24 25 25 26 25 24 23 23 22 22 21 21 21 21 21 21 20 20 19 19 18 18 18 18 18 18 17 17 17 17 17 17
18 18 19 19 21 21 22 22 22 22 23 22 22 22 22 22 23 22 23 23 24 23 24 24 23 22 22 21 21 21 21 21 20 20 19 18 18 18 17 17 17 17 17 17 17 17 16 16 15
16 16 17 19 20 21 21 20 22 22 21 21 21 20 20 21 21 22 23 23 23 23 23 23 22 22 21 21 21 21 20 20 19 18 18 18 17 17 17 17 16 16 16 16 15 15 15 14 13
14 15 15 17 20 20 22 21 21 22 22 21 20 20 19 19 19 21 22 22 22 22 22 21 22 22 21 21 20 19 19 19 18 17 17 17 17 17 17 16 15 15 15 14 14 13 13 12 12
16 14 17 16 19 19 19 20 21 22 22 21 20 20 18 18 18 20 21 21 21 21 21 21 21 21 20 20 19 18 17 17 17 16 16 16 16 16 16 15 15 14 14 13 12 12 12 11 11
15 15 17 18 19 19 20 20 21 22 21 20 19 18 17 17 17 20 21 21 21 20 20 20 20 19 19 18 17 17 16 16 16 16 15 15 15 15 15 14 14 13 12 12 11 11 11 11 10
14 14 14 16 18 17 19 20 21 22 23 21 20 18 17 16 17 17 19 20 20 19 20 20 19 19 18 18 17 16 15 15 15 15 15 15 15 14 14 13 13 12 12 11 10 10 10 10 9
14 13 14 15 17 18 17 18 20 21 22 22 21 19 18 17 16 16 15 17 18 18 18 18 18 18 18 17 16 16 15 14 14 14 14 13 14 13 12 12 12 11 11 10 9 9 9 8 9
13 16 16 16 17 16 18 19 20 21 21 21 20 18 16 16 16 15 14 15 17 17 18 18 18 18 17 17 16 15 14 14 14 13 13 13 12 12 11 11 10 10 9 9 9 8 8 8 7
14 16 16 16 16 16 17 17 20 21 21 21 17 18 17 17 17 15 13 15 16 17 17 17 17 17 17 16 16 16 15 14 14 13 12 12 11 11 10 9 9 9 8 8 8 8 8 7 7
15 14 15 16 15 15 16 16 18 21 22 22 17 18 17 16 15 14 15 15 15 16 16 16 16 16 16 16 16 15 14 14 13 13 12 11 10 10 9 9 8 8 8 8 7 7 7 7 7
13 13 13 13 14 15 17 15 17 20 22 23 19 18 17 16 15 14 13 13 14 15 15 15 16 15 15 15 14 14 13 13 13 12 11 10 10 9 8 8 8 7 7 7 7 7 7 6 6
12 13 14 13 15 17 17 15 20 21 21 22 19 18 17 15 15 13 12 12 13 14 14 14 14 13 14 14 13 13 12 12 11 10 10 9 9 8 8 8 7 7 7 7 6 6 6 5 5
12 12 15 13 15 16 16 17 18 19 19 19 18 17 16 15 14 13 12 13 13 14 14 14 13 13 13 12 12 11 11 10 10 9 9 8 8 7 7 7 7 7 6 6 5 5 5 4 4
15 16 13 13 15 17 17 18 19 19 18 18 17 17 16 15 14 13 13 12 14 14 13 13 13 12 12 11 11 10 10 9 9 9 8 8 7 7 7 7 6 6 5 5 5 4 4 4 3
12 12 15 15 14 16 16 19 18 19 19 18 18 17 16 15 15 14 13 13 13 13 13 12 12 11 11 10 10 9 9 8 8 8 7 7 7 7 6 6 5 5 5 4 4 4 3 3 3
15 14 17 15 15 14 18 18 20 18 18 19 18 17 17 16 15 14 13 12 11 12 12 12 11 11 10 10 9 8 8 8 7 7 7 7 6 6 5 5 4 4 4 4 3 3 3 3 2

GFSSGP_925_temp_012.txt.gz
Temp
24 24 24 23 21 19 21 24 24 24 25 27 25 28 27 25 26 25 23 23 23 22 20 20 20 20 20 18 18 19 18 18 18 18 18 18 19 18 17 18 17 17 17 16 16 17 17 16 17
23 24 24 18 20 20 21 24 25 25 25 24 25 26 26 25 24 22 21 23 23 22 20 20 20 20 20 19 19 19 18 17 18 18 18 18 18 18 18 18 17 17 17 17 16 16 16 16 16
23 23 19 19 18 20 21 24 25 26 26 26 27 25 25 24 23 23 24 23 23 21 21 20 20 20 19 19 19 19 18 17 17 18 18 18 18 18 19 18 18 17 17 17 16 16 16 15 16
22 20 18 20 20 21 23 23 23 26 27 26 26 24 24 25 24 25 24 23 23 22 21 20 20 19 19 19 19 18 17 17 17 18 18 17 18 18 18 19 18 18 17 17 16 16 16 16 15
22 16 19 19 19 21 22 24 24 26 26 26 25 25 24 25 25 25 24 23 23 22 21 20 20 20 19 19 19 18 17 17 17 17 18 17 18 19 18 18 18 18 17 17 16 16 16 16 16
18 16 17 18 19 21 21 23 24 26 25 25 26 24 24 24 24 25 24 23 23 22 21 20 20 20 20 19 19 18 17 17 17 17 17 17 18 18 18 18 18 17 17 16 16 16 16 16 16
18 16 17 18 19 20 22 23 24 25 25 26 25 24 23 23 25 25 25 24 23 22 21 20 20 20 20 19 19 18 18 18 18 18 18 17 18 18 18 18 17 17 17 17 17 17 17 17 17
17 16 17 18 19 20 22 24 26 25 25 26 26 23 23 23 25 25 24 24 23 22 22 21 20 20 20 19 19 19 18 18 18 18 18 18 18 18 18 17 17 17 17 17 18 18 18 18 18
19 16 16 18 19 21 22 24 24 25 25 25 26 24 25 26 24 24 23 21 21 21 22 22 21 20 20 20 19 19 18 18 18 18 18 18 19 18 18 18 18 18 18 18 18 18 18 18 18
16 15 17 18 20 20 22 23 24 24 24 24 25 25 24 24 23 22 22 22 21 21 21 22 22 21 20 20 19 19 18 18 19 19 19 18 19 19 18 18 18 18 18 18 18 18 18 18 18
16 17 18 20 21 20 21 21 22 23 23 23 25 24 24 22 22 21 22 23 23 23 22 21 22 21 21 20 20 19 19 19 19 19 19 19 19 19 19 19 18 18 18 18 18 18 18 18 17
15 18 19 20 20 20 20 22 21 22 22 24 23 23 23 23 21 21 22 23 23 23 22 22 22 21 21 20 20 20 19 19 19 19 19 19 19 19 19 19 18 18 18 17 17 17 17 17 17
15 17 18 19 19 20 20 20 20 21 22 21 21 22 22 21 20 23 26 25 25 23 23 23 22 22 21 20 21 20 20 20 20 19 19 19 19 19 18 18 17 17 17 17 17 17 17 17 17
16 17 17 18 19 20 20 20 20 21 21 21 21 22 21 21 21 22 23 25 25 25 23 23 22 22 21 21 21 21 20 20 20 20 19 19 19 18 18 18 17 17 17 17 17 17 16 16 16
16 15 16 17 18 18 20 19 20 20 21 21 21 21 20 20 22 21 24 24 25 25 24 23 22 22 21 21 21 21 21 20 19 19 19 18 18 17 17 17 17 16 17 17 16 16 15 15 15
15 14 15 18 18 18 19 18 20 21 19 20 20 19 19 19 19 21 22 23 22 23 23 22 22 22 21 21 21 21 20 20 18 18 18 18 17 17 17 17 16 16 16 15 15 14 14 13 13
13 13 14 16 18 18 18 19 21 20 19 19 19 18 18 17 17 19 21 22 22 22 22 22 22 21 21 20 20 20 19 19 18 17 18 17 17 17 17 16 15 15 15 14 14 13 12 11 12
15 14 14 15 17 18 18 18 19 19 19 19 20 19 17 17 17 19 21 21 21 22 22 21 21 20 20 19 19 18 18 17 17 17 16 16 16 16 16 15 15 14 14 13 12 12 11 10 10
13 13 14 15 17 17 17 18 19 20 18 18 19 17 16 16 16 19 20 20 20 20 20 20 19 18 19 18 17 17 16 16 16 16 16 16 16 15 15 14 14 13 12 11 11 11 10 10 9
13 12 13 14 16 17 17 16 18 20 20 20 20 17 16 16 15 16 18 18 19 19 19 18 17 17 18 19 17 17 16 15 15 15 15 15 15 14 14 13 12 12 11 11 10 9 9 8 8
12 12 13 13 15 15 16 16 18 19 20 21 20 18 17 16 15 15 14 16 17 18 17 17 17 17 18 18 17 16 15 14 14 14 13 13 13 13 12 12 11 11 10 9 9 8 8 7 8
12 14 14 14 14 13 16 16 17 19 19 19 20 16 16 15 15 14 13 13 16 17 17 17 17 18 17 17 16 16 14 13 13 13 12 12 12 12 11 11 10 10 9 8 8 8 7 7 6
12 14 14 14 13 13 15 14 17 18 18 19 21 16 16 16 15 14 13 14 16 16 17 17 17 17 17 17 17 16 15 14 13 12 12 11 11 11 10 10 9 9 8 8 7 7 7 6 6
13 13 14 13 13 13 15 15 17 17 19 19 19 16 16 16 14 13 13 14 14 16 16 16 17 16 16 16 16 15 14 13 12 11 11 11 10 10 9 9 8 8 7 7 7 6 6 6 5
13 12 11 11 12 14 15 15 16 18 20 21 21 16 15 16 13 13 12 12 12 14 15 15 16 15 15 15 15 14 14 13 13 12 11 10 10 9 8 8 8 7 7 6 6 6 6 5 5
12 13 11 11 11 14 16 15 16 18 19 19 19 17 16 14 14 13 13 12 12 13 14 14 14 14 14 14 14 13 13 13 12 11 11 10 9 8 7 7 7 6 6 6 6 5 5 4 4
12 11 13 13 13 13 15 16 17 18 18 18 18 16 15 15 13 13 12 12 12 12 13 14 13 13 13 13 13 12 12 12 11 10 9 9 8 7 7 7 6 6 6 5 5 4 4 4 3
12 13 11 12 11 13 15 16 18 18 19 16 16 15 15 14 13 12 12 12 12 12 13 13 13 12 12 12 12 11 11 10 10 9 9 8 7 7 7 6 6 6 5 4 4 4 3 3 3
11 12 13 13 13 14 16 17 19 20 18 17 16 16 14 13 13 12 12 12 11 12 12 12 12 11 11 11 10 10 9 9 8 8 8 7 7 6 6 6 5 5 4 4 3 3 3 2 2
13 13 13 13 13 15 13 15 18 21 18 17 16 16 14 14 13 12 11 10 10 10 11 11 11 11 10 10 9 9 8 8 8 7 7 6 6 6 5 5 4 4 3 3 3 2 2 2 2

GFSSGP_925_temp_015.txt.gz
Temp
23 24 24 22 20 18 21 23 23 24 26 25 23 25 26 24 26 24 22 22 22 22 20 20 21 20 19 18 18 18 18 18 18 17 18 18 18 18 17 17 17 17 17 16 17 16 17 16 16
23 23 23 16 19 19 19 22 25 25 25 23 24 25 25 25 23 21 21 22 22 21 20 20 20 20 19 18 18 18 17 17 17 18 18 18 18 18 17 17 17 17 17 16 16 16 16 16 16
23 22 19 17 16 18 20 23 24 24 24 25 26 23 24 24 23 21 23 23 21 21 20 20 20 20 19 18 18 18 17 17 18 18 18 18 18 18 18 18 17 17 17 16 16 16 16 15 16
22 19 17 19 19 19 21 22 23 23 26 26 25 25 24 24 24 24 24 23 22 21 20 20 20 19 19 19 19 18 17 17 17 17 18 18 18 18 18 18 18 18 17 16 16 16 16 15 15
20 15 18 18 18 20 20 21 23 23 24 26 25 25 24 24 24 24 23 22 22 21 20 20 20 19 19 19 19 18 17 17 17 17 17 18 18 18 18 18 18 17 17 16 16 16 16 16 16
18 15 16 17 18 20 19 21 22 23 24 25 25 23 23 23 23 23 23 23 22 22 21 20 20 19 19 19 18 18 17 17 17 17 17 17 18 18 18 18 17 17 17 17 16 16 16 16 16
17 15 16 17 18 19 20 22 23 23 23 25 23 23 23 22 24 23 23 23 22 22 21 20 20 19 19 19 19 18 18 17 17 17 17 17 18 18 18 17 17 17 17 17 17 17 17 17 16
16 16 17 16 18 19 22 24 24 23 24 24 23 23 24 23 25 23 22 22 22 21 21 20 20 19 19 19 19 19 18 18 18 18 17 17 17 18 18 17 18 17 17 17 17 17 17 17 17
16 16 15 17 17 20 21 23 23 24 24 24 24 22 24 25 24 22 21 20 20 20 20 20 20 19 19 19 19 18 18 18 18 17 17 17 18 18 18 18 18 18 17 17 17 17 17 18 18
15 15 17 18 18 19 21 21 21 22 21 23 24 24 22 22 23 21 20 19 19 19 20 20 20 20 19 19 19 18 18 18 18 18 18 18 18 18 18 18 18 18 18 17 17 17 17 17 17
15 16 18 19 19 20 19 20 21 22 20 21 23 24 22 21 20 21 21 21 21 21 20 20 20 20 20 19 19 18 18 18 18 18 18 18 18 18 18 18 18 18 18 17 17 17 18 17 17
15 16 17 18 19 19 19 20 20 21 21 22 21 22 23 21 19 20 20 22 21 21 21 21 21 20 20 20 19 19 18 18 18 18 18 18 18 18 18 18 18 17 17 17 17 17 17 17 16
14 15 17 17 17 18 18 18 18 19 19 20 20 20 20 20 20 22 23 24 23 22 21 21 21 21 21 20 20 19 19 19 19 18 18 18 18 18 18 17 17 18 17 17 17 17 17 16 16
15 15 15 17 17 17 18 18 18 19 19 19 19 20 20 19 19 21 22 23 23 25 22 22 21 21 21 20 20 20 19 19 19 19 19 18 18 18 18 17 17 17 16 16 16 16 16 15 15
15 14 15 15 16 17 18 18 18 18 18 18 18 18 19 19 21 20 24 24 24 25 25 22 22 21 21 20 20 20 19 18 18 19 18 17 18 18 17 17 16 16 15 15 15 15 15 15 14
14 14 13 16 16 17 18 17 19 19 19 19 18 17 18 18 19 22 23 24 24 23 23 22 22 21 21 20 20 19 18 19 18 18 18 18 17 17 17 17 16 15 15 15 15 14 13 13 13
13 13 13 15 17 18 17 17 19 19 18 17 17 17 18 17 17 20 21 22 22 22 22 21 21 21 20 19 19 18 18 18 18 18 17 17 17 16 17 16 15 15 15 14 13 13 12 11 12
13 12 13 13 17 16 16 17 17 18 18 18 18 19 17 17 17 19 20 20 21 21 21 20 20 20 19 18 18 17 17 17 17 17 17 17 16 16 16 15 15 14 14 13 12 12 11 10 10
12 12 12 13 15 14 14 15 16 17 17 18 16 17 17 16 16 18 19 20 20 20 20 20 19 18 19 18 16 16 15 15 16 16 16 16 15 15 15 14 14 13 12 11 10 10 10 9 8
11 11 12 12 14 14 14 14 15 16 17 18 18 18 17 16 15 15 17 18 18 19 19 19 18 17 17 17 17 17 16 14 14 15 15 15 15 14 14 13 13 12 11 10 9 9 8 8 7
11 11 12 12 13 14 13 14 16 17 17 18 19 19 19 17 15 14 13 15 17 17 17 17 16 16 17 18 17 15 15 14 13 14 13 13 13 13 13 12 11 11 10 9 8 8 7 7 7
11 12 12 13 12 11 14 14 15 16 17 18 18 18 17 15 15 14 13 13 15 16 16 16 16 16 17 17 17 17 15 13 13 13 13 12 12 12 12 11 10 10 9 8 8 7 6 6 5
12 13 13 13 12 11 13 12 13 16 17 17 16 17 16 15 15 14 13 14 15 15 15 15 16 16 16 17 19 17 15 14 13 12 12 12 11 11 10 10 9 9 8 7 7 6 6 6 5
13 12 12 12 12 11 13 12 15 16 16 16 17 17 15 14 14 13 12 13 13 14 15 15 16 16 16 17 17 17 15 13 12 11 11 11 10 10 9 9 8 8 7 7 6 6 5 5 4
12 11 11 12 12 12 14 13 14 16 16 17 18 17 14 14 13 12 12 11 11 13 14 15 15 14 15 15 15 15 15 14 13 12 11 10 10 9 8 8 7 7 6 6 6 5 5 4 4
11 11 11 11 11 11 14 13 15 16 18 19 18 16 13 14 14 13 13 12 11 11 13 13 14 14 14 14 14 14 14 13 12 11 11 10 10 9 8 7 7 6 6 5 5 5 4 4 3
10 11 12 12 13 12 13 14 16 16 15 15 15 15 13 14 13 13 12 11 11 11 12 14 14 13 14 14 13 13 12 12 11 10 10 9 8 8 7 6 6 5 5 5 4 4 3 3 3
11 12 11 10 11 11 12 13 15 16 17 17 15 15 14 14 13 12 11 10 10 11 12 13 13 13 12 13 12 12 11 11 10 10 9 8 7 7 6 6 5 5 4 4 3 3 3 2 2
10 11 12 12 10 9 11 14 15 16 17 15 14 14 14 13 13 11 11 10 9 10 11 11 12 12 11 11 11 10 10 10 9 9 8 8 7 6 6 5 5 4 4 3 3 3 2 2 1
12 12 11 11 9 11 11 14 16 15 16 16 14 14 14 13 12 12 10 9 9 9 10 10 10 11 10 10 10 9 9 8 8 8 7 6 6 5 5 4 4 3 3 3 2 2 1 1 1

GFSSGP_925_temp_018.txt.gz
Temp
22 23 24 22 20 17 19 21 22 23 25 24 23 24 25 24 25 24 21 22 22 22 21 21 21 20 19 18 18 18 18 18 17 18 18 18 18 18 17 17 17 17 16 16 16 16 16 16 16
22 23 22 16 18 18 18 20 23 24 25 23 23 24 25 25 22 21 21 21 22 22 21 21 21 20 19 18 18 18 17 17 17 17 18 18 18 18 18 17 17 16 16 16 16 16 16 16 16
22 22 19 17 15 17 19 22 22 22 21 24 25 23 23 24 22 21 23 22 21 21 20 20 20 19 19 18 18 17 17 17 17 18 18 18 18 18 18 17 17 17 16 16 16 16 16 16 16
21 18 16 18 18 18 20 22 22 21 23 24 24 25 23 23 23 23 23 22 21 20 20 20 20 19 19 18 18 17 17 17 17 17 18 18 18 18 18 18 17 17 17 17 16 16 16 16 16
19 15 17 17 17 19 19 21 21 21 22 24 24 25 24 23 23 23 23 22 21 20 20 20 20 19 19 18 18 18 17 17 17 17 18 18 18 18 18 18 17 17 17 16 16 16 15 15 15
17 15 16 16 18 19 19 20 21 22 22 22 24 23 23 23 23 22 23 23 22 21 20 20 19 19 19 19 18 18 17 17 17 17 17 17 18 18 18 18 17 17 17 16 16 16 15 15 16
16 15 16 17 17 19 20 20 22 22 22 23 23 23 23 22 23 23 22 22 21 21 20 20 19 19 19 19 18 18 18 17 17 17 17 17 18 18 18 18 17 17 17 16 16 16 16 16 17
14 15 16 15 17 18 21 22 23 22 23 23 23 23 24 23 23 22 21 21 20 20 20 20 19 19 19 19 18 18 18 18 17 17 17 17 17 17 17 17 17 17 17 16 16 17 17 17 17
15 15 15 16 17 18 21 21 21 22 22 22 23 22 23 23 22 22 20 19 19 20 20 20 19 19 19 19 18 18 18 18 17 17 17 17 17 18 17 18 17 17 17 17 17 17 17 17 17
15 14 16 16 17 19 20 20 20 21 20 21 22 23 22 21 21 20 19 19 19 20 20 20 19 19 19 18 18 18 18 18 17 17 17 17 18 18 17 17 17 17 17 17 17 17 17 18 17
15 15 17 17 19 18 19 19 20 20 19 20 22 20 20 20 20 19 20 20 20 20 20 20 20 19 19 18 18 18 18 18 17 17 17 17 18 18 18 18 17 18 17 17 17 17 17 17 16
15 15 16 17 18 17 18 18 17 19 19 20 19 20 20 21 18 19 20 21 21 20 20 20 20 19 19 18 19 19 18 18 17 17 17 18 18 18 17 17 18 17 17 17 16 16 16 16 16
14 14 16 16 16 16 17 17 17 17 18 18 19 19 18 18 18 21 22 22 21 21 22 21 20 20 19 19 19 19 18 18 18 18 18 18 18 17 18 17 17 17 16 16 16 16 16 16 15
14 14 14 15 16 16 16 16 17 18 18 17 17 18 18 17 18 20 21 23 23 23 23 22 21 21 20 19 19 19 19 18 18 18 18 17 17 17 18 17 16 16 15 15 15 15 15 15 14
14 13 13 14 15 15 17 16 16 18 17 17 16 17 17 18 19 18 22 23 25 25 24 23 22 21 20 20 20 19 19 18 18 18 18 18 17 17 16 16 15 15 15 15 15 14 14 14 14
15 14 13 14 15 15 16 16 18 18 17 17 18 16 16 18 18 20 21 22 24 24 24 22 21 20 20 20 19 19 18 18 18 18 18 17 16 16 16 16 15 15 15 14 14 14 13 13 13
14 13 13 14 16 16 15 16 18 17 16 15 15 15 15 16 17 19 21 22 22 22 22 22 20 19 19 19 18 18 18 17 17 18 17 16 16 16 16 15 15 14 14 14 13 12 12 11 12
13 13 13 14 15 14 13 14 15 16 16 16 15 15 15 15 17 20 20 21 20 21 21 21 19 18 18 18 17 17 16 16 16 16 16 16 16 16 16 15 14 14 13 13 12 11 10 9 9
12 11 11 12 13 13 13 14 15 15 14 15 16 17 15 15 16 18 20 19 19 19 19 19 18 18 18 17 16 15 15 15 15 15 15 15 16 15 15 14 13 13 13 11 10 10 10 9 8
12 12 12 12 13 12 13 13 15 14 15 15 15 16 15 16 15 15 17 18 18 19 18 17 18 17 17 17 16 15 15 14 14 14 14 14 15 14 14 13 13 12 11 10 10 9 9 8 7
10 10 10 10 12 12 12 13 15 16 16 16 16 17 17 16 15 15 14 16 17 17 18 17 17 16 16 16 16 14 14 13 12 13 13 14 14 13 13 12 12 11 10 9 8 8 7 7 7
10 12 12 11 10 10 12 12 15 15 15 15 16 16 16 16 14 14 13 13 16 17 17 17 16 16 16 16 16 16 13 12 12 12 12 12 12 12 12 11 10 10 9 8 8 7 6 6 5
11 12 11 11 11 10 11 11 12 13 14 15 14 13 15 16 15 14 13 15 15 16 15 16 15 15 16 16 16 15 13 13 13 12 12 11 11 11 10 10 10 9 8 8 7 6 6 5 4
12 11 11 11 11 11 12 11 14 14 15 15 15 15 15 15 13 14 14 13 14 14 14 14 14 14 15 15 15 17 16 13 12 11 11 10 10 10 9 9 9 8 7 7 6 6 5 5 4
11 10 11 11 11 11 12 11 14 15 15 15 15 14 14 13 12 11 11 11 11 12 13 13 14 13 14 14 15 16 16 15 13 11 11 10 9 9 9 8 8 7 6 6 5 5 5 4 3
10 11 11 11 9 10 12 12 12 14 16 16 17 15 14 12 11 12 12 12 11 11 12 12 13 13 13 14 14 14 15 14 13 12 11 10 9 9 8 7 7 6 6 5 5 4 4 3 3
10 10 11 11 11 11 11 12 14 15 14 14 14 14 13 12 11 12 12 12 11 11 11 12 12 13 13 13 13 13 13 13 11 10 10 9 8 8 7 7 6 5 5 4 4 4 3 3 2
11 11 10 10 11 11 10 12 12 15 15 14 15 13 13 12 11 11 11 10 10 10 11 12 13 13 12 12 12 12 12 11 11 10 9 8 7 7 6 6 5 5 4 4 3 3 3 2 2
10 10 10 10 11 10 9 11 13 15 14 15 14 15 14 12 12 11 10 9 8 9 10 10 11 11 11 11 11 11 10 10 9 9 8 7 7 6 6 5 4 4 3 3 3 2 2 1 1
12 11 11 11 9 9 8 13 15 13 13 14 13 12 12 11 11 10 9 8 8 8 8 9 9 10 10 10 10 10 9 9 8 8 7 6 6 5 5 4 4 3 3 2 2 2 1 1 0

GFSSGP_925_temp_021.txt.gz
Temp
22 23 23 22 23 21 21 23 22 24 25 24 24 26 26 26 27 27 21 21 22 21 21 20 21 21 19 19 18 18 18 18 18 18 18 18 18 18 18 17 17 16 16 16 16 17 17 17 16
22 23 22 19 22 22 22 21 23 24 24 23 23 24 26 27 24 23 22 21 21 21 21 20 20 20 19 18 18 18 18 17 18 18 18 18 18 18 18 17 17 16 16 16 16 16 16 17 17
22 22 21 21 19 21 22 22 23 23 22 24 25 24 25 26 23 23 23 22 21 21 21 20 20 20 19 18 18 18 17 17 17 17 18 18 18 18 18 17 17 17 17 16 16 16 16 16 16
21 19 19 21 21 20 21 23 22 23 24 24 24 25 24 23 23 22 23 22 21 21 20 20 20 19 19 18 18 17 17 17 17 17 18 18 18 18 18 18 17 17 17 16 16 16 15 15 15
19 18 20 19 20 20 20 21 22 22 23 24 24 26 25 23 23 23 22 21 22 20 20 19 20 19 19 18 18 17 17 17 17 17 18 18 18 18 18 18 18 17 17 16 16 15 15 15 15
18 18 19 19 20 19 20 21 22 22 23 24 24 24 25 22 22 22 21 22 22 21 20 19 19 19 19 19 18 18 17 17 17 17 17 17 18 18 18 18 17 17 17 16 16 16 16 16 16
18 18 18 18 19 19 21 21 22 22 22 24 23 24 25 23 23 22 21 21 21 21 20 19 19 19 19 19 18 18 18 17 17 17 17 17 18 18 18 18 17 17 16 16 16 16 16 17 17
16 18 17 17 19 20 21 21 22 22 24 23 23 25 25 23 22 21 21 20 20 20 20 19 19 19 18 18 18 18 18 18 18 17 17 17 17 17 17 17 17 17 16 16 16 17 17 17 17
15 17 17 18 18 20 20 21 21 21 22 22 23 23 22 21 20 20 19 19 19 19 20 19 19 19 19 18 18 18 18 18 17 17 17 17 17 17 17 17 17 17 17 17 17 17 17 17 17
17 16 17 17 18 19 20 20 20 21 21 22 22 23 22 20 19 19 20 20 18 19 19 19 19 19 18 18 18 18 18 17 17 17 17 17 17 18 17 17 17 17 17 17 17 17 17 18 17
15 16 17 18 18 18 18 19 20 20 20 21 22 22 21 21 20 19 20 20 20 20 20 20 19 19 18 18 18 18 18 17 17 17 17 17 17 17 17 17 17 17 17 17 16 17 17 16 16
15 15 16 17 18 18 18 18 18 18 20 21 20 20 20 21 21 20 20 20 19 20 21 20 20 19 19 18 18 18 18 18 17 17 17 17 17 17 17 17 17 17 17 17 17 16 16 16 16
14 14 16 16 16 16 17 17 18 18 19 19 19 20 20 20 20 20 20 20 21 21 21 21 20 19 19 18 18 18 18 18 18 17 17 17 17 17 18 17 17 17 16 17 16 16 15 15 15
14 14 14 15 16 16 17 17 16 18 18 19 18 19 20 19 20 20 20 21 21 22 22 22 21 20 19 19 18 18 18 18 18 18 18 18 17 17 17 17 16 16 16 16 15 15 15 14 14
14 14 14 14 15 15 16 16 16 18 18 19 19 19 20 21 20 19 21 22 23 23 23 22 22 20 20 19 19 19 19 18 18 18 17 17 17 17 17 16 16 15 15 15 15 14 13 13 13
14 14 14 15 15 15 16 16 17 18 18 18 18 19 18 20 20 21 22 21 23 23 23 23 22 20 19 19 19 19 18 18 18 17 17 17 17 16 16 16 15 15 15 14 14 13 13 12 12
13 13 13 15 15 16 15 15 17 17 16 17 17 17 17 18 19 19 20 20 22 22 22 22 21 19 18 18 19 18 18 17 17 17 17 17 16 16 16 16 15 14 14 14 13 12 12 12 12
12 12 13 14 15 14 14 14 15 16 16 17 17 16 17 17 18 19 20 20 21 22 21 21 20 18 16 17 18 17 17 16 16 16 16 16 16 15 15 15 14 14 14 13 12 11 10 10 10
12 12 12 13 14 13 14 14 15 16 16 16 16 17 17 17 18 18 19 20 20 21 20 19 18 16 16 16 16 15 15 15 15 15 15 16 15 15 15 15 14 13 13 12 11 10 9 8 9
13 12 13 14 13 13 13 13 15 15 16 17 17 17 17 18 17 17 17 18 19 19 19 18 16 16 16 15 15 14 13 13 14 14 14 14 15 14 15 14 13 12 12 11 10 10 9 7 7
12 11 12 12 12 13 12 13 16 17 16 16 16 17 17 18 18 18 17 16 18 17 17 17 16 15 15 15 15 14 13 12 12 12 12 13 13 14 14 13 12 11 10 10 9 8 8 6 6
11 11 12 12 11 11 12 13 16 16 17 17 16 16 17 16 17 18 17 16 15 18 17 16 15 15 15 15 15 15 13 12 11 12 12 11 12 12 12 12 11 10 9 9 8 7 7 7 5
11 12 11 11 11 11 12 11 14 14 14 15 16 16 16 16 17 17 17 17 17 16 17 16 15 14 15 15 15 13 12 12 12 11 11 11 11 11 11 11 10 9 8 8 7 7 6 6 4
12 10 11 11 11 11 12 12 15 16 16 15 16 17 15 16 16 17 16 16 14 15 15 15 14 13 14 14 14 14 13 12 10 10 10 10 10 10 10 9 9 8 8 7 7 6 5 5 4
11 10 11 11 11 12 13 12 14 15 16 16 16 16 16 15 16 15 14 13 12 12 13 13 13 12 13 13 13 13 14 14 12 11 11 9 9 9 9 8 8 8 7 6 6 5 5 4 4
10 11 11 11 11 12 11 12 14 15 16 16 16 16 16 15 14 14 14 14 13 12 11 12 12 12 12 13 12 13 13 12 11 12 11 10 10 9 8 8 7 7 6 6 5 5 4 4 3
10 10 12 11 12 11 13 13 13 14 14 15 15 16 15 15 15 13 13 13 12 11 11 12 11 11 12 12 13 12 11 11 11 11 10 9 9 8 7 7 6 6 5 5 5 4 4 3 2
10 11 10 10 10 11 12 11 14 13 14 14 14 15 15 14 14 13 12 13 12 11 11 11 11 11 11 12 12 11 10 11 11 10 9 9 8 7 7 6 6 5 5 4 4 4 3 2 2
10 10 10 10 11 11 12 14 13 15 15 13 14 14 13 13 13 13 12 11 10 9 10 9 10 10 10 11 10 10 10 10 10 9 8 8 7 7 6 5 5 4 4 4 3 3 2 1 1
12 12 12 10 11 11 10 13 14 14 13 14 13 13 11 11 11 11 10 9 9 9 8 9 9 9 9 10 10 10 10 9 9 8 7 7 7 6 5 5 4 4 3 3 3 2 1 1 -0

GFSSGP_925_temp_024.txt.gz
Temp
21 22 23 25 26 27 27 27 28 28 28 29 29 29 30 31 31 30 23 23 23 23 23 21 21 20 19 19 19 19 18 18 18 18 18 18 18 18 18 17 17 17 16 17 17 16 16 16 16
21 23 25 27 26 26 28 28 27 28 28 28 28 28 29 31 29 27 25 22 23 23 23 22 21 21 19 19 19 19 18 18 18 18 18 18 18 18 18 17 17 16 16 16 16 17 17 17 17
21 22 26 26 26 26 27 28 29 28 28 28 29 29 30 30 28 28 24 22 23 23 23 22 20 20 19 19 18 18 18 18 18 18 18 18 18 18 18 17 17 17 16 16 16 16 16 16 15
23 25 25 25 26 27 27 28 27 27 29 28 29 29 29 26 27 25 23 22 23 23 22 20 20 20 19 18 18 18 17 17 17 18 19 18 18 18 18 17 17 17 17 16 16 15 15 16 16
23 25 25 24 26 27 27 27 27 27 27 28 28 29 29 27 24 23 22 22 23 22 22 20 20 20 19 18 18 17 17 17 17 17 18 18 18 18 18 18 17 17 17 16 16 16 16 16 16
24 25 24 25 26 26 26 27 27 27 28 28 28 29 30 26 25 23 22 23 22 22 21 21 20 19 19 18 18 17 17 17 17 18 17 17 18 18 18 18 17 17 17 16 16 16 16 16 16
23 24 24 25 26 26 25 27 26 27 28 28 28 29 29 28 24 23 23 23 22 22 21 21 20 19 19 18 18 18 17 17 17 17 17 17 18 18 18 17 17 17 16 16 16 16 16 16 17
23 24 24 24 25 25 26 25 26 26 27 27 27 29 29 26 23 23 22 22 22 21 21 21 21 20 19 18 18 18 17 17 17 17 17 17 17 17 17 17 17 16 16 16 16 16 17 17 17
21 22 23 24 24 25 24 24 26 25 26 26 27 27 26 23 22 23 23 22 22 21 21 21 21 21 20 19 18 18 17 17 17 17 17 17 18 18 18 17 17 17 17 16 17 17 17 17 17
21 22 23 25 25 24 25 24 25 25 25 26 26 26 25 23 23 24 24 24 23 22 22 21 21 21 20 19 19 19 18 18 18 18 18 18 18 18 18 17 17 17 17 17 17 17 17 17 17
21 21 23 22 22 22 23 22 23 24 24 26 27 27 26 25 25 24 25 26 25 24 22 21 21 20 20 19 19 19 19 19 19 18 18 18 18 17 18 18 17 17 16 16 17 16 16 16 16
19 20 21 21 21 20 21 22 22 23 25 26 24 25 24 25 26 25 25 25 24 23 22 21 20 19 20 20 20 20 20 19 19 18 18 18 18 18 18 19 17 16 17 17 17 16 16 15 15
18 20 19 20 19 20 20 20 21 22 24 24 24 24 24 25 26 25 25 25 25 23 23 21 20 19 19 20 20 20 20 19 19 19 18 18 18 18 17 17 16 17 17 16 16 16 16 15 15
18 18 18 19 19 19 19 20 21 21 23 23 23 24 25 25 26 26 25 25 25 24 24 23 21 19 19 20 20 20 20 19 19 19 18 18 18 17 18 18 17 16 16 16 15 15 15 14 14
17 17 19 19 19 19 19 19 20 22 22 23 23 24 24 25 25 25 25 25 25 25 25 24 22 21 21 20 20 20 20 19 19 19 18 18 17 18 17 17 16 16 15 14 14 14 14 14 13
17 17 18 19 18 19 18 20 22 22 22 22 23 23 24 24 25 25 25 25 25 24 24 23 21 21 21 21 20 20 20 19 19 19 18 17 17 17 17 16 16 16 15 13 13 13 13 13 13
17 18 18 19 19 19 18 20 21 20 20 21 22 23 23 23 23 23 24 24 24 24 24 23 21 21 21 21 20 20 20 19 18 17 17 17 17 17 16 16 15 14 13 13 13 12 12 13 12
18 16 17 18 19 18 18 19 20 20 20 21 21 22 22 22 23 23 23 23 23 23 23 23 22 21 21 20 20 19 19 17 16 17 17 16 16 16 16 15 13 13 13 12 12 12 11 11 11
16 16 16 18 17 17 17 18 19 20 20 20 21 21 22 22 23 22 22 23 22 22 22 22 21 21 20 19 18 17 16 15 14 16 16 16 16 15 15 14 12 12 12 11 11 11 11 10 10
15 14 15 17 17 16 17 17 18 19 19 20 20 21 22 22 23 24 22 22 22 22 22 22 21 20 19 19 18 17 14 13 14 13 15 14 14 15 14 12 12 12 11 10 10 10 10 9 9
15 14 14 14 16 16 16 17 21 21 21 21 21 21 21 22 22 23 24 23 22 22 22 21 20 19 18 18 17 15 12 11 11 11 13 13 13 14 12 11 11 11 10 10 9 9 9 10 8
14 16 15 14 13 14 15 16 20 21 21 21 21 21 21 22 22 22 22 23 23 22 21 19 19 18 18 17 14 14 14 13 13 12 12 12 12 11 11 11 10 10 10 9 8 8 8 9 9
14 14 14 14 14 13 15 12 18 18 19 20 21 22 23 23 22 21 21 21 22 21 19 18 18 17 16 15 15 15 15 14 11 10 11 11 10 9 10 10 10 9 9 8 7 7 7 7 8
13 13 13 13 12 12 15 13 18 20 21 21 21 22 22 23 22 21 21 21 21 20 18 17 17 16 15 16 15 15 14 11 9 9 9 10 9 9 8 8 8 8 7 7 6 6 6 6 6
13 11 13 12 12 14 18 16 17 20 20 20 21 22 21 22 22 21 21 21 20 19 17 16 16 16 15 15 15 14 12 11 11 10 10 9 9 9 8 8 8 7 6 6 6 6 5 5 5
12 12 13 14 16 17 17 15 18 21 20 21 20 20 20 20 20 21 21 20 19 18 17 16 16 16 15 15 14 12 12 11 10 10 11 11 10 9 7 7 7 6 6 5 5 5 5 4 5
11 11 14 12 14 13 16 18 20 20 20 19 20 19 19 19 19 19 20 20 19 18 17 16 16 15 15 14 12 11 10 10 9 9 10 9 9 8 7 7 6 6 5 5 5 5 5 4 4
12 13 11 11 12 13 16 17 18 19 19 20 19 19 18 18 18 18 19 19 19 18 17 16 16 15 15 14 11 10 9 10 9 8 8 9 8 7 6 6 6 5 5 4 4 4 4 4 4
11 10 11 12 13 13 15 17 20 19 19 19 18 18 17 17 17 17 18 18 17 17 16 15 15 14 13 12 9 9 8 8 8 8 8 8 7 6 6 6 5 5 5 4 4 4 3 3 3
15 13 12 11 12 12 12 15 19 19 18 17 18 18 17 16 16 15 16 16 16 15 14 14 14 12 11 9 8 8 8 8 8 7 7 7 6 6 5 5 5 4 4 3 3 3 3 3 2

GFSSGP_925_temp_027.txt.gz
Temp
22 25 26 27 27 28 28 30 31 30 30 32 31 31 32 32 32 30 26 26 26 25 23 20 20 20 19 18 18 18 18 18 18 18 18 18 18 18 18 17 17 17 17 16 16 16 16 16 16
22 25 27 28 26 27 29 31 29 31 31 31 31 31 31 32 32 28 27 25 26 25 23 22 20 20 19 18 18 18 18 18 18 18 18 18 18 18 18 17 17 16 16 16 16 16 16 16 16
22 25 27 27 27 27 29 31 30 30 31 30 31 32 32 32 30 30 27 25 26 25 24 23 21 21 19 18 18 18 18 18 18 18 18 18 18 18 17 17 16 17 16 16 16 16 16 16 16
24 26 27 26 27 29 30 31 31 30 31 30 31 31 32 29 30 29 26 26 26 26 25 22 21 20 20 19 18 18 18 18 18 18 18 18 18 18 18 17 17 17 17 16 16 16 16 16 16
24 27 26 26 27 29 31 30 30 29 30 30 31 31 31 29 27 26 26 26 26 26 24 20 20 20 19 19 18 18 17 17 17 18 18 18 18 18 18 17 17 17 17 16 16 16 16 16 16
25 26 25 26 27 29 30 30 29 29 30 30 30 31 31 28 28 26 25 26 26 25 24 21 20 20 20 19 18 18 17 17 17 18 17 18 18 18 18 17 17 17 16 16 16 16 16 16 16
24 25 25 27 28 29 30 30 29 29 30 30 31 30 31 30 27 26 26 26 25 25 24 22 20 20 20 19 18 18 17 17 17 17 17 17 18 18 17 17 17 16 16 16 16 16 16 17 17
25 25 25 26 27 28 30 29 29 29 29 30 30 29 30 29 26 26 26 26 25 25 24 24 21 20 19 18 18 18 17 17 17 17 17 17 18 18 17 17 17 17 16 16 17 17 17 17 18
24 24 24 25 27 27 30 27 28 29 28 29 30 30 28 26 26 26 26 25 25 24 24 24 23 21 20 20 18 18 17 18 17 17 17 18 18 18 18 17 17 17 17 17 17 17 17 18 18
22 23 24 27 28 28 28 27 28 27 27 28 28 29 27 26 26 26 26 26 25 24 24 24 24 23 21 19 19 19 18 18 18 18 17 18 20 19 19 17 17 17 17 17 17 17 18 18 18
22 22 26 27 25 26 26 26 26 26 26 28 28 29 28 27 27 27 27 27 26 25 25 24 24 23 21 20 19 20 20 19 20 20 19 20 19 18 18 18 17 17 17 17 17 18 17 17 17
21 23 24 25 24 23 23 25 25 26 26 28 29 29 28 27 28 28 27 27 28 26 25 24 24 23 22 20 20 21 22 21 21 20 20 20 19 19 20 20 19 18 17 17 17 18 17 17 17
21 22 24 23 23 22 22 22 24 24 26 27 27 27 26 27 28 28 28 27 27 27 26 24 24 23 23 22 21 22 22 21 21 20 20 20 20 20 20 19 18 17 17 17 18 17 17 17 16
22 22 22 22 22 22 21 22 22 23 25 25 25 26 26 26 27 27 28 27 27 27 26 25 24 22 22 23 22 23 22 22 21 21 20 20 20 20 19 18 16 17 17 17 17 17 16 16 16
20 19 21 21 21 21 21 20 21 23 24 25 25 26 26 26 27 27 27 28 27 27 27 26 24 23 23 22 22 23 22 22 20 21 20 20 20 18 17 17 17 17 17 16 16 16 15 15 15
18 20 19 23 22 22 20 20 25 25 25 24 25 25 26 26 27 27 27 27 27 27 27 27 25 24 23 23 22 23 22 22 20 21 20 20 18 17 17 17 17 16 16 15 15 15 15 15 14
19 20 21 22 22 21 20 21 24 24 23 24 25 25 26 26 27 27 27 27 27 27 26 26 25 24 24 23 23 23 23 22 20 20 20 19 17 16 17 17 16 15 15 15 14 14 13 14 13
21 20 21 21 22 20 20 20 22 23 23 23 23 24 25 25 25 25 25 25 26 27 26 26 25 24 24 23 23 23 22 21 20 20 19 16 15 17 17 16 15 15 14 14 13 13 12 12 12
20 19 20 21 21 20 20 20 21 22 23 23 23 23 24 24 25 25 25 24 25 26 25 25 26 25 24 23 23 22 21 20 18 18 16 15 15 16 16 15 14 14 14 13 13 13 12 11 11
18 18 18 19 20 19 19 19 20 21 22 22 22 23 24 24 25 25 25 24 24 25 25 25 25 24 23 23 22 21 20 17 16 16 14 14 15 15 15 14 14 13 13 12 12 12 12 11 10
17 17 17 17 18 18 18 19 23 24 23 23 23 22 23 23 24 25 25 25 25 24 24 24 25 24 23 22 22 19 16 14 13 13 12 13 14 15 14 14 13 12 12 11 11 10 11 11 10
16 18 18 17 16 16 17 18 21 23 24 24 24 23 23 23 23 24 24 25 25 24 24 24 24 24 22 22 20 17 14 13 12 11 11 11 12 13 13 12 12 11 11 10 10 10 10 10 10
15 16 16 16 15 14 16 15 20 22 22 23 23 24 24 24 24 24 24 23 23 24 24 23 23 22 21 20 20 17 15 15 12 11 10 10 11 12 12 11 11 11 10 10 9 9 9 9 10
15 15 14 15 14 13 16 18 20 22 23 25 25 25 24 24 24 24 23 23 23 22 23 22 21 21 20 20 18 16 17 15 11 11 10 9 10 11 11 10 10 10 9 9 8 8 8 8 8
14 13 14 14 13 15 20 18 19 22 22 22 23 23 23 23 23 23 23 23 22 22 22 21 20 20 20 18 17 17 17 14 12 10 10 9 9 10 10 10 9 9 8 8 7 7 7 7 7
13 14 15 16 17 19 20 18 20 23 23 22 23 23 23 22 22 21 21 23 22 21 21 20 20 20 18 17 18 17 15 13 12 11 9 9 9 10 9 9 9 8 7 7 7 7 7 6 6
13 11 15 14 15 14 17 19 21 22 22 23 23 22 21 21 20 20 20 21 22 22 21 19 19 19 18 18 17 16 13 12 11 11 10 11 11 10 9 9 8 8 7 7 7 7 7 6 6
14 15 11 11 12 15 18 19 20 22 22 23 22 22 21 21 20 20 19 20 22 21 20 19 19 19 18 17 16 14 12 11 11 11 12 11 10 9 9 8 8 7 7 6 6 6 6 5 5
12 11 12 14 13 14 16 18 22 20 20 20 21 21 20 19 19 19 18 20 20 21 20 19 19 18 17 15 13 12 10 10 10 10 10 9 9 8 8 8 7 7 6 6 6 6 5 5 5
16 13 14 12 13 13 13 15 19 20 20 20 20 20 20 19 19 18 17 18 19 19 19 19 18 17 16 14 11 9 9 8 9 9 9 8 8 8 8 7 7 6 6 5 5 5 5 4 4

GFSSGP_925_temp_030.txt.gz
Temp
22 24 26 26 22 23 24 26 31 30 30 30 30 30 28 29 29 25 27 26 24 21 20 20 20 19 19 18 18 19 18 18 18 18 18 18 18 18 17 17 17 17 17 17 17 17 16 16 17
22 23 26 23 22 23 25 28 29 30 31 29 29 29 29 30 28 26 26 26 25 22 20 19 20 19 18 18 18 18 18 18 18 18 18 18 18 18 17 17 16 16 16 16 16 17 17 17 17
22 23 23 23 23 23 25 29 30 30 30 30 30 29 29 29 28 27 27 26 25 22 21 20 20 20 19 19 18 18 18 18 18 18 18 18 18 17 17 16 16 16 16 16 16 16 17 17 17
23 24 24 23 24 25 26 28 30 29 30 31 30 29 30 29 30 27 26 26 26 24 22 21 20 20 19 19 18 18 18 18 18 18 18 18 18 18 17 17 17 17 16 16 16 16 16 17 17
24 23 22 23 23 25 27 29 30 29 29 30 29 28 27 28 27 26 26 27 26 23 23 21 21 21 20 19 18 18 18 18 18 18 18 18 18 18 17 17 17 17 17 16 16 16 16 16 16
21 22 21 22 24 26 27 29 29 28 28 29 29 28 27 28 27 26 26 27 26 23 21 21 21 20 20 19 19 18 18 17 18 18 17 17 18 18 17 17 17 17 17 16 16 17 16 17 17
21 21 22 23 24 26 28 29 28 28 27 28 30 29 26 26 27 26 26 26 26 23 21 20 20 20 20 20 19 18 18 17 17 17 17 18 18 18 17 17 17 16 16 16 17 17 17 17 17
22 21 22 23 24 25 27 29 28 28 27 30 30 27 26 25 26 26 27 26 26 25 22 20 20 19 19 19 19 19 18 17 17 17 17 18 18 18 17 17 17 17 17 17 17 17 17 18 18
23 20 20 22 24 25 27 27 28 29 27 28 29 28 26 27 26 26 26 26 26 24 24 21 20 19 19 18 18 18 18 18 17 17 18 18 18 17 17 17 17 17 17 17 17 17 18 18 18
20 19 21 24 25 25 27 27 27 27 26 25 26 26 27 26 26 25 25 25 25 24 24 23 22 21 20 19 19 18 17 18 18 17 18 18 18 18 17 17 17 17 17 17 17 18 18 18 17
20 19 23 24 25 25 24 24 27 25 25 25 25 26 25 26 26 25 26 26 25 25 24 24 23 22 21 20 20 18 18 18 18 18 18 19 19 19 18 18 17 17 17 17 18 18 17 17 17
20 22 22 23 24 24 22 24 23 24 24 25 25 26 27 25 25 25 26 27 26 25 25 24 24 22 21 21 20 19 19 19 19 19 19 19 19 19 18 18 18 17 17 17 18 18 17 17 17
20 21 23 23 23 22 23 21 21 22 23 24 25 25 25 25 25 27 27 27 27 26 25 24 24 23 21 20 20 20 21 20 20 20 20 20 19 19 19 18 18 18 17 17 17 17 17 17 16
22 21 21 22 22 21 21 21 20 21 22 22 23 23 23 24 24 26 26 27 27 27 26 25 24 23 22 21 21 21 22 21 21 20 20 20 20 20 20 18 18 18 17 17 17 17 16 16 16
20 18 19 20 20 20 21 19 20 21 22 22 22 23 23 23 24 24 26 27 27 27 27 25 24 23 23 22 21 21 22 22 21 21 20 20 20 20 19 18 18 17 17 16 16 16 16 15 15
18 18 17 21 21 21 20 18 21 22 21 21 22 22 23 23 24 25 26 27 27 27 27 26 25 23 22 22 22 22 23 22 21 21 20 20 20 19 19 18 17 17 16 16 16 15 15 15 14
18 16 18 20 21 22 20 19 21 22 22 21 21 22 23 23 23 25 26 26 27 27 27 27 25 24 23 23 22 22 22 22 21 21 20 20 19 19 18 17 17 16 15 15 15 15 14 14 13
17 18 18 19 21 21 19 19 20 21 21 21 20 21 21 22 22 25 26 26 27 27 27 27 26 24 23 22 22 22 23 22 22 21 20 20 19 18 17 17 16 15 15 15 14 14 13 13 12
19 19 18 19 21 19 18 19 19 20 20 20 21 21 21 22 22 25 25 25 25 26 26 26 26 25 24 24 23 23 23 21 21 21 20 19 19 17 16 16 15 15 15 14 14 13 12 12 12
18 17 17 18 19 18 17 17 18 19 19 20 20 20 21 21 21 22 24 25 25 25 25 25 26 25 24 24 23 22 21 20 21 20 18 18 17 16 16 16 15 14 14 14 13 13 12 11 11
16 16 16 16 17 17 17 17 18 21 20 20 20 21 21 21 21 21 22 23 24 24 24 24 25 25 23 23 23 21 20 18 18 17 16 15 15 15 15 15 14 14 14 13 13 12 12 11 10
15 18 17 17 15 14 15 13 17 19 20 21 19 19 19 20 20 21 21 21 23 24 24 24 24 25 24 23 22 21 17 15 15 15 14 14 13 14 14 14 14 13 13 12 12 11 12 11 10
16 16 15 15 14 13 14 11 15 19 19 21 21 21 20 19 19 19 19 21 23 23 23 24 24 24 24 23 21 19 16 15 14 13 13 12 12 13 14 14 13 12 12 11 11 11 10 10 10
15 15 15 14 14 11 13 14 15 19 20 20 20 21 20 21 22 20 20 22 22 23 23 23 23 23 23 22 19 17 16 14 12 12 11 12 12 12 13 12 12 12 11 11 10 10 9 9 9
14 13 10 11 11 10 18 14 16 20 20 20 20 21 21 21 21 20 18 17 20 22 22 22 22 22 22 21 19 17 15 14 12 11 10 10 10 11 11 11 11 11 11 10 9 9 9 8 7
13 14 11 13 12 14 16 15 16 20 21 21 21 21 20 19 19 19 19 17 18 20 21 21 21 21 21 20 18 16 15 13 11 11 10 9 9 10 10 11 10 10 9 9 9 8 7 7 7
13 11 14 12 13 10 13 17 18 20 20 20 19 20 18 18 19 19 17 17 18 19 21 21 20 20 20 19 17 16 15 12 11 10 9 9 9 10 10 10 9 9 8 8 8 7 7 7 6
14 14 11 10 8 11 14 16 17 19 18 18 18 19 18 18 17 16 16 16 17 19 21 21 20 19 19 18 17 15 14 12 11 10 9 10 9 10 9 9 8 8 7 7 7 7 6 6 6
12 12 12 13 12 10 12 15 19 17 18 18 17 18 17 17 17 16 15 16 16 19 19 20 19 19 18 17 14 13 12 11 10 10 10 10 9 9 9 8 8 7 7 7 7 6 6 5 5
14 12 12 9 10 11 10 13 18 17 18 17 17 18 18 18 17 16 16 15 15 17 18 19 19 18 16 13 12 11 11 10 10 10 9 9 8 9 8 8 7 7 6 6 6 5 5 5 4

GFSSGP_925_temp_033.txt.gz
Temp
23 24 23 22 20 18 20 22 24 26 28 27 27 27 27 27 27 25 25 24 23 20 20 19 19 19 18 18 19 19 19 18 18 18 18 18 17 17 17 17 17 17 17 17 17 17 17 16 18
23 23 23 19 19 19 19 23 23 25 27 27 27 28 27 26 25 23 22 23 22 21 20 19 19 19 19 20 19 19 18 18 18 18 18 18 17 17 17 17 16 16 16 16 16 16 17 17 17
22 21 19 18 17 18 20 24 25 27 27 28 28 28 28 26 24 24 24 22 22 21 20 19 19 19 19 19 19 18 18 18 18 18 18 18 17 17 17 16 16 16 16 16 16 16 17 17 17
21 20 18 19 19 21 22 24 26 28 28 28 28 27 26 25 25 26 24 22 22 21 20 19 19 19 19 18 19 18 18 18 18 18 18 18 17 17 16 16 16 16 16 16 16 16 17 17 17
20 17 18 18 19 21 22 23 25 27 27 27 28 27 25 25 26 26 25 23 22 20 20 20 20 20 19 19 19 19 18 18 18 18 18 18 17 17 16 17 17 17 16 16 16 16 17 17 17
18 17 17 18 19 22 22 24 25 26 27 27 28 27 25 25 25 26 26 24 23 21 21 20 20 20 20 19 19 19 18 18 18 18 18 17 17 17 16 17 17 17 16 16 16 17 17 17 17
17 16 17 19 19 21 23 25 24 25 26 26 27 26 24 24 25 26 25 25 23 22 21 20 20 20 20 19 19 19 18 17 18 17 17 18 18 18 16 17 17 16 17 17 17 17 17 17 17
17 17 19 18 20 20 23 25 26 24 25 27 28 24 23 24 26 26 25 24 23 22 21 20 20 20 19 19 19 19 18 18 17 17 18 18 18 18 17 17 17 17 17 17 17 17 18 18 18
20 17 16 19 20 21 23 23 27 27 26 26 25 24 24 26 26 25 25 22 21 21 22 20 20 19 19 19 18 18 18 18 17 17 18 18 18 17 17 17 17 17 17 17 17 18 18 18 17
17 16 17 20 20 21 23 23 23 25 26 25 24 24 25 26 25 24 24 24 22 20 20 21 20 19 19 19 18 18 18 17 17 18 18 18 18 17 17 17 17 17 17 17 17 18 17 17 17
18 16 19 20 21 22 22 22 22 23 23 23 24 23 22 24 24 23 23 25 24 23 21 21 21 20 19 19 19 18 18 18 18 18 18 18 17 17 17 17 17 17 17 17 17 17 17 17 17
17 19 19 20 21 21 21 21 20 21 22 21 23 23 25 22 21 22 23 24 24 24 23 21 21 20 19 20 20 19 18 18 18 18 18 18 18 18 18 18 17 17 17 17 17 17 17 17 17
17 18 20 20 20 21 21 20 20 19 20 20 20 21 23 23 22 24 25 25 25 24 24 23 22 21 20 20 20 19 19 19 19 19 19 19 18 18 18 18 17 17 17 17 17 17 17 17 16
19 19 19 19 19 19 20 19 20 20 20 19 20 20 20 21 22 24 24 25 24 25 24 24 23 22 21 21 20 20 19 19 19 19 19 19 19 19 18 18 17 17 17 17 17 17 17 16 16
18 18 17 18 18 18 19 18 18 19 18 18 18 18 20 20 22 22 25 25 26 25 25 24 24 23 22 21 21 21 19 19 19 19 19 19 19 19 18 18 17 18 17 17 17 16 16 16 15
17 17 15 17 19 19 18 17 19 18 18 18 19 19 19 20 20 23 25 25 26 26 25 24 24 23 23 22 21 21 21 20 20 20 20 20 20 19 18 18 18 18 17 16 16 16 16 15 15
17 14 15 16 19 19 18 17 19 19 18 17 17 18 20 20 21 23 24 25 26 26 26 24 24 23 23 22 22 21 21 21 21 21 20 20 20 19 19 19 19 17 16 16 16 16 15 15 14
15 15 15 16 19 19 18 16 17 18 18 17 17 17 16 18 20 22 24 25 25 26 26 26 24 24 23 22 21 21 21 22 21 21 20 20 20 19 19 19 18 16 16 16 15 15 14 14 14
17 17 16 16 18 17 16 16 16 17 16 17 19 18 18 19 19 22 23 24 25 26 26 26 24 23 22 21 21 21 21 21 22 21 21 20 19 19 19 18 17 16 16 15 15 14 14 13 13
15 15 15 16 17 16 15 16 17 17 17 18 18 17 17 18 18 19 22 23 23 24 25 25 25 23 22 21 21 21 21 21 21 21 21 20 19 19 19 17 16 15 15 14 14 14 13 12 12
15 15 14 14 15 15 14 13 15 16 17 17 18 18 19 18 19 17 17 21 23 24 24 25 24 24 22 21 21 21 20 18 18 18 21 19 19 18 18 16 16 15 15 14 14 14 14 12 11
14 15 15 15 13 12 13 11 11 16 17 18 15 15 17 18 18 17 17 18 21 22 24 24 24 24 24 23 21 20 18 17 17 18 19 18 18 17 16 16 15 15 14 14 14 13 13 13 11
14 14 14 14 12 11 12 10 11 13 16 17 17 16 15 17 17 16 17 19 21 23 23 23 23 24 24 23 22 21 18 17 17 16 16 16 15 15 15 14 14 14 14 13 13 12 12 12 11
14 14 14 13 11 7 10 11 11 15 17 19 18 18 19 16 16 17 19 19 19 20 20 21 22 22 23 23 21 20 17 17 14 13 13 13 13 13 14 13 14 14 13 13 12 12 11 11 10
13 11 6 8 10 9 13 11 12 16 18 18 17 17 20 18 17 16 17 16 17 18 19 20 20 22 22 21 20 18 18 17 15 14 12 11 12 12 13 13 13 13 12 12 11 11 10 10 9
12 11 8 10 9 11 13 12 14 17 18 17 19 18 19 18 15 16 16 15 16 18 18 18 19 20 22 20 18 17 18 15 14 12 12 11 11 12 12 12 12 11 11 11 10 10 9 9 8
12 9 12 10 10 6 11 13 15 17 17 16 16 17 15 15 15 14 14 15 16 17 17 18 18 19 21 18 16 15 15 14 15 12 12 11 10 11 11 11 10 10 10 10 10 9 8 8 7
13 12 10 6 6 9 11 12 15 16 16 16 15 14 14 14 15 14 14 14 16 16 17 17 18 19 20 17 16 14 13 14 13 12 10 10 10 10 10 10 9 9 9 9 8 8 7 7 6
12 12 12 10 8 8 9 12 15 17 16 16 15 15 15 15 14 14 13 15 16 17 16 16 18 17 18 15 14 14 13 13 11 11 10 10 9 9 10 9 8 7 8 8 7 7 6 6 6
11 10 10 7 8 8 7 12 17 17 16 15 16 16 15 17 16 14 13 14 15 15 15 15 16 16 15 15 13 12 12 11 11 10 9 9 9 8 8 8 7 8 7 7 7 6 6 5 5

GFSSGP_925_temp_036.txt.gz
Temp
22 23 23 22 19 17 18 20 22 23 25 26 26 27 27 25 26 25 22 21 21 20 19 19 19 19 18 18 19 19 18 18 18 18 18 17 17 17 17 17 17 17 17 17 17 17 17 17 18
21 22 22 17 18 18 18 20 23 23 25 24 27 26 26 26 24 20 20 20 22 20 20 19 19 19 18 19 19 19 18 18 18 18 17 17 17 17 17 17 17 17 16 16 16 16 16 17 18
20 21 19 18 16 18 19 22 24 25 24 27 28 26 25 25 23 22 23 21 21 20 20 19 19 19 19 19 19 18 18 18 18 18 18 17 17 17 17 16 16 16 16 16 16 16 17 17 17
20 19 16 17 18 19 20 22 23 23 25 28 27 26 25 24 24 25 22 21 21 20 20 19 19 19 19 19 19 18 18 18 18 18 17 17 17 17 16 16 16 16 16 16 16 17 17 17 17
19 15 17 17 18 19 20 22 22 23 24 27 27 25 24 25 25 23 22 22 21 20 20 19 19 19 19 19 19 18 18 17 17 17 17 17 17 16 16 16 16 16 16 16 16 17 17 17 17
17 15 15 18 18 20 20 21 23 23 23 26 26 23 23 24 23 21 21 21 22 20 20 19 19 19 19 19 18 18 18 18 18 18 17 17 17 16 16 16 16 16 16 16 16 17 17 17 17
16 15 16 16 18 19 21 21 23 23 23 25 25 23 22 23 23 22 21 21 21 21 20 19 19 19 19 19 19 18 18 18 18 17 17 17 17 17 16 17 16 16 16 16 16 17 17 17 17
15 15 17 17 18 19 21 24 24 22 22 25 24 21 22 22 25 23 21 20 20 20 20 19 19 19 19 18 19 18 18 18 18 18 17 18 17 17 17 17 16 16 16 17 17 17 17 17 17
17 15 15 17 18 20 21 22 22 25 24 25 24 21 23 25 24 22 20 19 19 19 19 19 19 19 19 19 18 18 17 17 17 18 18 18 18 17 17 17 17 17 17 17 17 17 17 17 17
16 14 16 18 19 20 21 22 21 22 24 24 23 23 24 24 23 21 19 19 18 18 18 19 19 19 19 18 18 18 17 17 17 18 18 18 18 17 17 17 17 17 17 17 17 17 17 17 17
16 15 18 19 19 20 21 20 20 22 22 22 22 22 22 22 22 22 21 20 19 20 19 19 19 20 19 18 18 18 18 18 17 17 18 18 17 17 17 17 17 17 17 17 17 17 17 17 17
17 17 18 19 20 19 20 21 20 20 21 20 21 21 22 22 21 21 22 21 20 20 20 20 20 20 19 19 19 18 18 18 17 17 17 17 17 17 17 17 17 17 17 17 17 17 17 17 17
16 17 18 19 18 19 19 19 19 19 19 19 19 21 21 20 21 22 22 23 23 20 20 21 21 20 19 19 19 19 18 18 18 18 18 17 17 17 17 17 17 17 17 17 17 17 17 17 16
17 17 18 18 18 18 19 18 18 19 19 18 18 18 18 19 20 22 22 23 22 22 21 20 21 21 19 19 19 19 19 19 19 19 18 18 18 18 17 17 17 17 17 17 17 17 17 16 16
18 17 17 17 18 18 19 18 16 18 18 17 17 17 18 18 21 20 23 23 24 24 23 22 22 21 20 20 20 20 20 19 19 19 19 18 18 18 18 17 17 17 17 17 17 17 16 16 15
17 16 16 17 18 18 18 18 18 17 16 17 16 16 16 18 19 22 23 23 24 24 23 22 21 21 21 20 20 20 20 20 19 19 19 19 19 18 18 18 17 17 16 17 17 17 16 16 15
16 14 15 16 17 18 16 17 18 19 17 16 16 16 16 17 18 19 22 24 25 25 24 24 21 21 22 20 20 20 20 20 20 19 19 19 19 19 19 18 18 17 16 16 16 16 16 15 15
14 14 15 15 17 17 16 15 16 16 16 16 15 16 16 16 18 20 20 22 24 25 24 24 23 21 21 20 20 19 20 20 20 19 19 19 19 19 19 18 17 17 16 16 16 16 15 15 14
16 16 16 16 17 16 15 14 15 16 15 15 17 16 16 17 18 19 21 21 22 23 24 24 23 22 20 19 18 18 19 19 20 20 19 20 19 19 19 18 17 17 17 17 16 15 14 14 13
15 15 14 15 16 16 14 14 15 16 17 17 17 18 18 17 18 16 19 22 22 23 23 23 23 23 21 19 20 19 19 19 20 20 19 20 19 19 18 18 17 17 16 15 15 15 14 13 13
15 14 14 14 14 14 13 16 15 15 15 16 17 17 17 17 17 17 15 19 21 22 23 23 22 22 22 20 20 20 18 18 18 18 19 20 19 19 18 18 18 17 16 16 15 15 15 13 12
14 14 14 14 13 11 12 11 11 13 14 15 14 13 14 15 16 16 17 17 20 22 22 22 23 22 22 21 20 19 19 17 18 18 19 19 18 18 18 18 17 17 16 16 15 14 14 14 12
14 14 14 13 11 10 11 10 11 12 14 15 16 15 15 13 14 14 14 16 19 21 21 22 22 22 22 22 21 19 19 19 20 17 17 18 17 16 17 17 17 16 16 15 15 14 14 13 13
14 13 11 10 9 6 10 10 11 13 16 18 18 16 14 16 14 13 15 18 17 18 19 20 20 21 20 20 20 20 18 17 18 16 15 15 15 14 15 16 15 15 15 15 14 14 13 13 13
12 10 7 7 9 9 11 10 10 13 15 17 16 16 15 16 16 15 15 14 17 18 18 19 19 20 21 20 19 19 18 18 18 18 15 13 13 13 14 14 14 13 15 14 13 13 12 12 11
12 11 8 10 9 9 11 11 13 14 14 15 15 15 14 14 13 13 14 14 16 17 18 19 19 19 20 20 19 18 18 17 16 16 15 14 12 12 13 12 12 13 13 13 12 11 10 10 10
11 9 11 9 9 6 9 10 13 15 16 15 14 13 13 12 12 14 14 14 15 16 17 17 18 18 19 20 19 17 17 15 16 15 14 13 12 12 11 11 12 12 12 11 10 10 9 9 9
12 11 8 4 4 9 10 10 13 15 16 15 14 13 13 13 13 13 13 13 16 16 16 16 17 17 18 18 17 16 15 14 15 14 12 12 11 11 11 10 11 11 11 10 9 8 8 8 7
11 11 11 9 7 7 9 11 12 16 16 15 13 13 13 12 12 12 13 13 15 16 16 17 17 17 17 16 16 14 13 13 12 12 11 10 10 10 10 10 10 10 9 7 7 7 5 7 6
11 10 10 6 7 6 6 10 14 13 14 13 15 15 15 15 14 14 14 12 13 15 15 15 16 16 16 14 14 12 11 11 11 10 10 10 10 9 8 9 8 8 7 6 5 3 6 6 5

GFSSGP_925_temp_039.txt.gz
Temp
21 22 22 21 19 17 18 20 21 22 25 25 24 25 26 25 26 24 21 20 21 20 20 20 20 19 19 19 19 19 19 18 18 18 18 17 17 17 17 17 17 18 18 18 18 18 17 17 17
21 22 21 15 17 17 18 19 22 22 24 22 24 25 25 25 23 18 19 20 21 20 20 19 20 19 19 19 19 19 19 18 18 18 17 17 17 17 17 17 18 17 17 17 17 16 16 16 17
20 21 18 17 15 17 18 20 22 23 22 23 25 24 24 25 22 19 22 20 20 20 20 19 19 19 18 18 18 18 18 18 18 17 17 17 17 17 17 17 17 16 16 16 16 16 17 17 18
20 18 16 17 17 18 19 22 21 21 23 23 25 24 24 24 23 23 21 20 19 19 19 19 19 19 18 18 18 18 18 18 18 17 17 17 17 16 16 16 16 16 16 16 16 17 18 18 17
19 14 16 17 18 18 19 20 21 21 21 22 23 24 25 23 24 23 20 20 20 19 19 19 19 18 19 18 18 18 18 18 17 17 17 17 17 16 16 16 15 15 15 16 16 17 17 17 17
15 14 15 17 18 18 19 20 22 22 21 22 25 22 23 22 22 20 20 19 20 20 19 19 19 19 19 19 18 18 18 17 17 17 17 17 17 16 16 16 16 16 16 16 16 16 17 17 17
15 14 15 17 17 18 19 20 22 22 21 22 24 22 22 21 20 20 20 20 20 19 19 19 19 19 19 19 19 18 18 18 18 17 17 17 17 16 16 16 16 16 16 16 16 16 17 17 17
14 15 15 15 17 19 21 21 23 22 22 22 21 21 21 21 20 20 20 19 19 19 19 19 19 19 19 18 18 18 18 18 18 17 17 17 17 17 17 17 16 16 16 16 16 16 17 17 17
15 14 14 17 17 19 20 21 22 22 22 23 23 21 22 23 21 19 19 18 18 18 19 19 19 19 19 19 18 18 18 17 18 17 17 17 17 17 17 17 17 16 16 16 16 16 17 17 17
15 13 15 17 18 20 20 20 20 21 20 23 22 22 21 21 19 18 18 19 18 18 18 18 19 19 19 19 18 18 17 17 17 18 17 17 17 17 17 17 17 17 16 16 16 17 17 17 17
15 15 17 18 19 19 20 19 21 20 20 21 21 20 20 20 19 19 18 18 19 18 18 19 19 19 19 18 18 18 17 17 17 17 17 18 17 17 17 17 16 16 16 16 16 17 17 17 17
16 16 17 18 19 19 19 20 20 20 19 20 19 19 20 21 20 19 18 18 18 18 18 18 19 19 19 19 18 19 18 17 17 17 17 17 17 17 16 17 17 16 16 16 17 17 17 17 17
16 17 17 18 18 18 18 18 18 18 19 18 19 19 19 19 19 21 21 20 18 18 18 19 19 19 19 18 19 18 18 18 18 17 17 17 17 17 17 17 17 17 16 16 17 17 17 16 16
16 16 17 18 18 18 18 17 17 18 17 17 17 18 17 17 18 20 20 21 20 19 19 19 19 19 19 19 19 19 19 18 18 18 17 17 17 17 17 17 16 16 16 17 17 17 17 16 16
17 17 17 16 18 17 18 17 15 17 17 17 18 15 16 16 19 19 21 22 22 21 20 19 20 20 19 19 19 19 18 18 18 18 18 17 17 17 17 17 17 17 16 16 16 16 16 16 16
15 15 15 17 17 17 18 17 18 17 16 16 15 15 15 15 17 20 22 22 23 23 22 21 20 19 19 19 19 19 18 19 19 19 19 18 17 17 17 17 17 17 16 16 16 16 16 15 15
15 13 14 16 17 17 16 15 18 17 16 16 16 17 15 16 16 18 21 21 22 23 23 23 21 19 19 19 18 19 18 18 18 19 19 19 18 18 17 17 17 16 16 16 16 16 16 15 15
14 15 14 15 17 16 15 14 16 16 15 15 14 15 16 15 16 18 19 21 22 22 22 22 23 21 21 19 17 17 17 17 18 19 19 19 18 18 18 17 17 16 16 16 16 16 15 15 14
15 15 15 15 16 15 14 14 15 16 14 14 14 15 16 17 17 18 19 20 20 21 21 20 21 22 20 18 17 17 17 17 18 18 19 19 19 18 18 18 18 17 16 16 16 15 15 14 13
15 15 14 14 15 15 13 13 15 16 16 17 17 17 17 17 16 16 18 20 21 21 22 21 20 21 21 19 18 18 18 17 19 19 18 19 19 18 18 18 18 17 16 16 15 15 14 13 13
15 14 14 14 14 13 12 13 15 15 15 15 15 16 17 17 17 18 17 17 19 20 21 22 22 21 21 20 18 17 18 17 17 17 18 18 18 18 18 18 18 17 17 16 16 16 16 14 12
14 14 14 13 13 12 12 11 11 14 13 14 13 13 13 13 14 15 15 15 17 18 20 21 21 21 20 20 18 17 17 16 18 18 18 18 18 18 18 17 18 18 17 16 16 16 16 15 13
14 14 13 13 11 10 11 10 12 12 14 15 15 14 14 13 13 12 13 14 17 18 19 20 20 20 20 19 18 17 17 18 19 18 18 18 18 17 17 17 17 17 16 15 15 15 15 15 14
13 12 10 9 9 7 10 10 12 14 16 13 14 15 13 12 12 12 14 15 17 18 19 19 20 21 21 20 19 18 17 18 18 17 16 17 16 16 16 16 16 16 15 15 15 15 15 14 14
12 10 7 8 7 9 10 10 12 13 14 14 13 12 12 11 12 11 11 11 14 16 18 19 19 19 19 20 20 19 19 17 18 18 16 14 14 14 15 15 15 15 15 14 14 14 13 13 12
12 11 8 11 9 9 10 10 13 14 14 15 13 13 12 11 11 11 11 12 13 15 16 16 16 18 20 19 19 19 18 17 18 18 17 17 16 15 14 14 14 13 13 13 13 12 11 11 10
11 8 11 8 8 5 10 10 12 14 13 13 12 12 12 12 11 12 12 14 15 16 16 16 16 17 18 19 19 18 17 17 17 17 16 16 15 14 15 14 13 12 11 11 11 11 9 9 9
12 11 8 4 8 9 10 9 12 14 14 13 12 12 12 12 12 11 11 13 15 16 16 16 15 16 17 18 18 18 17 16 17 17 15 14 13 12 12 11 10 10 10 10 10 9 8 8 7
11 10 8 8 7 8 9 12 11 15 13 12 12 12 12 12 13 12 11 12 13 14 15 15 14 14 16 17 17 16 15 14 15 14 13 12 12 11 10 9 9 10 10 9 9 8 7 6 5
11 10 9 6 7 5 8 10 13 12 14 12 12 13 14 14 12 10 10 11 11 13 12 12 13 12 13 14 15 14 13 12 12 11 10 10 9 9 9 8 9 8 7 8 7 6 5 5 3

GFSSGP_925_temp_042.txt.gz
Temp
20 21 22 21 18 16 17 19 20 22 23 24 24 24 24 25 25 24 20 20 20 20 21 20 20 20 20 20 20 19 19 19 19 19 18 17 17 17 17 17 18 18 18 18 18 18 17 16 17
20 21 21 15 17 17 17 18 20 21 23 20 22 24 25 26 22 18 18 19 21 20 20 20 20 20 20 20 20 19 19 18 19 19 18 17 17 17 17 17 17 18 17 17 17 17 16 17 16
20 21 18 17 14 16 17 19 19 22 19 22 24 23 24 25 21 20 21 20 20 20 20 20 20 20 20 20 20 19 19 18 18 18 17 17 17 17 17 18 17 18 17 16 16 16 17 17 16
20 18 15 16 17 17 19 21 20 20 22 22 23 23 23 23 23 22 21 20 19 19 20 20 20 20 20 19 19 18 19 18 18 18 17 17 17 17 16 16 16 16 16 16 16 17 17 16 16
18 14 15 16 17 18 18 19 20 20 20 22 22 23 23 22 22 22 21 19 19 19 19 19 19 19 19 18 18 18 18 18 18 17 17 17 17 16 16 16 15 15 16 16 17 17 17 16 16
14 14 14 16 17 19 18 19 21 21 21 21 23 22 22 20 21 19 20 19 18 19 19 19 19 19 19 18 18 18 18 18 17 17 17 17 16 16 16 15 15 15 16 16 16 16 16 16 16
15 14 15 16 18 17 19 18 21 21 21 22 23 23 21 20 20 19 19 19 19 19 19 19 19 19 19 18 18 18 19 18 17 17 17 17 16 16 16 16 16 16 16 16 16 16 16 16 17
13 15 14 15 17 18 20 19 22 21 22 22 20 22 23 21 19 19 18 19 19 19 19 19 19 19 19 19 19 18 18 18 17 17 17 17 17 17 16 16 16 16 16 16 16 16 17 17 17
14 14 14 16 17 19 20 20 21 21 21 21 22 22 21 20 18 18 18 18 18 18 19 19 19 19 19 19 19 18 18 18 18 17 17 17 17 17 17 17 16 16 16 16 16 16 17 17 17
14 13 14 16 17 18 19 20 20 21 18 21 22 19 18 18 18 18 18 18 18 18 18 18 19 19 19 19 19 18 18 18 18 17 17 17 17 17 16 17 17 16 16 16 16 16 17 17 17
14 14 16 17 18 19 19 19 20 20 20 20 20 18 19 18 18 18 19 19 18 18 18 18 17 19 19 18 18 19 18 18 17 18 17 17 17 17 16 16 16 16 16 16 16 16 16 16 17
15 16 16 18 18 18 18 19 19 19 19 20 19 19 19 20 18 17 18 18 19 18 18 18 18 18 19 19 18 19 18 17 17 18 17 17 17 17 17 16 16 16 16 16 16 16 16 16 16
15 16 16 17 17 18 18 17 17 17 17 17 17 18 19 19 19 20 19 18 18 18 18 18 18 18 18 18 18 18 18 18 18 17 17 17 17 17 17 16 16 16 16 16 16 16 16 16 16
15 16 17 17 17 17 17 16 16 17 17 16 16 17 17 17 18 20 21 20 19 18 18 18 18 19 18 18 18 18 18 18 18 17 17 17 17 17 17 16 16 16 16 16 16 16 16 16 16
16 16 16 16 17 17 17 16 15 16 17 16 16 15 16 16 18 18 20 22 21 20 19 19 18 18 18 19 18 18 18 18 18 18 18 17 17 17 17 17 16 16 16 16 16 16 16 16 16
15 15 14 16 16 17 17 16 17 16 15 15 14 13 13 15 17 20 21 21 22 21 20 20 19 18 18 18 18 18 18 18 18 18 18 18 17 17 17 16 16 16 16 16 16 16 16 15 15
14 12 14 16 15 17 15 15 17 17 16 14 14 13 14 14 15 18 19 20 21 21 21 20 20 19 19 18 18 18 19 18 18 18 18 18 17 17 17 16 16 16 16 16 16 16 16 15 15
14 14 14 14 16 15 14 13 15 15 15 14 14 13 13 14 14 18 19 20 21 21 21 21 21 19 19 19 17 17 17 18 17 18 18 18 18 17 17 17 17 16 16 15 15 16 15 15 14
14 14 14 15 16 15 14 13 14 15 14 13 13 14 15 16 17 18 19 20 20 20 21 21 21 21 19 17 17 16 16 16 17 17 17 18 18 18 18 17 17 16 16 16 16 15 15 14 13
14 14 14 14 15 15 13 13 14 15 15 15 16 16 16 16 16 16 17 18 19 20 20 20 20 20 20 18 17 17 16 16 17 18 17 18 18 18 18 18 17 16 16 15 15 15 14 13 13
14 14 14 14 13 12 11 13 14 15 15 15 14 14 14 14 14 15 14 16 17 17 19 19 20 21 20 19 18 16 17 16 16 16 16 18 18 17 17 18 17 17 16 16 15 15 15 14 12
14 14 14 13 13 12 11 12 12 13 13 13 12 12 11 12 12 12 12 13 15 17 18 18 18 19 20 19 18 16 17 16 16 16 18 17 18 18 17 18 17 17 16 16 16 15 14 15 14
13 13 13 12 11 11 11 10 12 13 15 15 12 11 11 11 11 11 10 12 14 15 16 16 17 18 19 19 18 17 16 17 17 17 17 16 17 17 18 17 16 16 16 16 15 15 14 14 14
12 12 10 9 9 7 10 11 13 14 14 12 12 11 10 10 11 12 13 14 15 16 16 15 15 16 18 19 19 17 17 16 16 17 16 16 15 15 16 17 17 16 16 16 15 14 14 13 13
12 11 8 9 7 10 10 10 12 12 13 13 13 12 10 10 10 11 11 11 14 15 16 16 16 16 16 16 17 18 18 17 17 17 16 15 15 14 15 15 15 16 16 15 14 13 13 13 12
12 11 9 11 9 10 9 10 13 12 13 13 12 11 11 11 9 10 11 12 13 14 15 15 15 16 16 17 17 17 16 16 16 16 16 17 17 17 17 16 15 15 14 13 12 12 12 12 11
11 8 10 7 7 5 9 10 12 14 12 13 11 12 11 11 10 10 10 11 12 13 14 14 15 15 16 14 15 16 16 17 16 17 16 16 16 16 15 13 12 12 12 12 11 10 10 10 10
12 10 8 4 8 10 10 9 11 14 14 11 12 11 10 10 10 10 9 10 11 11 12 13 13 13 14 15 15 15 16 16 16 16 16 16 15 14 14 12 11 10 10 10 9 9 9 9 8
10 10 8 8 6 8 10 12 10 12 13 12 11 11 10 11 12 10 9 10 10 11 11 11 11 11 12 13 14 14 15 15 14 13 14 13 12 12 11 10 10 9 8 8 8 8 8 8 6
11 10 9 6 7 6 6 9 12 12 12 11 11 12 13 12 10 9 8 9 9 9 9 9 9 11 11 11 11 11 11 11 11 11 11 11 10 10 10 9 8 7 8 8 7 7 6 6 4

GFSSGP_925_temp_045.txt.gz
Temp
21 21 22 21 22 20 20 21 20 22 24 24 23 24 26 25 26 28 19 19 20 21 21 21 21 20 20 20 20 20 19 19 19 19 18 17 17 17 17 17 18 18 18 18 18 17 17 17 17
20 21 21 18 21 20 21 20 21 22 23 21 21 24 25 27 23 19 19 20 20 21 21 20 21 20 20 20 20 19 19 19 19 19 18 17 17 17 17 17 18 18 18 17 17 17 16 17 16
20 21 20 20 18 20 21 20 21 22 21 23 25 24 24 25 22 20 20 20 20 20 21 20 20 20 20 20 20 19 19 19 19 19 18 17 17 17 17 17 17 17 17 17 17 17 16 16 16
20 19 18 19 19 19 21 22 20 21 23 22 23 25 24 22 22 21 21 19 19 20 20 20 20 20 20 20 20 19 19 18 19 18 18 17 17 17 17 17 18 18 17 16 16 16 16 16 16
19 17 18 18 18 19 19 19 20 22 22 23 22 25 24 22 21 20 20 19 19 20 20 20 20 20 20 20 20 19 19 18 18 18 17 17 17 16 16 16 16 16 16 16 16 16 16 16 16
17 17 18 19 19 19 19 20 20 21 22 23 23 23 24 20 20 19 19 18 18 19 19 19 19 20 20 19 19 18 18 18 18 18 17 17 16 16 16 15 15 15 16 16 16 16 16 16 17
17 17 18 18 20 20 20 20 21 21 22 23 23 24 24 21 19 19 18 19 18 19 19 19 19 19 19 19 19 19 18 18 18 17 17 16 16 16 15 15 15 15 16 16 16 16 16 17 17
16 18 16 17 19 20 20 20 21 21 23 22 22 24 25 20 18 18 18 18 19 19 19 19 19 18 18 18 19 19 19 18 18 17 17 17 17 16 16 16 16 16 16 16 16 16 16 17 17
14 17 16 18 18 20 19 20 21 20 21 21 22 22 20 19 18 17 17 17 18 18 18 19 18 19 19 19 19 19 19 18 18 17 17 17 16 16 16 16 16 16 16 16 16 16 17 17 17
16 16 16 17 18 19 19 20 20 21 20 21 21 20 17 17 18 18 18 18 18 18 18 18 18 19 19 19 19 18 19 18 18 17 17 16 17 16 17 17 16 16 16 17 16 16 17 17 17
14 16 16 17 18 19 19 19 19 20 20 21 21 20 19 18 18 19 19 19 18 18 17 18 18 18 18 18 19 18 18 18 18 18 17 17 17 16 16 16 16 16 16 16 16 16 16 16 17
15 15 16 18 18 18 18 19 19 19 20 20 19 19 20 19 18 18 18 19 18 18 18 17 17 18 18 18 18 19 18 18 18 18 18 17 17 16 16 16 16 16 16 16 16 16 16 16 16
15 16 17 18 17 17 18 18 19 18 18 18 18 18 19 20 20 19 19 19 18 18 18 18 17 17 17 18 18 18 18 18 18 17 18 17 17 17 17 16 16 16 16 16 16 16 16 16 16
15 16 17 17 17 17 17 17 17 18 17 17 17 18 18 18 19 19 19 19 18 19 18 18 18 17 17 17 18 18 18 18 18 18 17 17 17 17 17 16 16 16 16 16 16 16 16 16 16
15 15 16 16 17 17 17 17 15 17 17 18 18 17 18 18 18 19 21 21 21 19 19 18 18 17 17 18 18 18 19 18 18 18 18 17 17 17 17 17 16 16 16 16 15 15 16 16 16
15 15 15 16 16 17 18 16 18 17 16 17 17 17 15 17 17 18 19 20 20 21 19 19 18 17 17 17 18 18 18 18 18 18 18 17 17 17 17 17 16 16 16 16 15 15 15 15 15
14 13 14 16 15 16 17 15 17 16 16 17 17 16 16 16 16 18 19 19 20 20 20 20 18 17 17 18 18 18 18 18 18 18 18 18 17 17 16 16 17 16 16 16 15 15 15 15 15
14 13 14 15 16 15 15 14 16 16 15 15 16 16 16 16 17 18 20 20 20 20 21 21 20 18 18 17 17 17 17 17 17 17 18 18 18 17 17 16 16 16 16 15 15 15 15 15 15
14 14 14 14 15 15 14 14 15 15 15 15 16 16 17 17 17 18 18 19 19 19 20 20 20 20 18 17 17 17 16 16 16 17 17 18 18 18 17 17 16 16 16 15 15 14 14 14 14
14 14 14 14 14 14 13 13 15 16 16 15 15 15 15 16 16 15 15 16 16 17 18 19 19 20 19 17 17 17 17 16 16 16 16 17 18 18 18 17 16 16 15 15 15 15 13 13 13
14 14 13 14 13 12 12 14 15 15 14 14 13 12 13 14 14 14 14 13 14 14 15 16 18 18 19 18 17 17 16 16 16 15 16 16 17 17 18 17 17 17 15 15 15 15 14 12 12
14 14 14 13 13 14 12 15 14 13 14 13 12 12 12 13 13 13 13 13 13 14 15 16 16 17 17 18 16 16 16 17 16 16 15 15 15 16 16 17 17 17 17 15 16 15 14 14 13
14 14 13 12 11 12 12 13 15 13 15 13 13 12 12 12 12 13 13 13 14 15 15 15 16 16 17 16 16 16 16 17 17 16 15 15 15 15 15 16 16 16 16 16 15 15 14 14 13
12 12 10 9 10 12 11 12 15 14 14 13 13 12 12 11 11 12 12 12 13 14 15 15 15 15 16 16 16 15 15 16 15 15 15 15 15 15 15 14 15 15 15 16 16 14 14 13 12
12 12 11 11 10 13 10 10 13 13 13 13 13 12 12 11 12 12 12 11 12 12 13 14 15 15 15 15 15 16 15 15 15 15 15 15 14 14 14 15 14 14 14 14 14 13 13 12 11
12 12 12 14 12 12 9 11 14 12 11 13 12 12 11 12 12 12 11 11 11 11 12 13 13 14 14 14 14 15 15 15 14 15 14 14 14 16 15 14 14 15 14 13 11 11 11 11 10
11 11 10 8 7 9 11 11 12 13 12 12 12 12 12 12 12 11 11 10 10 10 10 10 11 12 13 13 13 14 14 15 15 15 15 14 15 15 15 14 12 12 12 11 10 9 9 9 9
12 10 10 7 10 12 12 11 14 13 13 12 13 12 12 11 12 11 10 10 10 9 9 10 10 11 11 12 13 13 13 13 14 14 14 14 14 13 13 13 12 11 11 10 9 8 8 8 8
11 10 8 9 8 11 12 14 11 13 12 12 12 12 11 12 11 11 10 9 9 8 7 8 8 8 9 9 11 12 13 12 12 12 12 12 12 11 12 12 11 10 9 9 8 8 8 8 7
11 10 9 9 8 6 8 12 12 11 11 11 12 12 12 11 10 10 9 8 9 7 7 7 7 7 8 8 9 10 10 12 10 9 10 10 10 10 11 11 10 9 8 7 7 7 6 6 5

GFSSGP_925_temp_048.txt.gz
Temp
20 21 22 25 26 26 27 27 27 27 27 28 28 28 30 29 31 30 22 22 23 23 23 21 21 21 21 20 20 20 20 19 19 18 17 17 17 17 18 18 18 18 18 18 18 18 17 17 17
20 21 24 26 25 26 27 27 26 28 28 27 27 28 28 30 29 26 24 21 23 23 22 22 21 21 20 20 20 19 19 19 19 19 17 17 17 17 17 18 18 18 18 18 17 18 17 17 16
20 22 25 25 25 26 27 27 28 27 27 28 29 28 29 29 28 27 23 22 23 23 23 22 21 20 20 20 20 20 19 19 19 19 18 17 17 17 17 17 17 17 17 17 17 17 16 16 16
21 24 24 24 24 26 27 27 26 27 27 27 28 29 29 26 26 25 22 22 23 23 23 20 20 20 20 20 20 20 19 19 19 18 18 17 17 17 18 17 17 17 17 17 17 16 16 16 16
21 25 24 24 25 26 25 26 26 26 26 28 27 29 29 26 23 23 22 22 23 23 23 20 20 20 20 20 20 20 19 19 19 18 18 17 17 17 17 17 18 17 17 16 16 16 16 16 16
23 25 24 24 25 26 26 26 26 26 27 28 28 29 29 24 24 21 22 22 22 22 22 21 20 20 20 20 20 20 19 19 18 18 17 17 17 16 17 16 16 17 16 16 16 16 16 16 17
23 23 24 25 25 25 25 26 25 27 27 27 28 28 29 27 22 19 19 22 22 22 21 21 20 20 20 20 20 19 19 19 18 18 17 17 16 16 16 15 15 16 16 16 16 16 16 17 17
22 23 23 24 24 24 26 25 26 26 27 27 27 28 29 25 21 19 18 19 19 21 21 22 21 20 20 19 19 19 19 18 18 18 17 17 16 16 16 16 16 16 16 16 17 16 16 17 17
20 22 23 23 23 24 24 25 25 24 26 26 27 26 23 22 19 18 18 18 18 21 21 21 21 21 20 20 19 18 18 18 18 17 17 17 18 17 16 17 16 17 17 17 17 17 17 17 17
21 22 23 24 24 23 23 25 25 25 25 26 26 25 22 21 19 19 19 19 19 19 20 21 20 21 20 20 20 19 19 18 18 18 18 19 19 18 18 17 16 16 17 17 16 17 17 17 17
21 22 23 21 22 22 23 24 24 25 24 26 26 25 23 20 19 20 20 20 19 19 18 18 20 20 20 20 20 20 20 20 20 19 19 19 19 18 17 17 16 17 17 17 16 16 17 17 17
19 21 21 21 20 21 22 24 23 24 25 25 24 23 24 23 22 20 20 20 20 19 19 18 18 20 20 20 20 20 20 19 19 19 19 19 19 18 18 18 18 18 18 18 17 18 17 16 17
19 19 20 21 20 20 21 22 23 23 24 23 23 22 24 24 24 23 21 21 20 20 19 19 18 19 19 19 20 20 20 19 19 19 19 19 19 19 19 18 18 18 18 18 18 17 17 17 17
20 19 20 21 20 20 20 21 20 22 23 23 23 23 24 24 24 24 23 23 22 22 20 19 19 19 20 17 19 20 20 20 19 19 19 18 19 19 18 18 18 18 18 18 17 17 17 17 16
18 18 20 19 20 20 20 20 20 22 24 23 24 24 23 24 23 23 24 24 24 24 23 22 20 19 19 18 17 18 19 19 20 19 19 18 18 18 18 18 18 18 17 17 17 17 17 17 16
18 19 18 20 20 19 20 21 21 22 22 22 23 24 24 23 23 23 23 22 22 22 22 22 22 20 20 18 17 17 18 18 19 19 19 18 18 18 18 18 18 18 17 17 16 16 16 16 16
18 19 19 19 19 20 19 21 21 22 21 22 22 23 23 22 23 22 22 22 22 22 22 22 21 21 21 19 17 17 17 17 19 18 18 18 18 18 18 18 18 18 17 16 16 16 16 16 16
18 18 18 19 18 18 19 20 20 21 20 21 22 22 23 23 23 23 22 22 21 21 21 21 21 21 21 21 18 17 17 17 18 19 18 18 18 17 17 18 18 18 17 16 16 16 15 16 16
19 18 19 18 17 18 19 19 20 20 21 21 21 22 22 23 23 20 20 19 19 19 19 20 20 20 21 21 18 17 17 17 17 17 18 18 17 17 17 17 18 17 17 17 16 16 15 14 15
18 18 18 17 16 18 18 18 20 20 20 19 19 20 20 20 21 19 18 18 18 18 18 19 19 19 20 20 20 18 18 17 17 16 16 16 17 16 17 17 17 17 17 17 16 15 15 15 14
17 18 17 18 16 16 17 19 18 17 17 17 17 17 18 18 19 19 18 17 17 17 16 16 17 17 17 18 19 19 19 18 18 16 16 16 16 16 16 16 16 16 16 16 16 15 14 15 13
16 17 17 16 17 19 16 20 18 17 17 17 17 17 17 18 18 18 18 17 16 15 15 15 15 15 16 16 17 19 19 19 18 18 17 16 15 15 16 15 15 16 15 16 15 14 14 15 14
16 16 16 16 16 16 16 17 19 18 17 17 17 17 17 17 17 17 17 15 15 15 14 15 16 16 15 15 16 17 18 19 19 19 18 18 16 15 15 15 15 15 15 14 15 14 14 14 15
15 15 14 14 15 15 16 16 19 18 18 17 17 17 17 17 17 17 16 15 15 15 14 14 15 16 15 15 15 15 17 18 18 18 18 17 17 15 14 14 14 14 14 14 14 13 13 13 14
13 15 14 14 14 17 13 14 20 17 17 18 17 17 17 16 17 16 16 15 14 14 14 14 14 15 15 15 15 15 15 16 17 18 17 17 17 15 15 14 14 14 14 14 13 13 12 12 12
11 13 16 17 16 17 13 15 18 17 16 17 16 16 15 16 16 16 15 14 14 13 13 13 13 14 14 14 14 15 15 15 15 16 16 17 17 17 15 14 13 14 13 13 13 12 11 11 11
12 12 14 13 12 14 18 16 16 15 16 16 16 16 16 16 16 15 14 14 13 13 12 11 12 12 12 12 13 14 14 14 14 14 15 16 16 16 16 15 13 13 13 13 12 11 10 10 10
15 14 14 13 15 17 17 17 19 15 16 16 17 17 16 16 15 15 14 13 13 12 11 11 11 11 11 11 11 12 12 12 12 13 13 14 15 15 15 13 13 12 12 12 11 10 10 9 9
13 14 13 14 13 16 18 19 17 18 18 16 17 17 16 16 14 14 13 12 12 11 11 10 10 10 10 9 10 11 11 11 11 11 11 11 11 11 11 12 11 11 11 10 10 9 9 8 7
13 14 15 15 13 12 13 18 16 17 17 16 17 16 16 15 13 13 12 11 12 11 10 9 9 9 8 8 9 9 9 9 10 10 9 8 9 10 10 10 10 9 9 8 8 8 7 7 5

GFSSGP_925_temp_051.txt.gz
Temp
20 22 25 26 27 28 28 30 30 30 29 31 30 31 31 31 32 30 25 26 26 25 23 21 22 21 21 20 20 20 20 20 20 19 18 18 18 18 18 19 18 18 18 18 18 17 17 17 17
21 24 25 28 26 27 29 30 29 30 30 30 30 30 30 32 32 28 27 25 26 25 23 22 21 21 21 20 20 20 20 20 19 19 17 17 18 18 18 18 18 18 18 18 18 18 17 16 16
20 24 26 26 26 27 29 30 30 29 29 30 31 31 32 31 30 29 26 25 26 26 24 22 21 21 20 20 20 20 20 20 20 19 18 17 17 18 18 18 18 18 17 18 18 17 16 16 16
22 25 27 25 26 28 29 29 30 29 29 30 30 31 31 28 29 27 25 25 26 26 25 22 21 21 20 20 20 20 20 19 19 19 18 17 17 17 17 17 18 18 18 18 17 16 16 17 16
23 26 25 25 26 28 29 29 29 29 29 30 30 31 31 27 26 26 25 26 26 26 24 21 21 20 20 20 20 20 20 19 19 18 18 17 17 17 17 17 17 17 17 17 17 16 17 17 17
23 25 24 25 26 28 29 29 28 28 29 30 30 30 30 27 26 25 25 26 26 25 24 21 20 20 20 20 20 20 20 19 19 18 17 17 17 17 17 17 17 17 17 17 16 16 16 16 17
22 24 24 26 27 28 29 29 28 28 29 29 30 30 30 28 24 24 25 26 25 25 24 23 21 20 20 20 20 20 20 19 19 18 18 17 17 16 16 16 17 16 16 16 16 16 17 17 17
23 24 24 26 27 27 29 28 29 28 29 30 30 29 30 27 23 21 22 25 25 24 24 24 22 20 20 19 20 19 19 18 19 18 18 17 17 17 16 16 16 17 16 17 17 17 17 17 17
22 22 23 25 26 27 29 28 28 29 28 28 30 29 26 25 22 20 19 19 21 24 24 24 24 22 22 22 19 19 18 18 19 18 18 17 18 17 17 17 17 17 17 17 17 17 17 17 18
21 22 24 26 27 26 28 26 28 26 27 28 28 27 25 25 22 21 20 20 19 23 24 24 24 23 23 22 21 19 19 18 19 18 17 19 20 19 19 17 17 17 17 17 17 17 17 18 17
21 22 24 26 23 24 25 26 28 27 27 28 28 28 26 24 22 23 22 22 20 20 21 23 23 23 23 22 22 21 21 19 19 21 20 20 21 19 19 18 17 17 17 17 16 17 17 18 19
21 23 25 25 22 21 23 26 26 26 28 28 28 27 27 26 25 24 23 23 24 21 20 19 22 23 22 22 22 22 23 22 22 22 21 21 21 20 19 20 18 18 18 19 18 18 18 18 18
20 23 23 23 21 21 24 25 25 26 27 26 26 25 26 27 27 26 24 23 23 22 21 19 19 21 22 22 22 22 23 22 22 21 21 21 21 21 20 20 20 19 20 20 19 19 19 18 18
21 22 22 22 21 21 22 23 24 25 26 25 25 25 26 26 27 26 26 25 24 24 23 21 19 19 21 22 22 22 22 22 21 21 21 21 21 21 20 21 20 20 20 20 20 19 19 19 18
20 21 21 22 22 21 21 21 22 24 25 25 25 25 25 26 26 26 26 26 26 26 25 24 22 20 20 22 20 21 22 22 22 21 21 20 20 20 20 20 20 20 20 19 19 19 19 19 18
19 20 19 21 21 21 21 21 24 24 24 24 25 26 26 26 25 26 26 25 25 25 25 25 24 23 22 22 20 18 21 21 21 22 21 21 20 20 20 20 20 20 20 19 19 19 18 18 18
18 19 20 21 22 21 20 22 24 24 23 24 25 26 26 26 25 25 25 25 25 24 24 24 24 24 23 23 21 18 17 19 21 21 21 21 21 20 20 20 19 20 20 19 19 18 18 18 18
18 19 21 21 20 21 21 21 23 23 22 23 24 25 25 25 25 25 25 25 25 24 24 24 24 24 24 23 23 20 18 17 18 20 21 20 20 20 19 19 19 20 19 19 18 18 18 18 18
20 20 21 21 20 20 20 21 22 23 22 23 23 24 25 25 25 25 23 22 21 22 22 22 23 23 23 23 23 20 18 18 16 18 20 20 20 19 19 19 19 19 19 19 18 18 18 17 17
19 20 20 20 19 19 21 20 21 22 22 23 23 23 23 24 23 22 21 20 20 20 21 21 22 22 22 22 23 23 20 18 17 16 17 19 20 19 19 19 18 19 19 19 18 18 17 17 16
19 19 20 20 18 19 19 19 20 19 20 19 19 20 21 21 22 21 20 19 19 18 17 18 18 19 20 20 21 21 22 20 19 17 17 17 17 18 19 18 18 18 19 18 18 18 17 16 15
18 19 19 18 18 19 19 22 21 19 19 19 19 20 20 20 20 20 20 19 18 17 16 17 17 17 17 18 18 19 21 21 21 20 20 19 18 17 17 17 17 17 18 18 18 18 17 16 15
18 18 18 18 18 18 19 19 21 19 18 19 19 19 19 19 19 19 18 17 17 16 16 16 17 18 17 17 17 18 19 19 20 20 20 20 19 18 16 16 16 16 16 17 17 17 16 15 16
17 17 17 17 17 16 19 20 19 19 20 19 19 19 19 19 19 19 18 17 17 16 16 16 16 17 17 17 17 17 17 18 19 20 20 20 19 19 18 16 15 15 15 16 16 16 16 15 15
17 17 15 15 15 18 17 17 22 21 21 20 19 19 19 19 19 18 18 17 16 16 15 15 16 16 16 16 17 17 17 17 17 18 19 19 19 18 17 16 15 15 15 15 15 14 15 14 14
16 17 18 17 18 19 15 17 21 20 20 19 18 19 18 18 18 18 17 16 16 15 15 14 14 15 15 15 15 16 16 16 17 17 17 18 18 18 19 17 16 14 14 14 14 14 14 13 13
11 13 16 16 17 18 18 19 18 18 18 19 18 18 18 18 18 17 17 16 15 15 14 13 13 14 13 13 14 14 15 15 15 15 16 16 17 17 18 17 17 15 14 13 13 13 13 13 12
15 15 14 14 16 18 19 20 20 17 17 18 18 19 18 18 17 17 16 15 15 14 13 13 13 13 12 12 13 13 13 13 13 14 14 14 15 15 16 16 15 15 14 13 13 13 12 12 11
15 15 15 16 16 18 20 20 18 18 18 18 18 18 18 17 16 16 15 14 14 13 12 12 12 12 11 11 11 12 11 11 12 12 12 11 11 11 11 12 13 13 12 12 12 12 11 10 10
16 17 18 17 15 15 15 18 19 19 19 18 18 18 18 17 15 15 14 13 14 13 12 11 11 10 10 10 10 10 10 10 10 10 10 10 9 9 9 10 10 10 10 10 10 9 9 9 8

GFSSGP_925_temp_054.txt.gz
Temp
21 22 24 25 22 23 24 27 28 29 30 30 29 30 28 29 28 24 26 26 25 22 21 21 22 22 21 20 20 20 21 21 20 20 19 18 18 18 18 18 18 18 19 18 18 17 17 17 16
20 22 25 22 22 23 24 28 28 29 28 29 30 29 29 27 27 25 25 26 25 23 21 21 21 21 21 20 20 20 21 20 19 19 18 18 18 18 18 18 18 18 18 18 18 17 16 16 16
20 22 22 22 22 23 25 28 28 27 29 29 29 31 31 27 28 27 26 26 25 23 22 21 21 21 20 21 20 21 21 20 19 18 17 17 17 18 18 18 18 18 18 18 18 17 16 16 16
21 23 22 22 23 25 26 28 28 28 29 29 29 29 27 27 28 26 25 26 26 24 23 22 21 21 21 22 21 21 20 20 19 18 18 17 17 17 18 17 18 18 18 18 18 16 16 16 16
22 21 21 22 23 26 27 28 29 28 29 29 30 29 25 27 26 26 26 26 26 23 22 22 21 20 20 21 21 21 20 20 19 18 18 17 17 17 18 17 18 18 18 18 17 16 16 16 17
17 21 20 21 24 26 27 27 29 29 28 29 29 29 25 27 26 26 26 26 26 23 21 21 21 20 20 21 21 21 20 20 19 18 17 17 17 17 17 18 18 18 18 17 16 16 17 17 17
16 18 19 22 24 26 27 28 27 27 28 28 30 28 25 24 25 26 26 26 26 24 22 20 20 20 20 21 21 20 20 20 19 19 18 17 17 17 16 17 17 18 17 17 16 16 17 17 18
19 16 19 22 24 25 28 28 27 27 27 29 29 26 23 23 23 24 25 26 25 25 23 21 20 20 20 21 20 20 19 19 19 18 18 18 17 17 16 16 17 17 17 17 17 17 17 18 18
20 17 17 20 23 25 28 27 27 28 27 29 28 24 25 23 22 21 21 22 24 24 24 23 21 20 20 20 20 20 19 18 18 18 18 18 18 18 18 17 17 17 17 17 17 17 18 18 18
20 18 19 23 24 24 26 27 26 26 25 26 27 25 25 23 21 20 20 20 21 24 24 24 23 22 21 21 20 19 19 18 19 18 18 18 18 18 18 18 17 17 17 17 17 17 18 18 18
19 19 22 24 23 22 26 25 27 25 24 25 25 25 24 24 23 22 21 21 20 21 24 24 24 23 23 22 21 20 19 18 19 19 18 19 19 19 18 18 18 17 17 17 17 17 18 18 18
19 20 22 23 22 22 23 25 25 25 26 25 23 24 25 24 23 23 23 23 21 20 21 22 23 23 23 22 22 21 20 20 20 19 20 20 20 20 19 18 18 18 17 17 17 17 18 18 19
19 21 22 23 21 21 23 23 23 24 25 25 24 24 25 26 26 25 24 23 24 21 21 20 21 22 23 22 22 22 22 21 21 21 21 20 21 20 20 19 19 19 18 19 18 18 18 18 18
20 21 22 22 21 21 22 22 22 24 25 24 25 24 24 24 26 26 25 24 23 23 22 21 20 21 22 22 22 22 23 22 22 22 21 21 21 21 20 20 20 19 19 19 19 19 19 19 18
20 19 20 21 20 21 21 20 21 23 24 23 23 23 23 23 25 25 26 26 25 24 24 22 21 20 20 21 22 22 22 22 22 21 21 21 21 21 20 20 20 20 20 20 20 20 19 19 18
19 19 18 20 20 20 20 18 21 23 22 21 22 22 22 23 24 25 26 26 26 25 25 24 22 21 20 21 21 21 21 22 22 22 21 21 20 20 20 20 20 20 20 20 19 19 19 19 18
17 16 17 19 21 20 19 19 21 23 21 21 21 21 22 22 24 25 25 25 25 25 25 24 24 23 22 21 22 21 21 21 21 21 21 21 21 20 20 20 20 20 20 20 19 19 19 18 18
16 16 18 19 20 20 18 18 21 22 22 21 21 22 23 23 23 25 25 24 23 23 23 24 24 24 24 23 23 22 20 20 20 20 20 21 21 20 20 20 20 19 19 20 19 19 18 18 18
19 18 18 20 20 20 19 19 20 21 20 20 20 20 21 22 23 24 22 21 21 21 21 22 22 23 23 24 23 22 20 19 19 19 19 20 20 20 20 20 19 19 19 19 19 19 18 18 18
19 18 18 20 19 19 19 18 20 20 20 20 20 19 21 21 22 20 20 20 20 20 20 20 21 21 22 22 22 23 21 20 21 19 18 18 19 20 20 19 19 19 19 19 19 18 18 18 17
18 17 18 18 18 18 18 17 18 20 20 20 19 19 19 19 20 19 19 19 19 17 17 17 18 19 19 20 20 21 21 20 19 18 17 17 17 18 18 19 19 18 18 18 19 18 17 16 17
17 19 19 18 16 16 17 16 18 18 17 18 18 18 18 19 18 18 18 18 17 16 16 16 17 17 17 18 18 18 18 19 20 19 19 19 19 18 19 19 17 18 18 18 18 18 17 16 15
18 18 18 18 17 16 17 15 19 16 16 17 17 17 17 18 18 17 17 17 17 16 16 16 16 17 17 17 17 17 17 18 18 19 20 20 20 19 18 18 18 18 17 17 18 18 17 17 15
18 16 16 16 16 14 16 16 16 16 17 16 16 16 16 17 17 17 17 17 17 16 15 15 15 16 16 17 17 17 17 17 17 17 18 19 20 20 19 18 17 18 16 16 16 16 16 16 15
16 14 12 13 13 14 17 16 16 18 18 17 17 16 16 17 16 16 15 16 16 15 15 14 14 14 15 15 16 16 16 16 16 16 17 17 18 19 19 18 18 17 17 16 16 16 16 16 14
14 15 13 15 14 14 15 13 17 18 18 17 17 17 16 17 15 16 16 16 15 15 14 13 13 14 14 14 14 15 15 15 15 15 15 16 16 17 17 17 17 17 16 15 15 15 15 15 14
12 12 15 13 17 13 14 17 17 17 16 16 17 16 16 16 16 16 16 16 15 14 13 13 13 13 12 12 13 13 13 13 13 13 14 14 14 15 15 16 16 16 16 15 14 14 14 14 14
12 15 13 10 13 15 16 16 15 14 15 16 16 16 16 16 16 15 14 15 14 13 13 12 12 12 11 11 11 11 11 11 12 12 12 11 12 12 13 13 13 13 14 15 14 13 13 13 13
11 12 13 13 12 13 14 16 18 15 15 15 16 16 16 16 14 13 13 14 14 13 12 11 11 10 10 10 10 10 9 9 10 10 10 9 9 9 9 9 10 11 12 12 12 12 12 12 12
14 16 15 12 14 11 11 14 18 16 16 16 17 16 16 15 13 13 13 13 13 12 11 11 10 9 9 9 9 8 8 7 7 6 6 7 7 8 7 8 8 9 9 9 9 9 9 10 9

GFSSGP_925_temp_057.txt.gz
Temp
22 22 21 21 19 18 20 23 26 27 27 26 28 26 26 25 25 23 24 25 23 21 21 21 21 21 21 20 20 20 21 21 20 19 19 18 18 18 18 18 18 18 18 18 17 17 17 16 17
22 22 22 18 19 19 20 23 26 25 26 27 27 27 26 25 24 23 23 23 23 22 21 21 21 21 20 20 20 21 20 20 19 19 19 18 18 18 18 18 18 18 17 17 17 16 16 16 17
22 21 18 18 18 19 20 24 24 26 26 27 27 28 25 25 23 24 25 22 23 22 21 21 21 21 20 21 20 20 20 19 19 18 18 18 18 18 18 18 18 18 18 17 17 16 16 16 17
21 20 18 19 19 21 23 24 25 26 27 27 28 24 24 25 25 25 24 23 23 21 21 21 21 21 21 21 20 20 20 19 18 18 18 17 18 18 18 18 18 18 18 17 17 16 16 17 18
21 19 17 18 19 21 23 25 26 26 26 27 27 25 23 24 25 25 24 23 22 21 21 21 21 21 21 21 21 21 20 19 18 18 17 17 17 17 17 17 18 18 18 18 17 16 17 17 18
16 17 17 17 19 22 24 25 26 26 26 27 25 23 23 24 25 25 25 24 23 22 21 21 21 21 20 21 21 21 20 20 19 18 18 17 17 17 18 18 18 18 18 18 17 17 17 18 18
17 16 17 17 19 21 23 24 25 26 26 27 27 22 20 22 24 25 25 24 23 22 21 21 21 20 20 21 21 20 20 19 19 18 19 17 17 17 17 18 18 18 18 17 17 17 17 18 18
16 17 17 18 19 21 24 25 24 25 26 27 25 22 21 22 22 23 24 23 22 22 22 20 20 20 20 21 20 20 20 19 19 19 19 18 17 17 17 17 17 18 18 17 17 17 18 18 18
17 16 16 17 19 21 24 22 26 25 25 26 23 22 21 22 22 23 24 23 21 21 22 21 21 20 20 21 20 20 19 19 19 18 18 18 18 17 17 17 17 17 17 17 17 17 18 18 18
16 16 18 20 20 19 22 23 22 25 24 23 21 21 21 21 22 20 21 21 22 21 21 22 21 21 20 20 20 20 20 19 19 19 18 18 18 19 18 17 17 18 17 17 17 17 18 18 18
17 17 19 19 20 18 21 23 23 23 24 24 21 20 20 20 20 20 20 21 22 23 21 21 22 22 21 20 20 20 19 19 18 18 18 19 18 18 18 18 17 17 17 17 17 17 18 18 18
17 19 20 20 20 17 21 22 24 23 23 21 21 21 20 20 20 19 20 21 22 22 22 21 21 22 21 21 20 21 20 19 19 18 19 19 18 18 18 18 18 18 17 17 17 17 18 18 18
17 19 20 20 20 19 20 22 22 22 22 21 22 22 21 20 20 22 22 21 22 22 22 22 22 22 22 22 22 21 21 20 20 19 19 19 19 18 19 19 19 19 18 18 18 17 18 18 18
18 19 20 20 19 21 21 21 22 22 21 22 22 22 23 23 24 23 22 23 21 22 23 23 22 22 21 22 22 21 21 21 21 20 20 19 20 19 19 19 19 19 19 19 18 18 18 18 18
18 17 18 18 18 20 20 20 20 20 21 22 22 21 22 22 24 24 24 23 23 23 22 22 23 22 22 21 21 22 22 22 21 21 21 20 20 20 20 20 19 19 19 19 18 18 18 18 18
18 17 15 18 18 19 20 18 19 19 20 20 20 20 19 21 23 25 25 25 24 23 22 22 21 22 22 21 21 21 22 22 22 22 21 21 21 21 21 20 20 20 19 19 19 19 18 18 18
16 15 15 18 18 19 18 17 19 19 19 19 19 19 19 19 20 23 25 25 25 24 24 23 22 21 21 21 21 21 21 22 22 22 22 21 21 21 21 20 20 20 20 19 19 19 19 19 18
14 15 16 17 18 18 17 17 19 19 18 18 18 18 18 19 20 24 22 22 23 23 23 23 22 22 22 22 21 21 21 21 21 21 21 21 21 21 20 20 20 20 20 20 19 19 19 19 19
16 16 16 17 19 19 18 17 19 18 20 18 17 18 18 20 21 20 20 20 21 21 22 21 22 22 22 21 21 20 20 20 21 21 21 21 20 20 20 20 20 20 19 19 19 19 19 19 18
16 16 15 18 18 18 18 17 18 17 18 18 18 17 17 19 17 18 19 19 18 18 19 20 20 21 21 21 21 20 20 20 21 20 21 20 20 20 18 18 19 20 19 19 19 19 18 18 18
16 15 16 17 17 17 17 16 17 17 18 18 18 17 18 19 18 16 16 17 17 17 17 17 17 18 19 19 19 19 19 19 18 19 19 19 19 19 19 19 18 18 19 19 19 18 18 16 16
15 17 18 16 15 14 17 14 15 17 16 16 17 16 17 15 15 15 15 16 17 16 16 16 16 17 17 17 18 18 17 17 18 18 18 18 19 19 19 19 19 19 18 17 17 17 17 16 14
16 17 16 16 15 15 16 13 15 15 15 15 15 15 14 14 14 14 15 17 16 16 15 15 15 16 16 16 17 17 17 17 17 17 18 18 18 18 19 19 19 19 19 18 17 16 16 16 15
16 15 14 14 13 12 15 13 14 14 17 15 14 14 15 15 14 14 16 16 15 15 15 15 14 15 15 15 16 16 16 16 16 16 16 17 17 18 18 18 19 18 17 18 17 17 16 15 15
15 14 10 10 10 11 14 14 15 16 15 15 14 14 14 14 13 13 13 14 15 14 14 13 13 13 13 14 14 14 14 15 14 14 14 15 15 16 16 17 17 17 17 17 17 16 16 16 15
14 14 11 12 11 12 14 14 15 15 15 15 15 14 14 14 13 13 13 14 14 13 13 13 13 12 12 12 13 13 13 13 13 13 13 13 14 14 14 15 15 16 16 16 16 16 15 15 15
12 11 14 12 14 9 12 15 16 14 14 14 14 14 14 14 13 13 14 13 13 13 12 12 12 11 11 11 11 11 11 12 11 11 12 11 11 12 12 13 13 14 15 14 14 14 14 14 14
13 14 12 8 11 13 13 14 14 14 14 14 14 14 14 13 13 12 12 13 13 12 12 11 11 10 10 10 10 10 10 10 10 10 10 10 10 10 11 11 11 11 12 12 13 12 13 13 13
12 12 13 12 9 11 13 13 16 15 14 14 14 14 13 13 12 11 11 13 12 12 11 10 10 9 9 9 8 8 8 8 8 8 8 8 8 8 9 9 9 9 10 10 11 11 11 11 11
13 13 13 11 12 10 9 12 14 14 13 14 14 14 13 13 11 10 11 12 11 10 10 9 9 8 8 8 7 7 7 6 6 6 6 6 6 7 7 8 8 8 9 9 9 8 8 8 8

GFSSGP_925_temp_060.txt.gz
Temp
22 22 22 21 19 17 19 21 24 26 26 26 26 24 24 24 25 24 22 22 22 21 21 21 21 21 20 20 20 20 20 20 20 20 19 18 18 18 18 18 18 18 18 17 17 17 17 17 18
22 22 22 16 18 18 19 21 23 24 25 24 25 25 23 23 23 20 21 21 22 21 20 20 21 20 20 20 20 20 20 20 20 19 19 18 18 17 18 18 18 18 17 17 16 16 16 17 18
22 22 18 17 16 18 20 23 22 25 25 26 26 23 23 23 23 22 23 21 21 21 21 21 21 20 20 20 20 20 20 19 19 18 19 18 18 18 18 18 18 18 18 18 16 16 17 18 18
21 19 16 17 18 20 21 21 24 25 26 26 24 22 23 23 24 23 22 22 21 21 21 21 21 21 20 20 20 20 20 19 19 18 18 18 18 18 18 18 18 18 18 17 17 16 18 18 18
21 16 16 17 18 19 20 22 23 25 26 26 25 22 22 23 23 22 21 22 21 21 21 21 21 21 20 20 20 20 20 19 19 18 18 18 18 18 18 17 18 18 18 18 18 18 18 18 18
16 17 15 16 18 20 20 21 23 25 25 24 21 21 21 22 22 21 22 22 22 21 21 21 21 20 21 20 20 20 19 19 19 19 18 17 17 18 18 17 18 18 18 18 17 18 18 18 19
18 17 16 17 18 19 21 22 23 23 25 25 22 20 20 21 21 22 22 22 21 21 21 21 21 21 21 21 20 20 19 19 19 19 18 18 17 17 17 18 18 18 18 18 18 18 18 18 18
16 18 16 16 18 19 22 20 21 24 25 25 22 20 20 21 21 22 21 21 21 21 21 21 20 21 21 21 20 20 19 19 19 19 19 18 18 17 17 17 17 17 17 18 18 17 18 18 18
16 16 17 18 18 19 18 18 21 22 24 22 21 21 21 21 21 21 20 20 20 20 21 20 20 20 20 20 20 20 20 19 19 19 18 18 18 18 18 18 17 17 17 17 17 17 18 18 18
16 17 17 20 20 17 17 18 18 22 21 19 19 19 20 21 21 19 19 19 19 19 20 21 21 20 20 20 20 20 19 19 19 18 18 19 18 18 18 18 18 17 17 17 17 17 17 18 18
15 17 18 20 20 16 16 17 19 19 23 20 19 19 19 19 19 19 19 20 20 20 20 20 21 21 20 20 20 20 19 19 19 19 18 18 18 18 18 17 17 17 17 17 16 17 17 18 18
16 18 19 20 19 15 16 17 17 20 22 21 19 19 18 18 18 19 20 21 20 20 20 21 20 20 20 20 20 20 19 19 19 19 18 18 18 18 18 18 18 18 18 17 17 17 17 18 18
17 18 19 18 17 16 16 15 16 20 21 20 19 19 18 17 19 21 22 21 22 20 20 20 20 20 20 20 20 20 20 19 20 19 19 18 19 18 18 18 18 18 18 18 17 17 17 17 18
17 18 18 17 18 18 16 16 17 21 20 21 20 19 19 18 19 19 20 21 21 22 22 21 20 21 20 20 20 20 21 21 20 20 20 19 19 19 19 19 18 18 18 18 18 18 18 18 18
17 16 17 18 18 19 18 17 17 21 20 21 20 20 22 21 22 20 21 21 22 23 23 23 22 21 21 21 21 21 21 21 21 20 20 20 19 19 19 19 19 19 19 19 18 18 18 17 17
16 16 15 17 18 19 19 17 19 19 19 20 20 20 19 19 22 23 23 23 22 22 22 23 22 22 21 21 21 21 21 21 21 20 20 20 20 20 20 20 19 19 19 19 19 18 18 18 18
15 14 15 17 17 18 18 17 19 19 18 18 18 18 18 18 19 22 23 22 23 22 21 21 22 22 22 21 21 21 21 21 21 21 21 21 21 21 20 20 20 20 19 19 19 18 18 18 18
14 15 16 17 17 17 17 16 19 19 17 17 17 17 18 18 18 20 22 22 21 22 22 21 21 20 21 21 21 21 21 21 21 21 21 21 21 21 21 21 20 20 20 19 19 19 18 18 19
15 15 16 17 18 18 17 17 18 18 18 17 16 16 17 18 17 18 18 19 20 20 20 21 21 21 20 19 19 20 20 21 21 21 21 21 21 21 20 19 19 19 19 19 19 19 19 18 18
15 15 15 17 18 17 16 16 16 17 17 17 17 16 16 18 16 16 17 18 19 18 19 19 18 19 20 20 20 19 19 19 20 20 20 20 20 20 20 20 20 19 19 18 18 19 18 18 17
15 15 14 16 16 17 16 15 16 16 16 17 17 17 16 16 15 14 15 16 17 17 17 17 17 17 17 18 18 18 18 19 18 19 19 19 19 19 19 19 19 18 18 18 18 17 18 16 16
14 15 16 16 15 15 16 13 15 15 16 15 15 14 15 15 14 14 14 15 16 16 16 16 16 16 16 16 17 17 17 17 18 18 18 18 18 18 18 18 18 18 18 18 18 18 17 16 15
15 16 15 15 14 14 15 14 13 15 14 15 13 13 13 12 13 13 14 15 15 15 15 15 15 15 15 16 16 16 16 16 16 16 16 16 17 17 18 18 18 18 18 18 18 17 17 16 14
15 14 13 12 13 12 14 13 12 13 14 15 13 13 12 12 12 13 14 14 14 14 14 14 14 14 14 14 15 15 15 15 15 15 15 15 15 15 16 16 17 17 17 17 17 17 17 16 16
15 13 11 12 12 11 13 13 15 15 15 14 14 13 12 12 12 12 12 13 13 13 13 13 13 13 13 13 13 13 13 13 13 13 13 14 14 14 14 15 15 16 16 17 16 16 16 16 16
14 13 10 12 11 12 13 12 15 14 14 14 14 14 13 12 11 11 12 13 13 13 13 12 12 12 12 12 11 12 12 12 12 12 11 12 12 12 12 13 14 14 15 15 15 15 15 14 14
13 12 13 11 11 8 12 13 15 14 14 13 13 13 12 12 11 11 12 12 12 12 12 12 11 11 10 10 10 10 10 11 10 10 10 10 10 10 11 11 12 12 13 13 14 13 13 13 13
12 13 13 8 10 12 12 12 14 14 13 13 13 13 12 12 11 10 11 12 12 11 11 11 10 10 9 9 9 9 9 9 9 9 9 9 9 9 9 10 10 10 11 11 11 11 11 12 12
11 13 12 11 9 10 11 12 13 14 15 14 14 13 12 12 11 10 10 11 11 10 10 10 10 9 9 8 8 8 8 7 7 7 7 7 7 8 8 8 8 9 9 10 10 10 10 10 10
12 12 13 12 10 8 8 11 14 13 13 14 14 14 13 12 11 9 10 10 10 9 9 9 8 8 8 7 7 6 6 6 6 6 5 6 6 6 6 7 7 7 7 8 8 8 7 6 6

GFSSGP_925_temp_063.txt.gz
Temp
21 23 22 21 19 16 18 20 21 24 25 25 24 24 24 22 25 24 21 21 21 20 20 20 20 20 20 20 20 20 20 19 20 20 19 18 17 18 18 18 18 18 17 17 17 17 17 17 18
22 22 22 16 17 17 18 20 22 23 25 22 23 23 22 23 22 18 19 20 22 20 20 20 20 20 20 20 20 20 20 19 19 19 19 18 17 18 18 18 18 17 17 17 16 16 17 17 17
22 22 18 17 15 17 19 22 21 22 24 23 24 22 22 22 20 20 22 20 20 20 21 20 20 20 20 20 20 20 20 19 19 19 19 18 18 18 18 18 18 19 19 18 16 17 17 17 17
21 19 15 16 17 18 20 21 21 21 25 24 22 22 22 22 22 23 20 20 20 20 20 20 20 20 20 20 20 20 20 20 19 19 18 18 18 18 18 18 18 19 19 19 18 18 18 17 17
19 16 16 17 17 18 19 20 20 22 22 24 23 21 21 21 22 21 20 20 21 20 21 21 21 20 20 20 20 20 20 20 19 18 18 19 18 18 18 18 18 19 19 19 19 18 18 18 18
16 17 15 16 17 19 18 20 20 22 23 22 20 20 21 20 19 20 21 21 21 21 21 21 21 20 20 20 20 20 20 19 20 19 19 18 18 18 17 17 18 18 18 18 18 18 18 18 18
17 16 15 16 17 19 21 18 20 20 22 24 20 20 20 19 20 20 20 20 20 21 21 21 21 20 20 20 20 19 19 19 20 19 19 19 18 18 17 17 17 17 17 18 18 18 18 18 18
16 17 15 17 18 19 18 18 19 20 22 21 21 20 20 19 20 20 20 20 20 21 21 21 21 20 21 20 20 20 19 19 19 19 18 18 18 18 17 17 17 17 17 17 17 17 17 18 18
16 16 18 18 18 19 17 18 18 19 20 19 19 20 20 20 20 20 19 19 19 20 20 20 20 20 21 20 20 20 19 19 19 19 19 18 17 18 18 18 18 18 17 18 17 17 17 18 18
15 16 18 19 19 18 17 17 17 18 18 20 19 18 19 19 19 18 18 18 19 19 20 20 20 20 20 20 20 19 19 19 19 18 18 18 18 18 17 17 17 17 17 17 18 18 18 18 18
15 17 18 19 20 17 17 18 17 17 19 21 18 18 18 18 18 18 18 19 19 20 20 20 20 20 20 20 20 19 19 19 19 18 18 18 18 18 17 17 17 17 17 17 17 17 17 18 18
16 17 19 19 16 16 16 17 17 17 17 17 18 18 17 17 17 18 18 19 19 20 20 20 20 20 20 20 20 19 19 19 19 18 18 18 18 18 18 18 18 17 17 18 17 17 17 17 18
16 17 19 16 16 16 17 16 15 16 17 17 18 18 17 17 18 19 20 20 20 19 20 20 20 20 20 19 20 20 19 19 19 18 18 18 18 19 18 18 18 18 18 18 18 18 17 17 18
16 18 17 15 16 17 16 16 15 16 16 18 17 17 17 17 18 18 19 19 19 20 20 20 20 20 20 20 20 20 20 19 19 19 19 19 18 19 19 18 18 18 18 18 18 18 18 17 17
16 15 15 15 16 17 16 14 14 16 17 17 18 17 17 17 19 19 20 21 21 20 20 21 21 20 20 20 20 20 20 20 20 20 20 19 19 19 19 19 19 19 19 18 18 18 17 17 17
14 15 15 16 17 17 15 16 15 16 17 18 17 18 18 19 20 20 21 22 21 21 21 21 20 20 20 20 20 20 20 20 20 21 21 20 19 19 19 19 19 19 19 18 18 18 18 18 17
15 13 14 16 17 17 16 17 17 17 17 18 18 16 17 17 19 20 21 21 21 22 22 21 20 20 20 20 20 20 20 20 20 20 20 21 20 20 19 19 19 19 19 19 18 18 18 18 18
13 13 15 16 17 17 16 17 18 18 18 19 20 16 15 17 18 19 20 21 22 21 21 21 21 20 20 19 19 19 19 20 20 20 20 21 21 20 20 19 19 19 18 18 18 18 18 18 18
14 15 15 16 17 17 17 17 18 17 16 15 15 14 15 16 17 17 17 18 19 19 20 20 20 20 20 19 19 19 19 20 20 20 20 20 20 19 19 19 19 19 18 19 18 18 17 17 17
15 14 15 17 17 17 16 16 17 18 16 15 15 14 14 16 15 15 16 17 17 18 18 19 19 19 19 19 19 18 19 19 19 19 19 19 18 18 18 18 19 19 18 18 18 17 17 16 16
14 13 14 16 16 16 16 15 16 17 15 16 15 15 15 14 14 13 14 15 16 16 16 17 17 18 18 18 19 19 18 18 19 18 18 18 18 18 18 17 17 18 18 18 17 17 17 15 16
14 15 15 15 15 14 16 14 14 15 15 15 14 13 14 14 13 13 13 14 15 16 16 15 15 16 16 17 17 17 17 17 18 18 18 19 18 18 17 17 17 18 17 17 17 17 16 16 14
15 15 15 15 14 15 15 14 15 14 13 15 16 12 12 12 12 12 13 14 14 15 15 15 15 15 15 15 15 16 16 15 15 15 16 16 17 17 17 17 17 17 17 17 17 17 17 16 15
14 13 12 12 12 11 14 13 13 13 14 15 15 12 12 11 11 12 13 14 13 14 14 14 14 14 14 14 14 14 14 14 14 14 14 14 14 15 15 15 16 16 16 16 16 16 16 16 16
14 12 10 12 12 12 12 13 16 15 14 14 14 12 11 10 10 10 10 12 12 13 13 13 13 12 12 13 13 13 12 12 13 12 12 12 12 12 13 13 14 14 14 15 15 15 15 15 14
13 12 10 12 11 12 12 12 14 15 14 13 13 12 10 10 10 10 10 12 12 12 12 12 12 11 11 11 11 11 11 11 11 11 11 11 11 10 10 11 11 12 13 14 14 14 14 13 13
13 10 12 9 9 8 11 12 14 13 14 13 12 11 11 10 10 10 10 11 11 12 12 12 11 10 10 10 10 10 10 10 9 9 9 9 9 10 10 10 10 11 11 11 11 12 12 12 12
12 12 12 7 9 11 11 11 14 15 13 12 11 11 11 11 10 9 10 11 11 11 11 11 10 10 9 9 9 9 8 8 8 8 8 8 8 8 8 9 9 9 10 10 10 10 10 10 10
11 12 12 11 9 10 11 12 11 14 13 12 12 12 11 10 10 9 9 10 11 10 10 10 9 9 9 8 8 7 7 7 7 7 7 7 6 7 7 7 7 8 8 8 9 9 8 9 7
13 13 11 9 10 7 7 11 14 11 12 12 12 13 11 11 10 8 9 10 9 9 9 9 8 8 8 7 7 6 6 6 6 5 5 5 5 5 5 6 6 6 6 6 6 7 6 6 6

GFSSGP_925_temp_066.txt.gz
Temp
19 20 21 21 19 16 18 20 20 22 24 24 23 24 23 22 24 23 19 20 21 20 20 20 20 20 20 20 20 20 20 19 20 19 18 17 18 18 18 18 18 17 17 17 17 17 17 17 17
19 20 21 16 16 16 18 19 22 22 23 21 22 22 22 22 20 18 19 19 21 20 20 20 20 20 20 20 20 20 19 19 19 19 18 17 18 18 18 18 17 17 17 16 16 16 17 17 17
19 19 18 16 14 16 19 20 20 20 20 22 23 21 22 21 19 19 20 19 20 20 20 20 20 20 20 20 20 20 20 19 19 19 18 17 17 18 18 18 18 18 18 16 16 17 17 17 17
19 19 16 16 17 18 19 19 19 19 23 22 21 22 21 20 20 21 20 20 20 20 20 20 20 20 20 20 20 20 20 20 19 19 18 17 17 18 18 18 19 19 19 17 17 17 17 17 17
18 17 16 16 17 18 19 19 18 20 21 23 21 21 20 20 21 20 20 20 19 20 20 20 20 20 20 20 19 20 20 20 19 19 19 18 18 18 18 18 18 18 19 18 17 17 17 17 17
16 16 15 15 17 18 18 19 18 19 20 21 20 20 20 19 19 19 20 20 20 20 20 20 20 20 20 20 19 20 20 20 19 19 19 19 18 19 18 17 18 18 18 18 18 17 17 17 17
16 15 16 15 18 18 20 18 19 18 18 22 20 20 19 18 18 19 20 20 20 20 20 20 21 20 20 20 19 19 19 19 19 19 19 19 19 19 18 17 17 17 17 17 17 17 17 17 17
15 15 15 16 17 19 18 19 19 18 19 19 19 20 19 19 19 19 19 19 20 20 20 20 21 20 20 20 20 19 19 19 19 19 18 18 18 18 17 18 18 18 18 18 18 18 17 17 17
15 15 17 16 18 19 17 18 17 17 18 19 18 18 18 19 19 19 18 18 19 19 20 20 20 20 20 20 20 19 19 19 19 19 19 18 17 17 17 17 17 17 17 18 18 18 18 18 18
15 16 17 18 18 18 17 17 16 18 17 18 18 18 17 18 18 18 18 18 18 18 20 20 20 20 20 20 20 19 19 19 19 18 19 18 18 17 17 17 17 17 17 17 17 17 17 18 18
14 17 17 19 17 17 17 17 17 17 18 16 16 17 17 18 18 18 18 18 18 19 20 20 20 20 20 20 19 19 19 19 18 18 18 18 18 18 17 17 17 17 17 17 17 17 17 17 18
14 16 18 18 17 17 17 17 17 15 18 16 16 16 17 17 18 18 18 18 18 19 20 20 20 19 19 19 19 19 19 19 19 18 18 18 18 18 18 18 18 18 17 17 17 17 17 17 18
15 16 17 17 16 16 17 16 16 16 17 16 16 17 17 16 16 17 18 19 19 19 20 20 20 19 19 19 19 19 19 19 19 18 18 18 18 18 18 19 18 18 18 18 17 17 17 17 17
16 17 18 15 16 16 16 15 16 19 15 16 16 16 16 16 16 17 18 19 19 20 20 20 20 20 20 19 19 19 19 19 19 19 18 18 18 18 18 18 18 18 18 18 18 17 17 17 17
16 15 15 15 15 15 16 16 14 17 16 15 15 16 16 17 17 17 18 19 20 20 21 20 20 20 20 20 20 19 19 19 19 19 19 19 19 18 18 19 18 19 18 18 18 18 17 17 17
15 14 15 14 14 15 15 15 15 16 14 15 15 15 16 17 18 18 19 19 20 20 20 21 20 20 20 20 20 20 20 19 19 19 19 19 19 19 19 18 19 19 19 18 18 18 18 17 17
14 13 13 14 16 14 15 15 17 15 14 15 16 15 16 15 18 20 20 20 20 20 20 20 20 20 20 20 20 20 20 19 19 19 20 20 19 19 19 19 19 19 18 18 18 18 17 17 18
13 12 14 13 15 15 15 15 16 15 15 14 17 17 16 16 16 19 20 21 21 21 20 19 19 19 19 19 19 19 19 19 19 20 20 20 20 19 19 19 19 18 18 18 18 17 17 17 17
13 13 14 16 16 15 15 16 16 15 14 15 15 17 16 15 16 17 17 19 20 21 21 20 19 19 19 19 18 18 19 19 19 19 19 19 19 19 19 19 19 19 18 18 18 17 17 17 16
14 13 14 16 16 16 15 15 17 15 15 16 17 18 18 14 15 15 15 16 17 18 18 19 18 18 19 18 18 18 18 18 19 19 19 18 18 18 18 18 18 18 18 18 17 17 16 16 16
13 12 13 14 15 16 15 15 15 16 17 16 17 16 14 13 13 13 13 15 16 17 17 17 18 18 19 19 18 18 18 18 18 18 17 17 17 17 17 17 17 17 16 16 17 16 16 15 15
14 14 14 14 14 13 16 13 14 16 17 15 16 17 14 13 13 12 12 13 14 15 16 16 16 17 17 17 17 17 17 17 17 17 17 17 17 17 16 16 16 16 16 16 16 16 16 15 14
14 14 14 15 13 14 14 13 14 14 16 18 18 17 13 12 12 12 12 13 13 14 14 14 15 15 15 15 16 16 15 15 15 15 15 15 15 15 15 15 15 16 16 15 15 15 15 15 14
13 12 12 11 11 9 13 13 13 12 15 16 15 16 15 12 11 11 13 13 12 13 13 13 13 13 13 14 14 14 14 14 14 14 14 14 14 14 14 14 14 14 14 15 15 14 15 15 14
13 12 9 10 10 10 12 12 15 15 14 14 15 14 11 11 10 10 9 10 11 12 13 13 13 12 12 12 12 12 12 12 12 12 11 12 12 12 12 13 13 13 13 14 13 13 14 14 14
13 13 10 12 11 11 11 11 14 15 14 13 13 13 11 9 8 9 9 10 11 12 12 12 12 12 11 11 11 11 11 11 11 10 10 10 10 10 10 11 11 12 12 12 12 12 13 13 12
12 12 11 9 8 7 11 11 13 13 13 13 12 11 10 9 8 9 9 11 11 11 11 12 11 11 10 10 10 9 9 9 9 9 9 9 9 9 9 9 9 10 10 11 10 11 12 11 11
12 11 12 7 10 11 11 11 13 14 14 13 13 10 10 9 9 8 9 10 11 11 11 10 10 10 9 9 9 9 8 8 8 8 8 8 8 8 8 8 8 8 8 9 9 9 10 10 10
11 11 11 10 9 10 10 12 11 13 13 12 12 10 10 9 9 8 8 10 10 10 10 10 9 9 8 8 8 7 7 7 7 7 6 6 6 6 6 6 6 7 7 7 7 7 7 7 5
13 12 10 9 9 6 7 10 13 12 10 11 11 11 10 10 9 8 8 9 8 9 9 9 8 8 8 7 7 6 6 6 5 5 5 4 5 5 5 5 5 5 5 5 5 5 5 5 5

GFSSGP_925_temp_069.txt.gz
Temp
18 19 20 20 22 20 20 22 21 23 24 23 23 25 26 24 27 27 19 20 21 20 20 20 20 20 20 20 20 20 20 19 19 18 18 18 18 18 18 18 17 17 17 17 17 17 17 17 17
18 19 20 18 20 20 21 20 22 22 23 21 23 23 24 24 21 18 19 19 20 19 19 20 20 20 20 20 20 20 19 20 19 19 18 18 18 18 18 18 17 17 17 16 16 17 17 17 17
19 19 20 19 18 20 21 20 21 21 21 22 23 22 23 22 20 19 20 19 19 19 20 21 20 20 20 20 20 20 20 20 19 19 18 18 18 18 18 17 18 18 18 16 17 17 17 17 17
19 19 18 19 18 19 21 20 20 21 23 22 22 23 21 19 20 19 19 19 19 19 20 20 20 20 20 20 20 20 20 19 19 19 18 18 18 18 18 18 18 19 18 17 17 17 17 17 18
19 18 18 18 19 19 19 20 19 21 21 23 22 22 21 19 20 19 19 19 19 20 20 20 20 20 20 20 20 20 19 19 19 19 19 18 18 18 18 18 18 18 18 17 17 17 17 17 17
16 16 18 18 18 19 19 19 20 20 20 22 22 21 20 18 18 19 19 19 19 19 19 19 20 20 20 20 20 19 20 20 19 20 20 19 18 19 18 18 18 18 18 17 16 16 17 17 17
17 16 17 17 19 19 20 19 20 19 19 22 20 22 20 18 18 18 19 19 19 19 19 19 20 20 20 20 19 19 20 20 19 19 19 19 19 19 18 17 18 18 18 18 18 18 17 17 17
15 17 16 17 19 20 19 19 19 19 21 19 19 22 21 19 18 18 19 19 19 19 20 20 20 20 19 19 19 19 19 20 19 19 18 18 18 18 17 18 18 17 17 18 17 17 17 17 18
15 15 16 17 19 19 18 19 18 18 19 19 19 18 18 17 18 18 19 18 19 19 20 20 20 20 20 19 19 19 19 19 19 19 18 18 18 18 17 17 17 17 17 17 18 17 17 17 18
15 16 17 18 19 18 18 18 18 19 19 19 19 19 18 18 18 18 18 18 18 18 19 19 19 20 19 19 19 19 19 19 19 19 19 18 18 18 17 17 17 17 17 17 17 18 17 17 17
16 17 17 19 18 18 18 17 17 19 19 17 17 17 18 18 18 18 18 19 18 18 19 19 19 19 19 19 19 19 19 19 19 18 18 18 18 18 18 17 17 17 17 17 17 18 17 17 17
16 17 18 18 17 18 18 18 18 18 19 17 17 17 17 18 18 18 18 18 18 18 18 19 19 19 19 19 19 19 19 19 19 18 18 18 18 18 18 18 18 18 17 17 17 17 17 17 17
15 16 18 17 16 17 17 16 18 17 17 17 17 17 17 18 17 17 18 18 17 18 19 19 19 19 19 19 19 19 19 19 19 18 18 18 18 18 18 18 18 18 18 18 18 17 17 17 17
15 16 16 16 16 16 17 16 18 16 17 18 17 17 18 17 17 16 17 17 18 19 19 19 19 19 19 19 19 19 19 19 19 18 18 18 18 18 18 18 18 18 18 18 18 17 17 17 17
16 16 15 16 16 16 16 17 16 17 16 17 17 17 17 17 17 17 17 17 18 19 20 20 20 19 19 19 19 19 19 19 19 19 19 18 18 18 18 18 18 19 18 18 18 17 17 17 17
14 14 15 15 16 14 14 16 18 17 17 17 17 17 17 17 17 18 18 18 18 19 20 20 20 20 20 20 20 20 19 19 19 19 19 19 19 19 18 18 18 19 18 18 18 17 17 17 17
14 14 14 14 16 14 14 16 17 16 17 16 17 17 17 17 18 19 19 19 19 19 19 19 19 20 20 20 20 20 19 19 19 19 19 19 19 19 18 18 19 18 18 18 18 18 17 17 17
13 13 13 14 15 15 15 15 16 16 16 17 17 17 17 17 18 19 19 19 19 19 19 19 19 19 19 19 19 19 19 19 19 19 19 19 19 19 18 18 18 18 18 18 18 18 17 17 16
13 14 14 14 15 15 15 16 15 16 16 17 18 17 17 18 17 18 20 19 18 18 19 20 19 19 19 19 18 18 19 19 19 19 19 19 18 18 18 18 18 18 18 18 18 17 17 16 17
14 13 14 15 15 16 15 15 16 16 16 17 20 18 17 18 16 16 18 19 17 17 18 19 19 19 18 18 18 18 18 18 18 18 18 18 17 17 17 17 17 17 17 17 17 16 15 15 16
13 13 13 14 14 15 15 15 16 15 16 16 17 17 17 17 16 16 15 15 16 17 17 17 17 18 18 18 17 17 17 17 17 17 17 16 16 16 16 16 16 16 16 16 16 16 15 14 15
14 13 14 14 14 14 15 15 15 16 15 16 17 18 18 17 14 14 14 14 14 15 15 16 16 16 17 17 17 18 18 17 17 17 16 16 16 16 16 16 16 16 16 15 15 15 15 15 14
14 13 14 13 13 13 14 14 15 15 16 16 17 18 18 18 15 15 14 14 14 14 14 14 15 15 16 16 16 16 16 15 15 15 15 15 15 15 15 15 15 15 15 15 13 14 14 14 14
12 12 12 11 13 13 14 14 14 15 16 17 18 18 18 18 16 14 13 13 12 13 13 14 14 14 15 15 15 15 15 14 14 14 13 13 13 13 13 13 13 13 13 14 13 13 13 13 14
13 12 12 13 13 13 12 12 16 16 15 15 16 17 17 17 14 13 12 11 11 12 12 13 13 13 13 13 13 13 13 12 12 12 12 12 12 12 12 12 12 12 12 12 12 12 12 13 13
13 12 11 12 12 12 11 12 15 15 14 14 13 13 13 12 12 12 12 10 10 11 11 12 12 12 11 11 11 11 11 11 11 10 10 10 10 10 10 10 11 11 11 12 11 11 12 12 12
12 11 11 9 8 10 12 12 13 14 15 15 14 13 12 11 10 11 10 10 11 11 11 12 11 11 10 10 10 10 10 10 9 9 9 9 9 8 9 9 9 10 10 10 10 10 11 11 11
12 11 12 9 10 12 12 11 15 15 15 14 13 13 12 10 10 10 10 9 10 11 11 11 11 11 10 9 9 9 8 8 8 8 8 8 7 7 7 8 8 8 8 9 9 9 9 10 9
12 11 10 11 10 12 12 14 12 14 14 12 11 11 11 10 10 10 9 9 10 10 10 10 10 10 9 8 8 8 7 7 7 7 6 6 6 6 6 6 6 7 7 7 7 7 8 7 6
11 11 11 11 10 7 9 12 13 13 12 11 12 12 11 10 10 9 9 8 8 9 9 9 9 8 8 7 7 7 6 6 6 5 5 5 5 5 5 5 5 5 5 5 6 6 5 5 5

GFSSGP_925_temp_072.txt.gz
Temp
18 19 20 22 25 26 27 26 25 26 28 28 28 30 31 32 32 30 22 23 24 23 22 20 21 20 20 20 20 19 19 19 19 18 18 18 18 18 18 18 17 17 18 18 17 17 17 17 18
19 20 21 23 26 26 27 26 26 26 27 26 27 28 29 30 26 23 23 21 23 23 22 22 20 20 20 20 20 19 19 19 19 18 18 18 18 18 18 17 17 17 17 17 17 17 17 18 18
19 20 25 25 25 26 27 25 26 25 25 26 27 27 28 27 24 24 24 22 23 23 23 21 21 20 20 20 20 20 20 20 19 19 18 18 18 18 18 18 18 16 16 16 16 17 17 17 18
20 23 24 24 25 25 25 24 24 26 26 26 27 28 26 23 24 24 22 23 23 23 23 21 20 20 20 20 20 20 20 20 19 19 18 18 18 18 18 18 18 17 16 16 17 17 17 18 18
20 23 23 24 24 24 24 24 24 26 26 26 26 27 25 23 22 22 22 23 23 23 23 20 20 20 20 20 20 20 20 19 19 19 18 18 18 18 19 18 18 17 17 16 17 17 17 17 18
21 23 23 23 24 23 23 23 24 25 25 26 25 26 25 20 20 20 22 23 23 23 22 21 20 20 20 20 20 20 20 19 19 19 19 19 19 19 19 18 18 18 18 18 18 18 18 18 18
20 22 23 23 23 21 22 22 24 25 25 25 25 26 24 20 20 20 23 23 22 22 22 20 20 19 19 20 20 20 20 19 19 19 19 19 19 19 18 18 17 17 17 17 17 17 18 18 18
20 22 22 22 21 21 21 22 22 24 24 23 23 26 25 22 18 19 20 19 21 22 21 21 21 20 20 19 19 20 20 19 19 19 19 19 19 18 18 18 17 17 18 17 17 17 17 17 17
17 19 21 22 22 22 21 22 21 21 24 23 22 21 20 20 18 18 19 20 21 21 21 21 21 21 21 20 19 19 19 19 19 19 19 18 19 18 18 18 18 17 17 17 17 17 17 17 18
19 19 21 23 23 23 21 22 21 23 23 23 23 22 18 18 18 19 20 20 20 21 21 21 21 21 20 20 19 20 19 19 20 19 19 19 19 19 18 17 18 17 17 17 17 17 17 18 18
18 18 22 23 22 21 21 21 20 23 22 22 21 22 19 18 18 19 20 20 20 20 19 21 21 21 20 20 20 20 20 20 19 19 19 19 19 18 18 18 18 18 17 18 17 17 18 18 18
18 19 21 21 22 21 21 21 21 21 22 21 21 22 19 19 19 19 20 21 21 19 18 20 21 20 20 20 20 20 20 20 20 19 19 19 19 18 19 19 18 18 18 18 18 19 18 18 18
18 20 21 21 21 22 20 19 21 21 21 21 22 22 21 19 19 19 19 21 21 21 19 20 20 20 20 20 20 20 20 19 20 19 18 18 18 19 18 19 18 18 18 18 18 18 19 18 18
19 19 20 20 20 20 20 19 19 21 21 22 22 22 22 21 20 19 18 18 19 20 21 21 20 20 20 20 20 20 20 20 19 19 18 18 18 18 18 18 18 18 18 18 18 18 18 18 18
18 18 19 19 20 19 20 19 19 22 20 21 23 23 22 21 21 21 21 20 19 20 21 21 20 20 20 20 20 20 20 19 19 19 19 18 18 18 18 18 18 19 18 18 18 18 18 18 18
17 18 17 19 19 17 19 19 20 22 20 22 23 23 22 22 21 21 20 20 19 20 20 20 19 19 20 20 20 20 20 20 20 19 19 19 18 18 18 18 18 18 18 18 18 18 18 18 19
17 18 18 17 19 17 18 20 20 21 20 21 22 23 22 21 22 22 21 20 20 20 19 19 19 20 20 20 20 20 19 20 20 20 19 19 19 18 18 18 18 18 18 18 18 18 18 19 19
18 19 18 18 18 18 18 19 17 18 19 21 23 23 23 21 22 21 20 20 20 19 19 19 18 19 20 20 19 19 19 19 20 20 19 19 19 18 18 18 18 18 18 18 18 18 18 18 18
20 19 17 18 17 17 18 18 18 19 19 20 22 23 23 22 22 20 20 19 19 19 18 19 19 19 19 19 19 19 19 19 18 18 18 18 18 18 18 18 18 17 17 18 18 18 18 18 18
18 18 18 18 18 18 18 18 19 20 20 21 21 23 23 23 22 21 21 20 19 20 19 18 18 18 18 19 19 19 19 19 19 17 17 17 17 17 17 17 17 17 17 17 17 17 17 17 17
18 18 18 18 17 18 18 18 18 20 20 20 22 23 23 24 23 21 21 20 18 18 17 17 17 16 17 17 16 17 17 17 17 16 16 16 16 16 16 16 16 16 16 16 16 16 15 15 15
16 19 18 17 18 18 19 20 20 19 19 20 21 22 22 22 22 21 19 18 17 17 15 15 15 15 16 17 16 17 18 19 16 16 16 16 16 16 16 15 15 14 14 14 14 15 15 14 15
17 17 18 18 18 18 17 18 21 20 20 20 21 21 22 22 21 20 19 17 16 14 14 14 14 14 16 16 16 16 16 15 15 14 14 14 14 14 15 15 15 14 14 13 13 13 13 13 14
16 17 17 17 18 16 18 18 20 20 20 21 22 22 21 22 22 20 20 17 15 13 13 13 13 13 14 14 15 14 14 14 14 13 13 13 12 12 13 13 13 13 13 12 12 12 12 12 13
17 17 14 14 14 17 16 17 20 21 21 20 20 22 22 22 22 21 18 16 15 13 13 13 13 13 12 13 13 13 13 13 13 12 12 12 12 11 10 12 12 12 12 12 11 11 11 12 13
17 18 17 15 16 17 15 16 20 21 19 19 18 19 19 19 20 19 19 17 15 13 13 13 13 12 12 12 12 12 11 11 11 10 10 10 10 9 10 10 11 11 11 11 10 11 11 12 12
15 15 15 15 14 16 18 18 19 20 21 20 20 18 19 19 19 18 16 16 15 13 13 13 12 11 11 10 10 10 9 9 9 9 9 8 9 8 8 9 9 9 9 9 9 9 10 10 11
15 16 15 14 14 16 17 18 20 20 20 20 19 19 18 18 16 16 15 14 14 13 13 12 11 11 10 9 9 9 9 9 8 8 7 8 8 8 8 8 8 8 8 8 8 8 8 8 8
15 15 15 16 15 17 17 19 20 20 19 18 18 17 17 16 15 15 14 13 13 12 11 11 11 10 9 9 8 8 7 8 8 7 6 6 6 6 6 6 6 6 6 6 6 6 6 6 6
14 16 17 16 15 14 15 18 18 19 18 17 18 17 16 15 15 15 14 13 12 11 11 11 10 10 9 8 7 7 6 5 5 5 4 4 4 4 4 4 4 4 5 5 5 5 5 5 5

GFSSGP_925_temp_075.txt.gz
Temp
19 22 22 23 25 27 27 29 31 28 30 31 31 32 32 33 33 29 27 28 26 25 22 20 21 21 20 20 20 19 19 19 18 18 18 18 18 18 18 18 18 18 18 18 18 17 17 17 17
20 23 23 26 25 26 28 30 28 30 30 29 30 30 30 31 29 26 27 27 26 25 22 22 20 20 20 20 20 19 19 19 18 18 18 19 18 18 17 17 17 17 17 17 17 17 17 17 18
19 23 25 25 25 27 28 29 29 28 27 28 30 29 31 28 28 27 27 26 26 24 23 22 20 20 20 20 20 19 20 19 19 18 18 18 18 18 17 17 16 16 16 17 17 17 17 18 18
22 24 25 25 26 28 30 28 27 28 27 28 30 30 28 26 28 28 25 26 26 25 24 22 20 20 20 20 20 20 20 19 19 19 19 18 19 18 18 18 18 17 17 16 16 17 18 18 18
21 25 24 25 26 29 28 26 26 28 29 27 28 29 27 25 25 25 25 26 26 26 22 20 20 20 20 20 20 20 20 19 19 19 18 18 19 18 19 19 18 18 18 18 17 18 18 18 18
21 25 24 25 26 28 27 26 26 28 28 29 27 28 25 22 24 25 26 26 26 25 22 20 20 20 20 20 20 20 20 19 19 19 19 18 18 19 19 18 18 17 17 17 17 18 18 18 18
20 23 24 26 26 24 25 25 27 27 28 27 29 27 24 22 20 25 26 26 26 23 22 21 20 19 19 20 20 20 19 19 19 19 19 19 19 19 18 18 18 18 18 18 18 18 18 18 18
21 21 24 26 25 23 24 24 24 25 26 25 25 28 24 22 20 21 25 25 26 23 23 21 21 20 20 19 19 20 19 19 19 19 19 18 19 18 18 18 18 18 18 18 18 18 18 18 18
19 18 21 23 23 24 23 24 23 24 26 25 25 24 22 20 19 19 20 22 25 22 21 22 21 21 21 21 19 19 19 19 19 19 19 19 20 18 18 18 18 17 17 18 17 17 18 18 18
16 17 23 26 26 24 24 24 24 25 25 25 25 23 21 19 19 19 20 21 22 21 21 21 21 22 21 21 19 20 19 19 20 20 19 21 21 21 20 18 18 18 18 18 18 18 18 18 19
17 17 22 24 22 25 23 22 23 24 24 24 23 24 19 20 19 19 21 23 22 22 22 21 21 21 21 22 21 22 21 22 22 22 21 22 21 20 19 19 18 18 18 18 18 18 18 20 19
17 18 18 18 23 23 23 24 23 23 23 23 23 24 19 19 20 20 22 22 22 22 21 22 21 21 21 21 22 23 22 22 22 21 21 21 21 20 21 21 20 19 20 20 20 20 20 20 19
17 20 20 17 21 23 23 23 21 22 23 23 24 24 22 20 20 19 19 21 22 21 20 22 22 22 21 21 22 23 23 22 22 21 21 21 21 21 21 21 20 20 20 20 20 20 20 20 20
21 21 19 19 18 23 23 22 21 22 24 23 24 24 23 22 21 19 19 19 21 22 22 21 22 22 21 21 21 21 23 22 22 21 20 20 20 20 20 20 20 20 20 20 20 20 20 20 20
21 20 20 18 16 19 22 21 20 23 23 23 24 25 24 23 20 23 22 20 21 21 22 22 22 22 21 21 21 22 23 22 22 21 21 20 20 20 20 20 20 20 20 20 20 20 20 20 20
19 20 17 21 20 20 21 20 22 23 23 22 23 25 24 23 23 23 23 23 22 22 22 22 22 22 22 22 21 21 22 22 22 22 21 20 20 20 20 20 20 20 20 20 20 20 20 20 20
17 18 19 20 21 19 20 21 23 22 22 22 23 24 25 24 23 23 22 22 22 22 22 22 21 21 22 22 22 22 22 22 22 22 22 21 21 20 20 20 20 20 20 20 20 20 20 20 20
17 19 20 21 20 20 20 20 20 21 20 21 22 23 24 24 24 23 23 22 22 22 22 21 20 21 21 21 21 21 21 21 22 22 22 21 21 20 20 20 20 20 20 20 20 20 20 19 20
21 20 20 21 21 19 19 20 20 20 21 21 21 23 24 25 24 23 22 22 22 21 21 21 21 20 21 21 21 21 21 21 20 21 20 20 20 20 20 19 19 19 19 19 19 19 19 19 19
20 20 20 20 20 19 20 21 21 22 21 22 23 24 24 25 25 23 23 22 22 22 21 21 21 21 20 21 20 21 21 21 21 20 19 19 19 18 18 18 18 18 18 18 18 18 18 18 18
19 21 19 19 19 19 21 21 21 21 22 22 23 24 24 25 25 25 22 22 21 21 21 20 20 20 19 19 19 18 18 18 18 18 18 17 17 17 16 16 16 16 16 16 16 16 16 16 16
18 21 21 20 18 18 20 21 23 22 21 22 23 23 24 25 25 25 23 22 20 20 19 18 18 17 17 17 17 18 19 20 19 18 17 16 16 15 16 15 15 15 15 15 15 15 15 15 15
19 20 20 19 19 21 20 19 22 22 21 21 23 23 23 24 24 24 23 21 19 18 16 17 17 17 16 16 17 18 18 18 17 16 15 15 14 15 15 15 14 14 14 14 14 14 14 13 14
19 19 19 19 19 17 19 20 22 23 22 23 23 24 23 23 23 23 22 20 18 16 15 15 16 16 16 16 16 17 17 16 16 15 15 15 14 12 13 13 13 13 12 12 12 12 12 12 12
18 18 15 15 15 17 19 20 22 23 22 22 22 23 24 24 23 23 22 21 18 15 14 14 15 15 15 15 15 15 15 15 15 15 14 14 14 13 12 11 11 11 11 11 11 11 12 12 12
17 19 18 16 17 18 18 17 21 23 23 22 22 22 22 22 23 24 23 20 19 15 14 14 15 15 14 14 14 13 13 13 13 12 12 12 12 11 10 10 10 10 10 10 10 10 11 11 11
17 16 17 17 18 19 19 20 22 22 22 22 22 21 21 22 22 22 21 20 19 16 15 15 15 14 14 13 13 12 12 11 11 10 10 10 9 9 9 8 8 8 9 9 9 10 10 10 10
17 18 16 16 15 17 19 20 21 21 21 21 21 21 21 20 20 20 20 19 18 16 15 15 14 13 13 12 12 11 10 10 9 9 9 8 8 8 8 8 7 7 7 8 8 8 8 9 8
16 16 17 18 17 18 19 20 23 21 21 20 20 20 20 20 19 19 18 17 17 16 15 14 14 13 12 11 10 10 9 9 8 8 7 7 7 7 7 7 6 7 6 7 7 7 7 8 7
15 17 18 16 16 17 16 19 21 22 20 20 20 20 20 19 18 18 17 16 15 15 14 14 13 12 11 11 10 9 8 8 8 7 6 6 6 6 5 5 5 6 5 6 6 6 6 6 6

GFSSGP_925_temp_078.txt.gz
Temp
20 21 22 22 21 22 23 26 29 28 30 28 28 28 27 27 28 24 27 26 23 21 20 21 21 20 20 20 20 19 19 19 19 18 18 18 18 18 18 18 18 18 18 18 17 17 17 17 17
19 21 23 20 21 22 24 27 27 28 27 28 29 27 26 26 27 26 26 25 23 21 21 20 20 20 20 20 20 20 19 19 19 18 18 18 18 17 17 17 17 17 17 17 17 17 17 17 18
19 21 21 21 21 22 25 27 27 27 27 28 29 27 24 24 27 27 26 26 24 22 21 20 20 20 20 20 20 20 19 19 19 19 18 18 17 17 17 17 17 17 17 17 17 17 17 17 18
20 22 22 22 23 24 26 27 27 27 27 28 28 26 24 24 28 27 26 26 23 23 22 21 20 20 20 20 20 19 19 19 19 19 19 18 18 18 17 17 17 17 17 17 18 18 18 18 19
19 20 20 22 23 25 27 26 26 27 26 27 27 24 23 23 25 26 26 26 24 22 22 21 20 20 20 20 20 19 19 19 19 19 19 19 19 18 18 18 17 17 17 17 18 18 18 18 18
17 21 21 21 23 26 25 25 26 27 27 26 26 22 22 23 25 26 27 26 24 22 20 20 20 20 20 19 19 19 19 19 19 19 19 19 19 18 19 18 18 18 18 18 18 18 18 18 18
17 19 20 22 23 25 24 25 25 26 26 26 27 25 20 21 23 25 26 26 23 21 20 20 20 20 19 19 19 19 19 18 19 19 19 19 19 19 19 18 18 18 18 18 18 18 18 18 18
18 18 20 22 24 24 24 24 23 24 23 25 24 24 21 21 20 23 26 25 23 22 21 20 19 19 19 19 19 19 19 19 18 19 19 18 19 18 18 18 18 19 18 18 19 18 19 19 19
18 17 18 21 22 22 23 23 23 24 24 24 23 19 20 21 21 22 24 25 23 22 22 21 20 20 20 19 20 19 19 19 19 19 19 19 19 18 18 18 18 18 18 19 19 19 19 19 19
15 16 19 22 21 22 22 23 23 24 23 23 22 21 20 20 21 21 22 22 22 22 21 21 21 21 21 20 20 19 19 19 19 19 19 20 19 19 18 18 18 18 18 18 19 19 19 19 19
16 16 19 20 20 22 23 21 23 24 22 21 22 20 20 19 19 22 22 22 22 22 21 21 21 21 21 21 20 20 20 20 20 20 21 21 21 20 19 19 19 19 19 19 19 19 19 19 19
15 16 17 18 17 19 21 22 22 21 21 22 22 21 19 19 19 20 21 22 22 22 21 21 21 21 21 21 21 21 21 21 22 21 21 21 21 20 20 20 20 19 19 20 19 19 20 20 19
14 17 18 18 17 17 19 22 22 21 22 23 24 21 19 19 19 20 20 22 22 21 21 21 21 21 21 21 22 23 22 22 22 21 21 21 21 20 20 20 20 20 20 20 20 20 20 20 20
18 19 18 18 18 17 15 21 21 21 22 22 23 22 20 20 19 18 18 19 21 21 22 21 21 21 21 21 22 22 23 22 22 21 21 20 20 20 20 20 20 20 20 20 20 20 20 20 20
21 18 16 16 18 17 16 16 19 21 22 22 22 22 21 20 19 20 20 19 20 21 21 21 21 21 21 21 21 22 22 22 22 21 20 20 20 20 20 20 20 20 20 20 20 20 20 20 20
18 18 15 15 18 18 16 17 20 21 20 21 22 22 21 21 22 22 21 22 20 21 21 21 22 21 20 21 21 21 22 22 22 21 21 20 20 19 19 19 20 20 20 20 19 20 20 20 20
15 15 17 17 16 16 15 16 21 21 20 20 21 21 22 21 23 23 22 22 22 22 21 21 21 21 22 21 21 21 22 22 22 22 21 21 20 20 19 20 20 20 20 20 19 19 19 20 20
15 16 17 18 16 16 15 16 20 21 20 20 20 21 21 22 21 23 22 22 22 22 22 22 21 21 22 21 21 21 21 22 22 22 22 22 21 20 20 20 20 20 20 20 19 19 20 19 19
18 18 18 19 20 19 18 18 19 20 20 19 19 20 20 21 22 23 22 22 22 21 22 21 21 21 21 22 22 22 21 21 21 21 21 21 21 20 20 19 19 20 19 19 19 19 19 19 19
14 17 18 19 17 18 18 19 19 19 19 19 19 20 20 21 22 21 22 22 22 21 21 20 21 20 21 21 20 21 21 21 20 20 20 20 20 19 19 19 18 19 19 19 18 18 17 18 18
13 16 18 15 18 17 17 17 19 20 20 20 20 20 21 21 21 20 21 22 22 22 21 21 20 21 20 20 20 20 19 19 19 19 19 18 18 18 18 17 17 17 17 17 17 17 16 15 16
15 18 19 18 16 16 17 16 19 20 19 20 20 20 20 21 23 22 21 21 21 21 21 20 20 20 19 19 19 19 19 19 19 19 18 17 17 16 16 16 16 15 15 15 15 15 15 15 15
16 19 18 18 17 18 17 16 18 20 19 19 19 19 20 20 21 22 20 21 21 20 20 19 19 18 18 18 18 18 18 18 18 18 17 16 16 16 15 15 15 14 14 14 14 14 14 13 13
17 17 16 17 17 13 18 18 17 18 19 19 20 21 20 20 21 21 21 20 19 19 18 18 17 17 17 17 17 17 18 17 17 16 16 15 14 14 14 14 13 13 12 13 13 12 12 13 12
17 15 13 12 11 13 18 17 17 20 21 22 20 21 21 20 19 19 18 17 17 17 16 16 17 16 16 16 16 17 17 16 16 15 15 14 14 13 12 12 12 12 12 12 11 11 11 12 12
16 16 13 14 13 14 18 16 17 20 20 19 20 21 20 20 19 19 18 18 17 16 15 15 16 15 15 15 15 15 15 15 14 14 13 13 13 12 11 11 11 11 11 10 10 10 11 11 11
16 14 17 15 17 13 16 18 20 20 20 21 20 20 20 20 19 20 20 18 16 15 15 15 15 15 15 14 14 14 13 13 13 12 12 11 11 11 10 10 9 9 9 9 10 10 10 10 10
15 17 14 11 13 16 16 18 17 19 19 18 17 17 17 19 19 18 17 18 18 16 15 15 15 14 14 13 13 12 11 12 12 11 10 10 10 9 9 9 8 8 8 8 8 8 8 9 9
15 13 16 16 13 13 14 16 18 17 17 17 17 17 17 17 17 17 16 18 18 16 15 15 14 13 13 12 12 11 11 11 10 10 10 9 9 9 8 8 7 7 7 7 7 7 8 8 8
15 16 16 11 14 13 12 15 20 17 18 17 17 19 19 17 16 16 15 16 16 15 15 14 14 13 12 11 11 11 10 10 9 9 8 8 7 7 7 7 6 6 6 6 6 6 6 6 6

GFSSGP_925_temp_081.txt.gz
Temp
20 20 19 20 20 18 19 23 26 26 27 27 26 27 25 24 24 24 23 23 22 20 20 21 21 20 20 20 19 19 19 19 19 18 18 18 18 18 18 18 19 19 18 18 17 17 17 18 19
19 19 20 18 18 17 19 24 25 27 26 26 26 26 23 24 25 22 20 22 21 21 20 20 20 20 20 20 19 19 19 19 19 19 18 17 17 17 18 18 18 18 17 17 17 17 18 18 19
18 18 17 17 17 18 20 24 26 26 26 26 24 24 23 23 25 24 21 21 21 20 20 20 20 20 20 20 19 19 19 19 19 19 18 17 17 17 17 17 17 17 17 16 17 17 19 19 19
17 16 16 17 18 20 23 24 25 26 26 26 24 24 21 21 21 24 22 21 21 20 20 20 20 20 20 19 19 19 19 19 19 18 18 18 17 17 17 16 16 16 16 17 17 18 18 19 19
17 14 16 17 19 22 23 25 24 26 25 26 24 21 21 21 23 23 22 22 20 20 20 20 20 20 19 19 19 19 19 19 19 19 18 19 19 19 18 18 17 17 17 17 18 18 18 19 19
15 15 16 16 19 22 24 24 25 25 25 25 22 21 20 20 21 22 23 22 21 20 20 20 20 20 19 19 19 19 19 19 19 19 18 18 19 19 19 18 18 18 18 18 18 18 19 19 19
15 15 16 18 19 22 23 24 23 24 24 24 22 20 20 19 19 23 22 23 22 21 20 19 19 19 19 19 19 19 19 19 19 19 19 19 19 19 19 18 18 19 19 19 19 19 19 19 19
15 15 18 18 20 21 22 22 22 23 23 24 23 20 20 21 20 22 23 20 21 20 20 20 19 19 19 19 19 19 18 19 19 18 18 19 19 18 18 18 19 19 19 19 19 19 19 19 19
16 16 16 18 19 21 22 22 23 23 22 21 20 19 21 22 25 21 20 19 21 20 20 20 19 19 19 19 19 19 19 19 19 18 18 19 19 18 19 18 19 19 19 19 20 19 19 19 19
16 16 17 19 19 20 21 22 22 22 21 19 19 20 19 21 22 21 19 19 19 19 20 20 20 19 20 20 19 19 19 19 19 19 19 19 19 19 19 19 19 19 19 19 20 20 20 19 19
15 16 17 18 18 19 20 21 22 21 20 21 19 19 19 19 20 20 20 19 22 21 21 20 21 20 20 20 20 19 19 19 19 20 19 19 18 19 19 19 19 19 19 19 19 19 19 19 19
15 16 17 17 16 17 20 21 20 20 20 21 19 19 19 19 19 20 19 19 21 22 22 21 21 21 21 21 20 20 20 20 20 20 20 19 19 20 20 20 19 19 19 19 19 19 19 19 19
15 16 16 16 16 17 17 18 20 19 21 21 19 20 18 18 19 19 20 20 21 22 22 21 21 21 21 21 21 20 21 21 20 20 21 20 20 20 20 20 19 20 19 19 19 19 19 20 20
16 16 16 16 17 14 16 17 19 19 20 21 19 19 18 18 18 18 19 20 21 22 21 21 21 22 22 22 21 21 21 21 21 21 21 21 20 20 20 20 20 20 20 20 20 20 20 20 20
16 15 15 15 16 15 16 17 18 19 20 20 19 18 19 19 19 18 18 21 21 21 21 22 21 21 21 22 22 22 22 22 21 21 21 20 20 20 20 20 20 20 20 20 20 19 20 19 19
16 16 14 16 15 15 15 17 16 18 19 19 19 18 18 18 19 19 19 20 22 22 21 20 21 21 21 21 22 22 22 22 22 21 21 20 20 20 19 19 19 20 20 20 19 19 19 19 19
14 12 14 14 15 14 15 15 17 16 18 18 19 19 19 19 20 20 20 19 21 22 21 22 21 21 21 21 21 22 22 21 22 21 21 21 20 20 19 19 19 19 19 19 19 19 19 19 19
14 14 15 15 14 15 14 15 16 16 17 17 17 19 19 19 19 21 22 21 21 21 21 22 21 21 21 21 21 21 21 21 22 22 22 21 21 20 20 20 19 19 19 19 19 19 19 19 19
14 16 16 17 16 15 15 15 16 17 17 16 16 17 18 18 20 21 22 22 21 20 21 21 21 21 21 21 21 21 21 21 21 21 21 21 20 20 20 19 19 19 19 19 19 19 18 19 19
13 15 16 17 16 17 16 16 17 17 17 17 17 16 17 18 19 19 21 22 22 21 20 21 21 21 21 21 21 21 21 21 21 21 20 20 20 20 19 19 19 19 19 19 19 18 18 18 18
13 14 16 16 15 15 16 15 17 17 17 17 17 16 16 18 19 17 19 21 22 21 21 21 21 21 21 21 21 20 20 20 20 20 20 20 20 20 19 18 18 18 18 18 18 18 17 16 17
13 15 16 16 15 15 16 14 16 18 17 17 16 15 16 16 18 18 18 19 21 22 22 21 20 21 20 20 20 21 21 20 19 19 19 18 18 18 18 17 17 16 16 16 15 15 15 15 15
14 14 16 16 16 16 15 15 16 17 17 17 16 15 16 16 16 18 18 19 21 21 21 21 20 19 19 19 19 19 18 19 18 18 18 17 17 17 16 16 16 15 15 14 14 14 14 14 13
15 15 14 15 15 13 16 15 15 16 18 17 17 16 17 17 17 18 19 19 20 20 20 20 20 20 19 18 18 18 18 18 18 17 17 16 15 15 15 14 14 14 13 13 13 13 13 13 12
15 13 13 13 13 14 16 15 15 18 19 17 17 16 18 16 16 17 15 15 17 18 18 18 18 18 18 18 18 18 17 18 18 17 16 15 14 13 13 13 13 13 12 12 12 12 12 12 11
14 13 11 13 12 13 16 14 16 18 18 17 17 17 17 17 16 18 15 16 17 18 18 17 17 16 16 16 16 17 17 17 16 16 15 14 14 13 12 12 12 12 11 11 11 11 11 11 11
14 13 15 13 14 12 13 16 17 17 17 17 17 17 18 18 17 18 17 16 15 16 17 17 16 16 16 16 15 15 15 15 14 14 13 13 13 12 12 12 11 10 10 10 10 10 10 10 10
15 15 13 9 13 15 13 16 15 16 15 14 14 14 15 15 15 15 14 15 16 16 16 16 16 15 15 14 14 15 14 14 14 13 13 13 12 11 11 10 9 9 9 9 9 9 9 9 9
13 13 14 13 10 12 13 13 15 15 14 14 14 15 16 16 15 14 14 16 16 16 15 15 15 14 14 13 13 12 13 12 12 11 11 10 10 10 9 9 8 8 8 8 8 8 8 8 8
14 14 14 10 13 10 10 13 17 14 14 15 15 16 16 15 15 14 14 14 14 14 14 14 14 14 13 13 12 12 11 10 10 11 11 9 9 8 8 7 7 7 7 6 6 6 6 7 7

GFSSGP_925_temp_084.txt.gz
Temp
17 19 19 19 19 18 17 21 24 23 23 26 26 25 24 23 25 23 19 20 21 20 20 20 20 20 19 19 19 19 19 18 18 18 18 18 18 19 19 19 18 18 18 17 17 17 17 18 18
17 18 18 17 18 17 20 21 24 24 23 25 25 24 24 23 22 19 20 20 20 20 20 20 20 20 19 18 18 19 19 18 18 17 17 18 18 18 18 18 18 18 17 17 17 18 18 19 19
16 17 16 16 16 18 21 23 23 25 24 24 24 23 23 21 21 21 20 19 20 19 20 20 20 19 19 18 18 19 19 19 18 17 17 17 18 18 18 18 17 17 17 17 18 18 19 19 19
17 15 14 16 17 19 21 23 24 25 25 24 24 22 21 20 20 21 19 19 19 20 20 20 20 19 19 19 18 18 18 18 18 18 17 17 17 17 17 17 17 16 17 17 19 19 19 19 19
16 13 16 16 17 20 21 23 23 24 26 25 24 20 21 21 21 19 19 19 19 19 20 20 19 19 19 19 19 18 18 19 18 18 17 17 17 17 17 16 17 18 18 18 19 19 19 19 19
14 14 16 15 17 20 22 23 23 24 24 23 22 21 21 20 20 19 19 20 20 19 19 19 19 19 19 19 19 19 18 18 18 18 18 17 16 16 16 17 18 18 18 19 19 19 19 19 19
14 15 15 16 18 20 22 22 23 23 23 23 22 21 19 18 19 20 19 21 20 20 19 19 19 19 19 19 19 19 19 18 18 19 19 19 19 19 19 18 18 18 18 18 19 19 19 20 20
14 16 16 16 18 19 22 21 21 22 22 22 21 18 19 20 19 21 20 21 20 20 19 19 19 18 19 19 19 19 19 19 18 18 19 19 19 19 19 19 19 19 19 19 19 19 19 19 19
14 15 16 17 18 21 21 21 22 22 21 20 19 20 22 21 19 22 19 20 19 19 19 19 19 19 19 19 19 18 19 18 18 18 19 19 18 18 19 19 19 19 19 19 19 19 19 19 19
14 15 16 18 18 19 20 22 22 21 19 19 19 19 19 18 19 20 18 19 19 19 19 19 19 19 19 19 19 18 19 19 18 18 18 18 18 19 19 19 19 19 19 19 19 19 19 19 19
15 16 17 18 17 17 18 20 22 20 20 19 19 19 19 19 19 20 19 19 18 19 19 19 19 19 19 19 19 19 19 19 19 19 19 18 18 18 19 19 19 19 19 19 19 19 19 19 19
14 16 17 17 15 17 16 16 19 20 20 19 19 20 18 19 18 19 19 18 18 18 20 19 20 20 20 20 19 19 19 19 19 19 19 18 18 18 19 19 19 19 19 19 19 19 19 19 19
14 16 16 15 15 16 17 16 19 19 20 19 19 19 18 18 18 19 19 18 17 16 15 20 20 20 20 20 20 20 19 20 20 19 19 19 19 19 19 19 19 19 19 19 19 19 19 19 19
16 14 16 15 15 15 15 16 18 20 19 18 19 18 18 18 18 18 19 17 17 18 18 19 20 20 21 21 21 20 20 20 20 20 20 19 19 19 19 20 19 19 19 19 19 19 19 19 19
14 14 14 14 15 15 15 17 17 16 18 18 18 18 18 17 18 18 18 18 18 17 19 19 20 21 21 22 22 21 20 20 20 21 20 20 20 20 20 20 20 19 19 19 19 19 19 19 19
14 14 14 14 15 14 15 17 17 15 15 18 17 17 17 17 18 18 20 19 21 20 20 21 20 20 21 21 22 21 21 21 21 21 20 20 20 20 20 20 19 19 19 19 19 19 19 19 19
13 13 14 14 15 14 14 14 17 15 15 17 17 16 17 18 19 18 19 21 21 22 21 20 20 21 20 20 21 21 22 21 21 21 21 20 20 20 19 19 19 19 19 19 19 19 19 19 19
13 13 14 15 14 15 14 14 15 15 15 16 16 16 17 18 18 19 19 20 20 20 21 21 21 22 22 19 20 21 21 21 21 21 21 21 21 20 20 20 19 19 19 19 19 19 19 19 18
14 13 14 14 15 14 14 15 15 16 16 15 15 15 17 17 19 20 20 20 20 20 21 21 20 20 19 19 21 20 21 21 21 21 20 21 21 20 20 19 19 19 20 20 19 19 19 19 18
14 15 14 16 15 15 15 14 15 15 16 15 15 14 16 17 19 19 20 20 20 21 21 21 20 20 20 21 21 21 21 20 21 21 20 20 20 20 20 19 19 19 19 19 19 18 19 19 18
13 14 15 14 14 15 15 15 16 16 16 16 16 16 16 16 16 17 18 20 21 20 21 21 21 21 21 20 21 21 20 20 21 20 20 20 19 19 19 19 18 19 18 18 18 18 17 17 17
14 14 15 15 14 14 14 14 15 16 16 16 15 14 15 15 16 16 16 18 20 21 21 21 21 21 21 21 20 20 20 20 20 21 20 19 18 18 18 18 18 18 17 17 16 16 15 15 15
14 14 15 15 14 15 13 13 16 16 16 15 15 14 14 14 15 15 17 19 21 22 22 21 21 21 21 20 20 20 21 20 21 20 18 17 17 17 18 18 17 17 16 16 15 15 14 14 14
13 13 13 13 13 13 14 13 15 15 17 16 16 15 14 14 14 15 17 19 20 21 20 20 20 20 20 21 20 20 20 20 19 17 17 16 17 17 17 17 17 16 15 15 14 14 13 13 13
13 12 11 13 12 13 14 14 14 17 17 17 16 15 14 14 14 15 15 15 17 18 19 19 18 18 19 18 18 19 19 19 19 18 17 16 16 16 16 15 15 14 14 13 13 13 12 12 12
13 13 11 13 13 13 14 14 16 17 17 16 16 15 16 17 14 14 14 15 16 17 18 18 18 18 17 17 17 17 17 17 17 17 17 16 16 15 14 14 13 13 12 12 12 12 11 11 11
13 12 14 13 12 11 14 15 16 16 15 15 15 14 14 14 13 15 15 15 15 16 18 19 18 18 17 17 16 16 16 17 17 16 16 15 15 14 13 12 12 11 11 11 10 10 10 10 10
14 14 13 9 12 14 13 14 15 16 15 15 14 14 14 14 14 13 13 14 15 16 16 16 16 16 16 16 15 15 15 15 16 16 15 14 13 12 11 11 11 10 10 10 9 9 9 9 9
13 13 13 12 10 12 13 13 14 14 13 13 14 14 15 14 13 12 12 14 15 15 14 15 15 15 14 14 14 14 14 14 13 13 13 13 12 13 12 10 9 9 9 9 8 8 8 8 8
13 13 13 10 12 8 9 13 13 13 13 13 14 15 15 15 14 12 12 14 14 14 14 14 14 14 14 13 13 13 13 12 11 11 10 10 10 9 9 9 9 8 7 7 7 7 7 7 7

GFSSGP_925_temp_087.txt.gz
Temp
17 17 18 17 17 17 17 21 22 21 21 22 25 24 23 22 24 22 19 19 20 20 20 20 20 19 19 19 18 18 18 19 18 18 19 19 19 19 19 19 18 18 18 18 18 18 17 17 17
16 17 17 15 15 17 20 21 23 22 21 22 25 24 23 22 20 20 19 19 20 19 20 20 20 19 19 18 18 18 18 18 18 18 18 18 19 20 19 18 18 17 17 17 17 17 17 18 18
16 16 15 15 15 18 21 21 23 23 22 22 24 23 22 21 21 20 20 19 19 19 20 20 19 19 19 18 18 18 18 17 17 17 18 18 18 18 18 18 17 17 17 18 18 18 18 18 18
16 15 14 16 15 17 21 22 24 23 23 21 22 23 20 20 20 20 19 19 19 19 19 19 19 19 19 19 18 18 18 17 17 17 17 18 18 18 18 17 16 17 18 18 18 18 18 18 18
15 13 16 16 16 18 20 22 23 23 23 22 23 22 20 19 20 19 19 19 19 19 19 19 19 19 19 19 18 18 18 17 17 17 17 17 18 18 17 16 16 17 18 18 18 18 18 18 18
14 14 15 15 17 18 20 21 23 22 23 24 21 21 19 19 18 18 19 19 19 19 19 19 19 19 18 18 18 18 19 18 17 17 17 17 17 17 16 16 17 18 19 19 18 18 18 18 18
14 14 16 16 17 19 20 21 21 22 23 22 23 20 18 18 18 18 19 19 19 19 19 19 19 19 18 18 18 18 19 18 18 17 17 17 16 16 16 16 17 17 18 19 19 19 19 19 19
13 14 15 16 17 18 21 21 21 22 21 21 20 19 19 18 18 18 19 19 20 19 19 19 19 18 18 18 18 18 19 18 18 18 18 18 18 17 17 17 17 18 19 19 19 19 19 19 19
14 14 14 16 17 19 20 21 21 21 20 20 20 19 20 17 18 19 19 19 18 19 19 19 19 18 18 18 18 19 19 18 18 18 18 18 18 18 18 18 18 18 18 18 19 19 19 19 19
13 13 14 16 17 18 19 20 20 20 19 19 19 19 19 18 18 19 19 18 18 18 18 19 19 18 18 18 18 18 18 18 18 18 18 18 18 18 18 18 18 18 18 18 18 18 18 19 19
13 14 15 17 16 17 18 19 17 19 19 19 19 18 18 18 19 19 18 18 18 18 18 19 19 19 19 19 18 18 18 18 18 18 18 18 18 18 18 18 18 18 18 18 18 18 19 18 19
12 15 14 16 15 16 16 15 19 20 20 20 19 18 18 18 19 20 20 19 19 19 17 17 17 19 19 19 18 18 18 18 18 18 18 18 18 18 18 18 18 18 18 18 18 18 18 18 19
12 15 14 15 15 15 16 16 16 18 19 18 19 19 18 18 18 18 19 19 17 18 18 16 16 16 20 20 19 18 18 19 19 18 18 18 18 18 18 18 18 18 18 18 18 18 18 19 19
12 15 13 16 15 14 15 15 17 17 16 17 19 18 18 18 18 17 18 17 17 18 19 16 17 17 17 20 20 19 19 19 19 19 19 19 19 19 19 18 18 18 19 19 19 19 19 19 19
14 15 13 15 14 15 15 17 16 14 17 17 18 18 17 17 18 17 18 16 17 19 18 18 18 18 17 18 20 21 20 20 19 19 19 19 19 19 19 19 19 19 19 19 19 19 19 19 19
13 13 11 14 14 14 15 17 16 14 15 17 17 17 16 17 18 18 18 17 17 19 19 21 18 19 18 17 17 20 21 20 20 20 20 20 20 19 19 19 19 19 19 19 19 19 19 19 19
13 12 12 13 14 14 14 15 15 14 14 15 16 17 17 17 16 16 18 18 18 18 18 17 19 19 18 19 18 18 18 20 21 20 20 20 20 19 19 19 19 19 19 19 19 19 19 18 19
12 12 12 12 13 13 12 14 14 15 15 14 15 15 17 18 18 18 17 18 18 18 18 17 17 18 18 18 18 20 18 18 20 21 21 20 20 20 20 20 19 19 19 19 19 19 19 19 18
14 12 13 13 14 14 13 13 13 14 14 13 14 15 16 17 18 19 18 18 18 19 20 19 19 18 19 19 18 20 18 18 18 20 21 20 20 20 20 20 19 19 19 19 19 19 19 19 19
13 13 13 14 14 14 13 13 13 14 15 14 14 15 15 17 18 19 19 19 18 19 21 21 21 21 20 19 20 19 19 18 20 19 19 20 19 19 20 20 19 18 19 19 19 19 18 18 18
13 13 14 14 14 14 14 13 14 14 14 14 14 14 15 15 16 18 17 19 19 18 20 21 21 21 20 19 19 18 19 18 19 20 19 19 19 19 19 19 19 18 18 19 18 18 17 16 17
13 14 14 14 13 14 14 14 14 15 15 16 15 13 14 14 15 16 17 18 19 21 20 20 21 20 20 21 20 19 19 18 19 19 19 20 20 20 20 19 18 18 18 18 17 17 16 15 15
13 13 13 14 14 14 13 13 15 15 15 17 14 13 13 14 15 15 15 19 21 21 21 21 20 21 21 20 21 21 19 20 20 20 19 18 16 15 16 17 17 16 16 16 16 15 15 14 14
12 13 13 13 13 13 13 13 15 14 16 17 15 14 14 13 14 14 16 18 19 21 21 20 20 19 21 21 21 21 21 21 18 18 18 18 18 16 15 16 15 16 16 16 15 14 14 13 13
12 13 12 12 13 14 14 14 14 15 16 16 15 14 14 13 13 14 14 15 18 18 20 20 20 19 19 18 19 20 21 20 19 19 18 18 16 15 15 15 15 15 15 14 14 13 13 12 12
12 13 12 13 13 12 13 14 15 16 14 14 15 15 14 14 13 13 13 15 17 18 17 18 20 19 18 17 17 16 16 16 17 18 18 17 15 14 14 14 15 14 13 13 12 12 11 11 11
12 10 13 12 12 11 13 14 15 15 14 13 13 13 13 13 12 13 13 14 15 16 16 16 18 18 18 18 18 17 17 15 15 14 15 15 14 14 14 14 13 14 13 12 11 11 10 10 10
14 14 13 10 12 14 12 13 14 16 15 14 13 13 13 12 12 12 11 13 14 14 14 14 15 15 16 16 16 16 16 15 15 15 14 14 14 13 13 13 12 12 11 11 10 10 9 9 9
13 14 12 12 9 11 12 13 13 14 14 13 13 13 13 12 12 11 11 13 13 14 14 15 15 16 15 15 14 15 15 15 14 14 13 13 14 14 13 12 12 12 11 9 9 9 9 8 8
12 13 12 10 12 7 8 12 11 12 13 13 14 15 15 14 12 10 11 12 13 13 13 14 14 14 14 14 14 14 13 13 13 13 13 11 12 11 11 10 10 9 9 8 8 7 7 7 7

GFSSGP_925_temp_090.txt.gz
Temp
16 16 17 16 15 14 16 19 21 18 20 23 23 23 23 20 22 22 19 19 20 20 20 20 20 19 19 18 18 19 19 19 19 19 19 19 19 19 19 18 18 18 18 18 18 18 17 17 17
16 16 16 14 15 14 17 19 21 20 21 21 22 23 22 21 19 20 19 19 19 20 19 20 20 19 19 18 18 18 18 18 19 19 19 19 19 19 19 18 18 18 18 18 17 17 17 18 18
15 16 15 15 15 15 18 19 23 22 20 19 20 23 21 20 20 20 20 19 19 19 19 20 20 19 18 18 18 18 18 18 18 19 19 19 19 19 18 18 17 17 17 17 17 17 18 18 18
15 14 15 15 16 16 19 20 22 21 20 19 18 20 20 19 19 20 20 19 19 19 19 20 19 19 19 18 18 17 17 17 18 18 18 18 18 18 18 17 16 17 17 17 17 17 18 18 18
14 13 15 15 16 16 18 20 22 22 20 20 18 20 20 19 19 20 19 19 19 19 19 19 19 19 19 19 19 18 17 17 17 17 17 18 18 17 17 16 16 17 17 17 18 18 18 18 18
13 14 14 15 16 17 18 19 22 22 22 20 19 19 20 18 19 19 19 19 19 19 19 19 19 19 19 19 18 19 18 17 17 17 17 18 18 17 16 16 16 16 17 18 18 18 18 18 18
12 13 15 16 16 16 18 19 20 21 22 20 20 19 18 18 18 19 19 18 18 19 19 19 19 19 19 19 18 18 18 18 17 17 17 17 17 16 16 16 16 16 17 17 18 18 18 18 18
12 14 15 16 16 16 17 20 21 20 23 22 22 18 18 18 18 18 18 19 18 19 19 19 18 18 18 18 18 18 18 18 18 17 17 17 16 16 16 16 16 17 18 18 18 18 18 18 18
13 13 14 15 16 16 17 20 20 21 20 20 20 19 20 17 17 16 18 18 19 19 19 19 19 18 18 18 19 19 18 18 18 18 18 17 17 16 16 17 17 18 18 18 18 18 18 18 18
12 13 14 16 16 16 16 18 20 20 18 18 18 18 18 18 16 15 17 18 18 18 18 19 19 18 18 18 18 19 18 18 18 18 18 18 18 18 18 18 18 18 18 18 18 18 19 19 18
11 12 15 16 16 14 17 17 18 19 18 19 20 17 17 17 16 16 15 18 18 18 17 17 17 18 19 19 18 18 18 18 18 18 18 18 18 18 18 18 18 18 18 18 18 19 19 18 18
11 13 14 16 16 14 16 16 17 18 19 19 19 18 17 17 18 17 18 17 17 17 17 17 17 16 17 18 18 18 18 17 18 18 18 18 18 18 18 18 18 18 18 18 18 18 18 18 18
11 12 14 15 15 14 14 15 17 17 16 18 19 18 18 18 18 19 19 18 17 16 18 19 18 17 16 16 17 18 18 18 18 18 18 18 18 18 18 18 18 18 18 18 18 18 18 18 18
11 13 14 14 15 15 14 15 15 16 14 18 18 18 18 18 18 18 18 18 18 18 20 23 21 20 17 16 17 17 18 18 18 18 18 18 18 18 18 18 18 18 18 18 18 18 18 18 18
12 12 14 12 13 14 14 15 14 13 15 16 18 17 18 17 17 18 17 16 17 17 21 24 22 21 19 17 17 17 17 18 19 18 18 18 18 18 18 18 18 19 18 18 18 18 18 18 18
11 12 12 13 12 12 14 15 14 13 14 15 16 16 18 17 17 17 17 17 18 21 22 22 19 21 21 19 18 18 16 17 18 19 19 19 19 19 19 18 19 19 18 18 19 18 18 18 18
11 12 12 12 12 13 14 15 14 13 13 14 14 14 15 17 16 17 17 18 19 20 21 20 18 18 18 18 19 18 18 17 18 18 19 19 19 19 19 19 19 19 18 18 19 18 18 18 18
11 12 12 12 13 13 13 13 14 13 13 13 14 14 16 15 16 16 18 19 20 20 18 18 18 18 19 20 19 18 19 18 17 18 19 19 20 19 19 19 19 19 18 18 18 18 18 19 19
11 12 11 12 13 13 12 13 14 13 12 12 14 14 15 16 16 16 16 18 17 19 18 19 18 17 17 17 18 17 17 17 19 19 18 18 19 20 19 19 19 18 18 19 18 19 19 19 18
13 12 12 13 12 12 13 13 14 13 13 14 14 15 15 16 17 16 16 16 16 17 17 17 18 18 18 18 18 17 16 18 19 21 20 18 18 18 18 19 19 19 18 18 19 19 18 18 18
13 13 12 13 13 13 13 13 13 13 13 13 13 14 15 15 17 17 16 16 16 16 17 17 18 18 18 18 17 18 20 19 19 18 19 18 17 18 19 18 18 18 19 18 18 19 18 17 16
13 13 14 13 13 13 14 14 14 14 13 14 13 13 14 14 15 16 17 17 17 18 17 19 18 20 20 20 18 19 18 18 19 17 18 17 18 18 18 18 17 17 17 17 16 17 16 15 14
12 13 13 14 13 13 12 13 14 14 13 15 15 13 13 13 14 15 16 18 19 19 20 20 19 20 21 21 20 19 17 17 17 16 16 16 15 16 19 18 18 16 16 16 14 15 15 15 14
13 13 13 12 13 12 13 14 14 14 15 16 17 14 13 14 13 14 16 17 19 19 19 19 20 20 20 21 21 20 21 21 19 17 16 15 15 15 15 17 17 16 14 15 15 15 14 13 13
13 11 12 13 13 13 13 13 14 15 14 16 16 14 13 13 14 13 13 14 17 18 19 19 19 20 20 19 19 19 19 20 19 19 17 15 15 15 14 14 15 15 15 15 14 14 14 13 13
12 12 12 13 12 12 13 13 15 14 13 13 13 11 11 12 12 12 12 14 16 17 18 18 17 18 18 17 17 16 17 16 16 15 16 16 15 15 14 13 15 14 14 14 14 13 12 12 12
13 11 13 12 12 11 12 14 16 14 13 13 13 12 11 11 11 11 10 12 14 14 15 16 16 16 17 17 17 17 16 16 16 15 15 15 14 14 15 14 13 13 14 14 13 12 11 11 10
13 13 13 11 13 14 12 13 14 14 14 13 12 12 11 11 10 9 9 11 12 13 13 14 15 15 16 16 16 16 16 15 14 14 14 13 14 14 13 14 14 14 13 12 12 10 10 10 9
12 13 11 11 10 12 12 14 14 13 14 12 11 11 11 11 9 9 9 11 12 13 13 13 14 15 16 15 15 15 15 15 14 14 13 12 12 12 12 12 11 11 9 10 10 10 9 8 8
12 12 11 10 12 7 8 13 10 10 12 12 12 12 12 11 10 9 9 11 12 12 13 13 13 13 14 14 14 14 14 13 13 13 12 12 12 11 11 11 11 8 10 9 9 8 7 7 7

GFSSGP_925_temp_093.txt.gz
Temp
16 16 17 17 18 16 18 20 21 22 22 21 23 23 23 22 24 24 19 19 19 19 19 19 19 19 19 19 19 19 19 19 19 19 20 19 19 19 19 18 18 18 18 18 18 18 17 17 18
15 16 16 15 17 17 18 20 22 22 23 21 21 23 22 23 20 20 19 19 19 19 19 19 19 19 19 19 19 19 19 19 19 19 19 19 19 19 19 18 18 18 18 18 18 18 17 17 17
15 16 16 16 17 18 19 20 22 23 21 19 18 20 22 22 21 21 20 19 19 19 19 19 19 19 18 19 18 19 19 19 19 20 20 19 19 18 18 18 18 18 18 18 18 18 18 18 18
15 14 15 17 17 19 19 21 22 22 20 20 19 18 21 18 19 20 19 19 19 19 19 19 19 19 19 19 18 18 19 19 19 19 19 19 19 18 18 17 17 17 17 17 17 18 18 17 18
14 13 15 16 16 17 19 20 21 23 21 20 19 19 18 20 19 19 19 19 19 19 19 19 19 19 19 19 18 18 18 18 19 19 19 19 18 17 17 17 17 17 17 17 17 17 18 18 18
14 14 15 16 17 18 19 19 21 22 21 20 20 19 18 20 19 19 19 19 18 18 19 19 19 19 19 19 18 19 17 17 17 18 18 18 18 17 16 17 17 17 17 17 17 17 17 18 18
13 14 15 16 17 18 18 19 19 21 21 20 21 20 18 18 20 19 20 19 18 18 19 18 18 18 19 19 18 18 18 17 17 17 18 18 17 16 16 16 17 17 17 17 17 17 18 18 18
12 13 15 15 16 17 19 18 20 21 22 21 21 19 18 18 20 19 19 18 18 18 19 18 18 18 18 18 18 18 18 18 17 17 18 17 16 16 16 16 16 17 17 17 17 17 18 18 18
13 12 13 14 15 17 18 18 19 20 21 22 21 20 19 17 18 18 18 18 18 18 18 19 18 18 19 19 18 18 18 18 17 17 17 16 16 16 16 17 17 18 18 18 18 18 18 18 18
11 12 13 16 16 17 18 18 19 19 21 21 20 18 16 16 17 15 14 18 17 18 18 18 18 18 19 19 18 18 18 18 18 18 17 17 17 17 17 17 18 18 18 18 18 18 18 18 18
12 11 14 15 16 16 17 17 18 18 18 21 21 18 17 17 15 15 15 14 18 18 17 17 18 18 18 19 19 18 18 18 18 18 18 17 17 17 18 18 18 18 18 18 18 18 18 18 18
10 12 13 14 16 16 17 15 17 16 19 18 21 19 18 16 17 16 16 15 16 16 17 17 17 17 17 18 18 18 18 17 18 18 17 18 18 18 18 18 18 18 18 18 18 18 18 18 18
11 12 13 14 14 15 15 14 14 16 20 16 18 19 19 17 17 16 18 18 18 16 16 17 18 18 18 17 17 18 18 17 18 18 18 18 18 18 18 18 18 18 18 18 18 18 18 18 18
11 12 12 13 15 15 14 15 14 16 15 15 19 18 18 17 17 17 16 17 16 16 15 16 17 19 18 18 17 17 18 18 17 17 17 18 18 18 18 18 18 18 18 18 17 17 18 18 18
11 9 11 13 14 15 14 13 14 14 14 15 21 17 17 18 18 18 18 18 17 17 17 19 18 20 21 20 18 17 17 17 18 18 17 18 18 18 18 18 18 18 18 18 18 18 18 18 18
9 10 11 13 13 11 13 14 14 14 14 17 18 20 18 18 18 19 19 18 17 16 18 19 17 18 21 22 20 18 18 17 17 18 18 18 18 18 18 18 18 18 18 18 18 18 18 18 18
11 11 12 12 13 12 11 12 13 13 14 14 14 15 19 18 18 18 18 17 16 17 19 21 20 22 21 20 20 19 19 18 18 18 17 18 18 18 18 18 19 18 18 18 18 18 18 18 18
11 12 13 13 12 12 10 9 9 14 13 14 14 14 16 18 17 16 16 16 16 18 20 21 22 22 16 18 18 19 20 19 19 19 18 18 18 18 18 19 19 18 18 18 18 18 18 18 18
12 12 12 13 13 12 12 9 11 14 14 14 14 14 14 15 14 15 15 16 16 18 19 19 20 19 20 19 18 18 21 19 19 19 19 19 19 18 18 18 18 18 18 18 18 18 18 18 18
12 13 12 12 12 12 11 10 12 14 13 13 14 15 15 14 13 14 15 15 16 16 16 19 20 19 19 18 17 17 19 17 17 18 20 18 18 17 18 18 18 18 18 17 18 18 18 18 17
12 13 12 12 13 12 12 10 13 14 14 14 14 14 15 16 15 14 14 15 16 15 16 18 19 20 19 17 17 18 18 19 19 18 18 18 19 17 17 17 16 16 16 16 15 15 16 17 17
12 12 14 13 14 14 13 13 13 14 14 15 15 14 15 15 16 16 14 14 16 17 17 17 17 17 17 17 18 17 17 16 18 18 18 19 17 17 17 17 15 15 15 16 16 16 15 15 14
13 13 13 13 14 14 13 13 13 13 14 15 15 14 15 15 15 16 16 16 16 17 16 16 17 17 17 17 18 16 16 16 17 17 16 17 15 15 17 15 15 15 15 15 15 15 15 14 14
13 13 12 13 13 13 13 13 15 15 15 15 15 16 14 15 14 15 15 16 17 18 18 17 16 16 16 18 19 19 18 18 16 16 16 16 16 15 15 15 15 15 15 16 16 14 14 15 14
12 12 12 12 12 13 13 14 15 15 14 15 16 16 14 14 14 15 15 15 16 16 16 17 18 18 18 17 17 19 19 19 17 15 16 15 14 14 15 15 15 15 15 15 15 14 14 14 13
11 12 12 13 12 13 13 14 15 13 13 13 13 12 12 13 13 13 13 13 14 15 15 16 16 16 17 18 17 16 15 15 15 15 15 14 15 15 15 15 15 14 14 14 15 14 13 13 13
12 12 12 12 12 13 12 14 15 14 14 14 13 13 11 11 11 11 10 11 12 14 14 15 15 15 15 16 16 16 16 16 16 15 14 14 14 14 15 14 14 14 13 14 14 13 13 12 12
13 13 13 11 12 13 13 13 13 13 13 13 13 12 11 11 11 10 10 10 11 12 13 14 14 14 14 15 15 16 16 16 16 16 15 14 13 13 13 12 13 12 12 12 11 11 11 11 10
12 13 11 11 10 14 14 14 13 12 13 12 12 11 11 11 10 10 10 10 11 12 13 13 13 14 14 14 14 15 15 15 15 14 13 13 12 12 11 11 11 11 11 10 10 10 8 9 9
11 11 11 12 12 8 10 13 10 9 12 12 12 11 11 10 10 10 9 10 10 11 12 13 13 13 13 13 13 14 14 14 14 13 13 12 12 11 11 11 11 10 10 9 9 8 8 9 8

GFSSGP_925_temp_096.txt.gz
Temp
16 17 18 21 22 22 23 24 26 27 26 29 24 24 25 27 28 28 22 20 23 23 21 20 19 19 19 19 19 20 19 19 19 20 20 19 19 19 18 18 18 19 19 19 19 19 18 17 17
16 17 19 20 21 23 23 26 24 26 28 27 24 23 23 26 25 25 22 20 21 22 21 21 19 19 19 18 19 19 19 19 19 20 20 19 19 18 18 18 18 19 19 19 18 18 17 17 17
15 17 20 20 20 23 24 25 25 27 27 25 24 21 20 24 25 24 21 21 21 22 21 21 19 19 19 18 19 19 19 19 19 19 19 19 19 19 18 18 19 18 19 18 18 18 17 18 18
17 18 19 19 21 23 24 26 26 26 26 25 25 22 20 22 23 22 20 21 22 22 21 20 19 19 19 18 19 19 19 19 20 20 19 19 19 18 18 18 18 18 18 18 18 18 17 18 18
16 18 18 19 20 23 24 25 26 25 26 24 25 24 22 20 22 21 20 21 22 21 21 19 19 19 19 19 19 19 19 19 19 19 19 19 19 18 18 18 18 18 18 18 18 18 17 18 18
16 18 18 19 21 22 24 24 25 24 25 26 24 24 23 21 20 21 20 21 21 21 20 20 19 19 19 19 19 19 19 19 18 18 19 19 18 17 17 17 17 18 18 18 17 18 18 18 18
15 17 17 19 21 22 22 24 23 23 25 25 25 24 23 21 22 21 19 20 21 21 21 19 19 18 19 19 19 19 19 19 19 19 19 18 18 16 17 17 17 17 18 18 17 18 18 18 18
16 15 16 18 19 20 23 23 24 23 24 26 26 24 24 22 20 20 21 18 20 20 21 19 19 19 19 18 18 19 18 18 18 18 18 18 17 16 16 16 17 17 18 17 18 18 18 18 18
16 13 15 17 18 19 22 22 23 23 23 25 25 25 25 21 18 19 18 16 18 19 20 19 20 20 20 19 18 18 18 17 18 18 18 17 18 17 16 17 16 16 17 17 17 18 18 18 18
14 14 15 18 19 19 20 21 22 22 22 22 24 24 20 18 18 17 14 15 15 18 18 19 20 21 20 19 18 18 18 18 19 18 18 18 18 18 19 16 16 17 17 18 18 18 18 18 19
14 13 16 17 18 19 19 20 22 21 21 23 24 25 18 20 17 15 15 14 15 17 17 18 20 20 20 19 18 18 19 19 19 19 19 19 18 17 17 17 17 17 17 18 17 17 18 19 19
12 14 15 16 17 17 17 19 20 20 21 23 24 21 19 19 19 18 15 15 15 15 17 17 19 19 20 19 19 18 18 20 19 19 18 18 18 18 18 18 18 18 18 19 18 19 19 18 18
13 14 15 15 16 16 16 17 18 19 20 21 23 23 20 19 17 18 19 18 15 14 16 17 17 18 19 19 19 19 18 18 18 18 18 18 18 18 18 18 18 18 18 18 18 18 18 18 18
15 14 14 15 15 16 16 17 17 19 18 18 19 21 21 20 19 17 17 19 16 15 15 16 17 17 18 18 18 19 19 18 18 18 17 18 18 18 18 18 18 18 17 18 18 18 18 19 19
13 13 13 14 14 14 16 15 16 18 18 17 18 20 20 20 19 18 17 17 17 15 16 16 16 17 18 18 18 17 18 18 18 17 18 18 17 17 17 17 17 18 17 18 18 18 18 18 18
9 10 11 14 15 15 14 16 18 17 15 16 17 20 21 19 19 19 19 18 16 16 16 16 16 16 18 18 18 18 17 17 18 18 18 17 17 17 17 17 18 18 18 18 18 18 19 19 19
12 11 10 13 15 14 14 16 18 14 15 14 17 20 20 17 18 19 18 17 17 17 16 18 17 16 17 17 17 18 18 18 18 18 18 17 17 17 17 17 18 18 18 18 18 18 19 19 19
11 13 15 15 14 14 14 13 15 14 14 13 17 18 19 18 18 19 19 18 17 17 16 17 16 17 17 17 17 17 18 18 18 17 18 17 17 17 16 17 18 18 18 18 18 19 19 19 20
9 12 14 13 15 14 15 14 14 15 14 12 17 17 18 17 17 18 18 16 19 18 16 17 17 18 17 17 17 18 18 17 17 18 18 18 17 17 17 17 18 18 18 18 19 19 19 18 19
11 13 14 12 13 14 13 13 15 15 15 11 17 16 17 15 14 14 15 14 15 15 16 17 19 17 16 17 18 18 17 17 17 17 17 17 17 17 17 16 17 17 18 18 18 18 18 19 18
14 15 14 13 14 14 14 12 11 12 12 12 16 16 16 15 14 14 14 15 15 15 16 16 16 18 19 18 16 17 16 16 16 16 17 16 17 17 17 16 16 16 16 16 16 15 16 17 17
15 16 15 13 14 16 16 13 11 11 14 17 17 16 16 15 15 14 14 15 15 15 16 15 16 17 18 18 17 17 18 18 16 15 16 17 17 16 16 16 15 15 15 15 15 16 15 15 16
15 15 15 15 15 17 15 14 12 14 17 18 17 17 17 17 17 15 14 15 15 15 15 15 16 16 18 19 19 16 16 17 18 17 16 16 17 15 16 16 16 15 14 14 14 15 15 15 15
14 15 15 15 16 16 14 13 13 14 16 16 17 17 16 16 16 16 16 15 14 14 14 15 16 16 16 17 17 16 15 17 16 16 16 16 15 15 15 15 15 15 14 15 15 15 15 15 15
13 16 14 15 15 15 13 14 14 15 16 16 16 17 17 17 17 16 17 17 16 16 16 16 16 15 15 16 16 16 16 17 17 18 16 15 14 14 15 15 14 15 15 15 14 15 15 15 15
12 14 15 16 16 15 15 14 14 16 16 16 15 15 16 16 16 15 15 16 15 14 14 15 16 16 16 16 15 15 15 16 17 17 15 15 14 14 15 14 14 14 14 14 14 14 15 15 15
13 14 15 16 17 17 16 17 18 16 16 14 14 15 15 15 14 13 14 14 15 15 14 14 15 15 15 15 15 15 15 14 15 15 14 14 13 13 14 14 14 14 14 13 14 13 13 13 12
14 15 16 16 16 16 16 17 16 16 17 16 16 15 14 14 14 14 14 13 13 13 13 14 14 14 14 14 14 14 14 14 15 14 14 13 13 13 13 12 12 12 12 13 13 12 12 11 11
15 16 15 16 15 18 17 17 16 16 16 16 16 16 15 15 14 15 15 14 13 13 13 13 13 13 13 14 14 14 13 13 13 13 12 13 13 12 12 11 12 12 12 12 12 11 11 10 9
14 15 16 17 16 14 18 16 15 15 16 16 15 15 15 15 15 15 14 14 14 13 13 13 13 12 12 12 13 13 14 13 12 12 12 12 11 11 11 11 11 11 11 11 10 10 9 9 8

GFSSGP_925_temp_099.txt.gz
Temp
17 19 21 22 22 23 24 26 29 29 30 32 31 29 29 30 30 28 24 24 25 23 21 20 20 19 19 19 20 20 20 20 20 20 19 19 19 19 19 19 19 19 19 19 19 18 18 17 17
17 19 21 23 22 22 24 27 27 29 30 31 29 27 27 29 28 28 25 23 23 22 21 21 20 19 19 19 19 19 20 20 20 20 20 19 19 19 18 19 19 19 19 20 19 18 17 17 18
17 19 21 21 22 22 24 28 28 29 30 30 29 28 27 28 27 26 24 23 22 21 22 21 20 19 19 19 19 19 20 20 19 20 19 19 19 18 18 19 19 19 19 18 18 17 17 18 19
19 20 21 21 22 24 24 27 29 29 29 30 28 27 25 26 26 25 24 23 22 21 22 21 20 19 19 19 19 19 19 20 19 19 19 19 19 18 18 19 19 19 18 18 18 17 18 19 19
18 20 20 21 21 23 26 27 27 28 28 29 29 27 26 25 25 24 23 23 23 22 21 20 20 19 19 19 19 20 20 20 19 19 19 19 19 19 19 19 19 19 19 18 17 17 18 18 18
19 20 19 21 22 24 25 26 27 27 28 28 28 27 27 26 23 23 22 22 23 22 20 20 19 19 19 19 19 19 20 19 19 19 19 19 19 18 18 18 18 19 18 17 17 17 18 18 18
17 19 19 20 21 23 25 26 26 26 27 27 28 27 28 27 23 22 23 21 21 22 21 20 19 18 18 19 19 19 19 19 19 19 19 19 19 18 18 18 18 19 18 17 17 18 18 18 18
17 18 18 19 20 21 24 25 26 26 26 28 28 26 26 27 23 19 20 21 18 17 20 20 20 19 19 18 19 19 19 19 19 18 19 18 18 17 18 18 18 18 18 18 18 18 18 18 18
17 16 17 18 19 20 23 23 25 26 26 26 27 27 26 22 21 19 19 18 16 15 15 20 19 20 20 19 18 19 18 18 18 19 18 17 17 17 17 17 18 18 18 17 17 18 18 18 19
15 15 16 19 20 20 22 22 23 24 25 25 25 27 25 21 20 18 16 15 15 16 14 14 19 21 21 20 18 18 18 18 19 18 18 19 18 19 19 17 17 17 17 17 17 18 18 19 19
15 15 17 18 19 20 20 21 23 22 23 25 24 25 23 22 20 18 16 15 15 15 15 15 18 21 22 20 19 19 19 20 20 19 19 20 20 19 18 16 16 16 17 17 17 18 18 20 20
14 15 16 17 17 18 18 20 20 21 22 24 25 26 23 19 19 18 16 15 15 15 15 18 17 21 21 21 20 21 21 21 20 20 21 21 20 19 19 18 18 18 18 20 19 20 20 20 20
14 15 16 16 16 17 18 17 18 20 21 22 24 23 20 21 19 18 18 16 15 14 15 15 16 20 20 19 19 21 22 21 21 21 20 20 20 20 20 20 19 20 20 20 20 20 20 20 20
14 15 16 16 16 16 16 17 18 18 20 21 21 21 21 21 20 18 19 16 16 17 17 15 16 20 21 19 19 18 21 21 20 20 20 20 20 20 19 20 19 19 19 19 20 20 20 20 20
13 13 15 15 16 16 16 15 16 18 20 20 20 21 21 22 18 16 20 18 17 19 18 17 15 18 19 20 20 19 19 19 19 19 19 19 19 19 19 19 19 19 19 19 19 20 20 20 21
13 13 12 15 16 16 16 13 17 19 19 20 19 20 20 22 19 15 19 19 18 15 17 17 16 18 18 19 19 20 20 20 19 19 19 19 19 19 18 18 18 18 18 19 19 20 20 20 21
14 13 12 12 16 16 15 14 18 20 18 18 19 19 20 21 21 16 16 18 17 16 16 15 17 17 19 18 19 19 19 19 19 19 18 18 18 18 18 18 19 19 18 19 19 20 20 20 20
14 13 15 12 16 16 15 14 17 17 18 18 17 20 20 20 20 16 15 18 17 16 16 16 15 17 17 18 18 19 18 19 19 19 19 19 18 18 18 18 18 19 19 19 19 20 20 20 21
14 13 13 12 11 16 15 15 17 19 18 17 17 17 19 19 20 18 15 17 17 16 16 16 17 16 16 17 17 18 18 18 18 18 18 19 18 18 18 18 18 18 19 19 20 20 20 20 20
14 13 14 15 15 15 16 17 18 18 17 17 15 15 19 18 14 14 15 17 17 16 16 17 17 18 17 17 18 18 18 18 18 17 18 18 18 18 18 17 18 18 18 19 19 19 19 19 20
13 14 15 13 13 15 15 15 15 16 15 17 15 16 18 18 15 14 14 15 16 16 16 16 16 16 16 17 18 18 18 18 17 17 17 17 17 17 17 17 17 17 17 18 18 18 17 18 17
13 17 15 12 12 14 16 15 12 12 15 16 15 15 17 15 14 13 13 14 14 14 15 16 15 15 15 16 17 18 18 18 18 18 17 17 17 16 16 16 17 16 16 16 15 15 16 17 17
14 17 14 14 15 14 16 16 12 11 14 15 15 15 15 15 14 13 14 14 13 13 14 15 15 15 15 15 16 17 17 17 17 17 15 16 16 16 16 16 16 16 15 15 15 14 14 15 16
13 15 16 16 15 15 13 13 13 12 11 15 16 15 15 14 14 15 13 13 14 14 14 14 14 15 15 16 16 16 16 16 15 15 15 15 15 15 16 16 16 15 15 15 15 14 14 14 14
13 15 14 14 15 15 13 13 11 12 12 15 16 16 16 16 16 14 14 13 13 13 14 14 14 16 16 16 16 17 16 16 15 15 15 15 15 15 15 15 17 15 14 14 15 14 14 14 14
14 13 14 16 16 15 15 13 12 15 15 15 14 15 14 13 14 15 15 17 15 15 15 15 16 16 16 16 16 16 16 15 16 16 16 16 16 15 16 16 16 15 14 14 14 14 13 13 13
16 15 17 18 19 18 15 12 13 14 14 12 13 13 14 14 13 13 14 15 15 15 15 15 16 17 17 17 16 16 15 15 16 15 16 16 15 14 14 14 14 14 14 14 13 13 13 13 12
13 16 15 17 17 17 15 14 13 13 13 13 12 13 15 15 16 15 14 14 15 15 15 15 15 16 16 15 16 15 16 16 15 15 15 14 14 14 13 13 13 14 13 13 12 13 12 12 12
16 17 18 18 17 19 17 14 17 17 15 16 16 16 15 16 16 16 16 15 15 15 15 15 14 15 15 15 15 15 15 15 14 15 14 13 13 13 13 13 13 12 12 11 12 12 12 12 12
15 16 18 19 18 19 19 15 18 18 18 17 16 17 16 16 16 16 16 16 15 15 15 14 14 14 13 13 14 14 13 13 14 14 13 12 11 12 12 12 12 11 11 11 11 11 11 11 10

GFSSGP_925_temp_102.txt.gz
Temp
17 19 20 21 19 20 20 22 24 25 27 29 30 30 29 29 26 23 25 25 23 21 21 20 20 19 19 20 20 20 21 20 20 20 19 19 20 19 19 19 19 19 19 18 18 18 17 17 17
17 19 21 19 18 19 21 23 24 26 27 29 29 28 27 28 27 23 23 24 23 22 21 20 20 20 19 19 20 20 20 20 20 20 20 19 19 19 19 19 19 19 19 18 18 17 17 18 18
17 19 18 18 18 18 21 24 25 27 27 28 29 28 28 28 26 25 24 23 22 21 21 21 20 20 19 19 20 20 20 20 20 20 20 20 19 19 19 19 19 19 18 18 17 17 18 19 19
19 19 18 18 19 20 21 23 25 26 27 28 28 26 25 26 26 25 24 24 22 21 21 21 20 20 19 19 19 20 20 19 19 20 19 19 19 18 19 19 19 19 19 18 17 18 18 19 19
18 18 17 18 18 21 23 24 24 25 26 27 27 26 24 25 26 24 24 23 22 21 21 21 20 20 20 19 19 20 20 20 20 20 19 19 19 19 19 19 19 19 18 18 17 18 18 19 19
16 17 16 17 19 21 22 23 24 24 25 26 26 26 25 27 25 24 23 23 23 21 21 21 20 20 19 19 19 19 20 19 19 19 19 19 19 19 19 19 18 19 18 18 17 17 18 18 19
15 16 16 17 19 20 22 24 23 24 24 25 27 25 26 22 25 24 23 22 22 21 20 20 20 19 19 19 19 19 20 19 19 19 19 19 19 18 18 18 19 19 18 18 17 17 18 18 18
15 15 15 16 18 19 21 23 23 23 24 26 26 25 24 22 23 21 21 21 19 19 18 17 16 19 19 19 19 19 19 19 19 19 19 19 18 18 18 18 19 19 18 17 17 18 18 18 18
16 13 14 16 17 18 21 20 22 23 23 24 25 25 24 23 22 21 18 19 18 17 19 16 16 14 18 18 18 18 19 19 18 18 18 18 18 18 18 18 19 19 18 18 17 18 18 18 19
13 13 14 17 18 18 19 20 21 21 22 22 24 25 26 22 20 19 18 17 18 19 17 14 15 15 15 19 18 18 18 18 18 18 18 17 17 17 17 18 18 18 18 17 18 18 18 19 19
14 12 14 15 16 17 18 18 19 19 19 21 22 23 23 23 19 18 17 17 18 17 19 20 17 13 16 16 18 18 17 17 17 17 18 18 17 17 17 17 17 17 17 17 18 18 19 20 19
13 15 15 16 16 16 16 17 17 18 19 20 21 21 20 20 18 19 18 17 15 16 17 15 16 16 16 15 19 18 18 17 17 17 19 19 18 18 17 17 16 17 17 18 19 19 20 19 20
13 14 15 16 15 16 16 15 16 17 18 18 20 20 20 19 18 20 18 17 16 16 16 14 16 15 17 16 19 19 19 19 19 19 19 20 19 19 18 18 17 18 19 18 19 19 20 20 20
13 13 14 15 15 16 15 15 15 16 18 18 19 19 17 18 18 19 18 16 16 15 15 14 17 17 17 16 20 20 20 21 20 20 20 20 19 19 19 19 19 19 19 20 20 20 20 20 20
12 12 13 14 15 15 16 14 14 16 17 17 18 19 17 17 18 18 18 16 16 15 14 15 17 16 15 17 20 21 21 21 20 20 20 20 20 20 20 19 19 19 19 19 19 20 20 20 20
12 12 10 14 15 15 14 12 15 16 16 16 17 19 16 18 18 19 18 16 15 15 14 16 16 17 16 16 19 21 20 20 20 20 19 19 19 19 19 19 19 19 19 19 19 19 20 20 20
12 10 11 12 15 15 14 13 14 16 16 16 17 16 15 16 18 18 17 16 16 16 15 15 17 19 18 16 17 17 20 19 19 19 19 19 19 19 19 18 18 18 18 19 19 19 20 20 20
11 11 13 14 14 12 13 13 14 16 16 15 16 15 16 18 18 18 15 17 16 16 18 17 17 17 17 18 18 19 18 18 18 19 19 19 18 18 18 18 18 18 18 19 19 19 20 20 20
11 12 12 14 16 11 13 14 14 14 12 15 14 14 15 17 18 19 16 16 15 16 17 15 15 16 17 18 19 19 18 18 18 18 18 19 18 18 18 18 18 18 18 19 19 19 19 20 20
10 11 12 15 15 11 14 14 15 15 12 15 15 15 15 15 14 15 15 15 15 15 16 15 15 16 17 18 19 19 18 18 18 18 18 18 18 18 18 18 18 18 18 18 19 19 19 20 20
12 12 13 13 11 14 14 13 15 16 15 15 15 14 15 15 14 13 14 15 15 15 15 15 15 16 16 17 17 17 18 18 18 18 18 18 18 18 18 18 18 18 18 18 18 18 18 19 18
12 15 15 12 11 13 14 13 13 12 12 13 15 14 14 14 13 13 13 14 15 14 15 16 16 17 16 16 16 16 18 18 19 18 17 18 17 18 18 19 17 17 17 17 18 18 18 17 16
13 14 13 13 12 11 12 13 12 10 13 15 14 14 14 13 13 13 13 13 14 14 14 15 16 16 16 16 16 16 16 16 17 17 17 18 17 17 17 17 17 17 17 17 17 17 17 17 16
13 13 14 14 13 13 13 13 12 11 11 12 14 14 14 13 13 13 13 13 13 13 15 14 14 15 16 15 15 15 15 16 16 16 16 16 16 16 16 16 16 16 15 16 15 15 15 16 15
12 12 12 13 14 14 12 12 11 10 11 13 13 13 13 13 12 13 13 13 13 13 14 14 14 14 15 15 15 15 15 15 15 15 15 15 15 16 15 15 15 15 14 15 15 16 14 14 13
12 12 13 14 14 14 14 12 11 11 11 14 13 12 12 11 12 13 12 12 13 13 13 14 14 14 14 16 16 16 16 15 15 15 15 15 14 14 15 15 15 15 14 14 14 16 14 13 13
13 13 15 12 15 14 13 11 11 11 12 12 12 12 11 11 12 13 13 14 14 14 14 15 16 16 17 17 16 16 15 15 15 15 14 15 15 14 15 14 14 14 15 14 14 14 14 13 13
12 14 14 13 15 15 14 12 12 10 12 12 13 12 12 12 12 12 12 14 14 15 14 15 15 15 15 15 16 15 15 15 15 15 15 14 14 14 14 14 14 14 14 14 14 14 13 13 12
14 15 16 16 15 15 14 12 13 12 13 13 12 13 14 14 13 13 13 14 15 14 14 14 14 14 14 14 15 15 15 14 14 14 14 14 14 14 14 13 13 13 14 14 14 13 12 12 12
14 16 16 13 15 14 12 12 15 15 15 14 14 14 13 14 14 13 13 14 14 14 14 14 13 13 13 13 14 14 14 14 14 14 14 13 12 12 12 12 13 13 13 13 13 12 11 12 11

GFSSGP_925_temp_105.txt.gz
Temp
17 18 18 18 16 15 16 18 20 21 23 25 25 25 28 26 27 23 23 24 23 22 21 21 21 22 21 21 21 21 20 20 20 20 19 19 20 19 19 19 19 19 19 19 18 18 18 18 17
17 18 19 15 15 15 16 18 20 21 23 24 24 26 26 25 23 22 23 22 23 22 21 20 21 21 21 20 20 21 20 20 20 20 19 19 19 19 19 19 19 18 18 18 17 17 17 17 19
17 18 15 15 14 15 16 20 20 22 22 23 25 27 26 23 22 22 23 23 22 22 20 20 21 21 20 20 20 20 20 20 20 20 20 20 19 19 19 19 19 18 18 17 17 17 18 19 19
17 16 15 14 15 16 18 18 21 21 23 23 25 25 24 25 24 23 23 22 21 21 20 20 21 20 20 20 20 20 20 20 20 20 20 19 19 19 19 19 18 19 18 17 17 18 19 19 20
17 14 13 13 15 16 18 19 20 20 21 22 23 24 24 23 24 23 23 22 22 20 20 20 20 20 20 20 20 20 20 20 20 19 19 19 19 19 19 19 18 19 18 17 18 18 19 19 19
13 13 13 13 15 17 17 19 19 20 21 21 22 23 23 23 23 23 23 22 21 21 20 20 20 20 20 20 20 19 19 19 19 19 19 19 19 19 19 19 19 19 18 17 17 18 18 19 19
13 12 12 14 14 16 18 19 19 20 19 21 23 22 22 22 22 23 22 22 21 21 20 19 19 20 19 19 19 19 19 19 19 19 19 19 19 19 19 19 19 18 18 18 17 18 18 19 19
13 12 13 13 14 15 17 18 20 19 19 20 23 21 22 22 22 23 22 21 22 19 19 18 18 18 18 18 19 19 19 19 19 19 19 19 19 19 18 18 18 18 18 18 17 18 18 19 19
14 11 11 13 14 15 17 17 19 19 19 19 21 22 22 21 22 20 19 18 19 18 18 18 17 17 17 18 18 19 19 19 19 19 19 18 18 18 18 18 19 18 18 17 18 18 18 19 19
11 9 12 14 14 14 15 15 16 17 17 18 19 20 20 19 20 19 18 16 17 17 17 18 17 16 17 18 17 17 19 19 18 18 18 18 18 18 18 18 18 18 18 17 18 18 19 19 19
12 11 13 13 14 15 15 15 16 15 15 16 17 17 18 20 17 17 18 18 18 17 16 16 16 16 17 16 17 18 17 18 18 18 18 18 18 18 18 18 18 18 18 17 18 18 19 19 19
11 13 13 13 14 14 14 15 14 14 15 16 16 16 17 17 17 16 16 18 19 19 17 18 17 17 20 16 15 17 17 17 18 18 18 18 18 17 18 18 18 18 17 17 18 19 19 19 19
10 12 13 13 13 14 14 14 14 14 15 15 16 17 16 16 17 18 18 17 16 17 17 17 16 16 17 16 17 17 16 17 17 18 17 18 17 17 17 17 17 17 17 18 19 19 19 19 19
11 11 11 12 12 13 13 13 14 14 15 15 16 16 15 16 16 17 18 18 17 17 16 16 16 16 16 14 17 16 16 18 16 17 17 17 18 17 17 17 17 17 18 18 19 19 19 19 20
11 9 11 11 12 12 14 13 13 14 14 15 15 16 16 16 16 16 18 19 18 16 15 15 16 15 15 16 17 17 17 18 17 18 18 18 18 18 18 18 18 19 19 18 19 19 20 20 20
10 10 8 12 13 13 12 11 14 14 14 14 15 15 16 15 15 17 17 18 16 15 15 15 16 15 16 18 16 16 18 19 18 18 18 19 19 19 19 19 19 18 19 19 19 19 19 20 20
9 7 8 11 13 13 13 12 13 14 13 14 14 14 15 14 14 17 18 18 16 16 15 15 15 15 18 18 17 15 17 19 20 20 19 19 19 19 19 19 19 19 19 19 19 19 19 19 20
10 9 11 11 13 13 13 12 13 14 13 12 10 11 13 14 14 17 17 17 16 16 17 16 15 14 17 17 17 16 16 20 20 20 19 19 19 19 19 19 19 18 18 18 19 19 19 19 20
9 9 9 11 12 13 13 12 12 13 13 10 10 11 12 13 15 17 18 18 16 16 15 15 15 14 14 14 14 15 15 17 19 19 19 19 19 19 19 18 18 18 18 18 19 19 19 19 20
11 10 10 11 13 11 11 12 13 13 12 11 11 12 13 13 13 15 16 17 16 16 15 15 15 15 15 15 15 15 15 16 17 18 18 19 19 18 18 18 18 18 18 18 18 19 19 19 19
11 11 10 11 12 11 11 12 12 14 13 12 11 12 13 13 13 13 14 15 15 15 16 14 15 14 16 16 16 15 15 16 17 17 18 18 18 18 18 18 18 18 18 18 18 19 19 19 18
11 13 14 12 11 11 11 11 12 11 11 12 11 11 13 13 12 12 13 13 14 15 15 14 14 14 16 17 17 17 17 17 17 19 19 19 18 18 18 18 18 18 18 18 18 18 18 19 18
12 12 11 12 12 10 12 12 12 11 11 12 11 11 14 13 13 13 13 13 13 14 14 14 14 14 15 15 15 15 16 16 17 17 18 18 18 18 18 18 18 18 19 19 17 18 18 18 18
13 12 12 13 12 12 12 12 12 10 10 11 13 12 14 13 12 13 13 13 13 14 14 14 14 14 14 14 14 15 16 16 16 16 16 16 16 17 17 17 17 17 17 17 16 17 17 15 15
11 11 11 13 13 13 12 12 11 9 11 12 13 13 13 13 13 13 13 13 13 13 13 13 14 13 14 14 14 15 15 16 15 16 15 15 16 16 16 16 16 15 16 16 16 15 15 14 15
12 12 12 13 14 14 12 11 10 9 13 12 12 12 11 11 11 12 12 12 12 12 13 13 13 14 14 15 15 15 15 15 15 15 15 15 16 15 15 15 15 15 15 16 15 14 14 13 13
13 12 11 12 12 13 12 10 10 11 11 12 12 11 11 11 11 10 10 11 11 11 12 13 13 13 14 15 15 16 16 15 15 15 14 15 15 15 15 15 14 15 14 15 14 14 14 14 14
11 12 12 11 13 14 13 12 11 10 11 11 11 11 11 11 12 11 12 13 12 12 13 13 14 14 14 15 15 14 14 14 15 14 14 14 14 14 14 15 15 14 14 14 14 14 14 14 14
12 13 14 14 13 14 13 12 9 11 12 11 11 12 11 10 12 11 12 12 12 13 13 13 13 14 14 14 14 14 14 15 15 14 14 14 14 14 14 14 14 14 14 13 14 13 13 13 13
13 13 15 11 14 11 10 12 12 12 11 12 11 13 13 13 12 11 11 11 11 12 12 12 12 12 12 13 13 13 13 13 13 13 13 13 13 13 13 12 13 13 13 13 13 13 13 13 13

GFSSGP_925_temp_108.txt.gz
Temp
17 18 18 18 16 14 15 16 19 19 22 23 23 24 23 24 25 23 22 23 22 22 21 20 20 20 20 21 21 20 20 20 20 20 19 19 19 19 19 19 19 19 19 18 19 18 18 17 17
17 18 18 14 14 15 14 17 18 19 21 21 22 23 24 24 22 21 21 22 23 22 21 21 21 20 20 20 21 20 20 20 20 20 19 19 20 19 19 19 19 19 18 18 18 18 17 18 18
17 17 15 14 13 14 15 18 18 20 20 22 22 24 24 22 22 22 23 22 22 21 21 21 21 21 20 20 20 20 20 20 20 20 20 20 20 19 19 19 19 18 17 17 17 17 18 18 19
16 15 13 13 13 15 15 17 18 19 20 21 22 22 23 23 23 24 23 22 21 21 21 21 21 21 21 20 20 20 20 20 20 20 20 19 20 19 19 19 18 18 17 17 18 19 19 19 19
16 12 13 13 13 15 16 17 18 18 18 20 22 22 22 23 23 23 22 21 22 20 21 20 20 21 21 20 20 20 20 20 20 20 19 19 19 19 19 19 19 18 18 17 19 19 19 19 19
12 12 12 12 13 15 15 16 18 18 18 18 20 21 23 24 22 20 21 21 21 20 20 20 20 20 20 20 20 20 20 19 20 20 19 19 19 19 19 19 18 18 18 18 19 19 19 19 19
12 11 11 13 14 14 16 17 18 18 17 18 20 19 21 21 20 21 20 20 21 20 19 19 19 19 19 19 19 19 19 19 19 19 19 19 19 19 19 18 18 18 18 18 18 19 19 19 19
11 11 12 12 13 14 16 16 17 17 17 18 21 18 19 20 21 21 22 19 21 19 22 19 18 19 19 18 19 19 19 19 19 19 19 19 19 19 19 18 18 18 18 18 18 18 19 19 19
13 10 10 12 13 14 14 14 16 16 17 16 18 19 18 20 16 18 16 16 17 18 19 18 18 18 18 18 18 19 18 19 19 19 19 19 19 19 19 19 18 18 18 18 18 18 19 19 19
11 8 10 13 13 13 13 13 14 14 14 15 17 17 18 19 20 17 16 15 16 16 17 18 18 18 18 17 18 18 18 18 19 19 19 19 19 19 19 18 18 18 18 18 18 18 18 19 19
11 9 12 13 13 13 13 13 14 14 14 15 14 15 15 17 17 16 16 15 16 16 16 17 18 18 18 18 18 19 19 18 18 19 19 18 19 18 18 18 18 18 18 17 18 18 18 19 19
10 12 12 12 13 13 12 13 13 13 14 14 14 15 16 16 15 16 17 18 15 15 16 17 18 18 19 19 20 20 20 19 17 18 18 18 18 18 18 18 18 18 18 18 18 18 19 19 19
10 10 12 12 11 12 12 12 12 13 14 14 14 15 14 15 15 18 18 18 17 16 16 16 16 18 19 18 20 19 21 20 18 17 18 18 18 18 18 18 18 18 18 17 18 18 19 19 19
10 10 10 11 11 12 12 12 12 13 13 13 14 14 13 14 15 17 17 17 17 17 17 16 16 16 17 18 18 19 19 20 18 16 17 17 18 17 18 18 18 18 18 17 18 19 19 19 19
11 9 10 10 11 11 12 11 11 13 13 13 14 15 14 13 15 15 18 18 18 17 17 17 17 16 16 18 17 17 16 19 19 16 16 17 17 17 18 18 17 17 17 17 18 18 18 19 19
9 9 8 11 12 12 11 10 12 12 12 13 13 14 14 13 14 17 18 17 18 17 17 16 16 15 15 15 15 16 16 17 19 18 15 16 17 18 18 17 17 17 17 17 18 18 18 19 19
8 6 7 9 12 12 11 11 13 13 12 12 12 12 13 12 13 16 17 17 18 17 17 16 16 15 15 15 15 15 16 16 17 18 16 15 17 18 18 18 17 18 17 18 18 18 18 19 19
9 8 9 9 11 11 11 11 13 14 12 12 11 10 10 11 12 15 17 17 17 17 16 16 16 15 15 15 16 15 15 17 17 18 17 16 16 17 18 18 18 18 18 18 18 19 19 19 19
8 8 8 10 11 11 11 11 12 12 11 11 9 9 9 11 12 15 16 16 15 15 15 16 15 14 15 15 15 15 14 15 16 17 17 17 17 18 18 18 18 18 18 18 18 19 19 19 19
9 9 11 11 12 10 11 11 12 13 12 11 11 9 9 10 12 13 15 15 15 16 16 15 14 14 14 16 15 15 16 16 15 17 18 18 19 18 19 19 18 18 18 18 18 18 18 19 19
11 10 10 9 11 11 10 11 11 12 12 12 11 10 11 11 12 13 13 14 14 15 15 15 15 15 15 15 15 16 15 14 16 17 17 18 18 19 19 19 18 18 18 18 18 18 18 18 18
11 13 11 12 12 12 11 12 12 11 10 11 10 9 10 11 12 12 13 13 14 15 16 16 16 15 15 14 14 14 13 14 14 16 17 18 18 18 18 18 18 18 18 18 18 18 18 18 18
12 12 11 11 11 10 12 11 11 11 12 11 10 10 10 11 12 13 13 13 14 17 15 16 15 14 14 14 14 14 13 14 15 15 15 16 17 18 18 18 18 18 18 18 17 18 17 17 18
12 11 11 11 11 12 12 12 12 10 10 11 10 10 11 12 13 13 13 13 13 14 16 14 14 13 13 14 14 14 14 14 14 15 15 15 16 16 17 18 18 18 18 18 18 18 17 17 16
11 11 10 11 12 12 12 12 11 10 10 11 12 12 13 13 13 13 12 12 13 14 13 13 13 13 14 14 14 14 14 14 14 14 15 15 15 16 16 16 16 17 16 16 16 17 16 16 15
11 11 11 13 13 12 12 11 11 9 13 13 12 11 12 11 11 11 11 11 11 11 11 12 12 13 13 13 14 14 14 14 14 14 15 15 15 15 16 16 15 15 16 16 16 16 16 15 14
12 12 11 11 12 12 12 10 8 9 12 12 11 11 11 11 11 10 10 10 10 10 10 11 12 12 13 13 13 13 14 14 15 15 15 15 14 15 15 15 15 15 15 15 15 15 15 14 14
11 11 12 11 13 13 13 12 10 9 11 11 11 11 10 10 10 10 10 10 9 10 11 12 12 13 13 13 14 14 14 15 15 15 15 14 14 14 14 14 14 14 14 14 14 13 14 13 14
11 11 12 13 12 13 12 12 9 9 10 10 10 10 10 9 10 10 11 10 9 10 11 11 12 13 13 13 13 14 14 14 14 14 14 14 14 13 13 13 13 13 14 14 14 13 13 13 14
13 13 13 12 12 11 10 11 10 10 10 12 11 10 10 9 10 10 10 10 10 10 11 11 11 12 12 12 13 12 13 13 13 13 13 13 13 13 13 13 13 13 13 13 13 13 13 13 13

GFSSGP_925_temp_111.txt.gz
Temp
17 18 19 18 15 13 14 16 17 19 21 20 21 23 22 23 23 22 22 21 21 21 20 20 19 20 20 20 20 20 20 20 20 19 19 19 19 19 19 19 19 19 19 19 19 18 18 18 17
17 18 18 13 13 14 14 15 17 17 19 18 21 22 22 23 21 21 21 21 22 20 20 20 20 20 20 20 20 20 20 20 20 20 19 19 19 19 19 19 19 19 18 18 18 18 17 17 17
17 18 14 14 12 14 15 16 16 18 18 19 21 22 22 22 21 21 23 22 21 20 20 20 20 20 20 21 20 20 20 20 20 20 20 19 19 19 19 19 19 19 18 18 18 17 17 18 18
17 15 12 13 13 14 15 17 17 17 18 19 20 20 21 23 22 22 23 23 21 20 20 20 20 21 21 21 21 20 20 20 20 20 20 20 19 19 19 19 19 18 18 17 17 17 18 18 18
15 11 12 12 13 14 15 16 17 17 17 18 18 20 20 22 22 22 22 20 22 21 20 20 20 20 21 21 21 21 20 20 20 20 20 19 19 19 19 19 19 18 17 17 18 18 18 18 18
11 11 11 12 12 14 15 15 17 17 17 17 19 18 19 20 19 20 23 22 22 20 20 20 20 20 21 20 20 20 20 20 20 19 20 19 19 19 19 19 18 18 17 18 19 19 19 18 18
11 11 11 12 13 14 15 16 17 17 16 17 18 18 18 17 17 19 23 23 22 22 19 19 19 20 20 20 19 19 20 20 19 19 19 19 19 19 18 18 18 18 19 18 19 19 19 19 18
10 11 11 11 12 13 16 15 16 17 16 16 17 17 17 17 16 16 17 22 22 22 21 20 19 19 19 19 19 19 19 19 19 19 19 19 19 19 18 18 18 18 19 19 19 19 19 19 18
12 10 9 12 12 14 13 13 14 14 15 14 17 17 16 17 18 18 16 17 19 21 21 21 19 18 18 18 19 19 18 19 19 19 19 19 18 18 18 18 18 18 18 19 19 19 19 19 19
10 8 10 12 13 13 12 13 13 14 13 14 15 16 17 17 18 16 16 15 15 17 18 18 19 18 19 18 19 19 19 18 18 19 19 19 19 18 18 18 18 18 18 18 18 19 19 19 19
10 9 10 12 13 13 12 12 13 13 13 13 14 14 14 16 16 16 16 16 15 15 16 16 17 19 19 19 19 19 19 18 18 18 19 18 19 18 18 18 18 18 18 17 18 18 18 19 19
10 11 11 12 12 12 11 12 11 12 12 13 13 14 14 14 14 15 16 17 16 16 15 15 16 17 18 19 19 20 20 20 19 18 18 18 18 19 18 18 18 18 18 17 18 18 18 19 19
9 10 11 11 10 10 11 10 11 11 12 13 13 13 12 12 14 17 18 18 16 15 15 15 16 17 17 18 19 20 20 20 20 21 18 17 19 18 19 18 18 18 18 18 18 18 18 19 19
9 9 9 10 10 10 10 11 11 11 12 12 13 13 11 12 13 15 17 18 17 16 16 16 16 17 17 18 19 19 19 18 18 20 21 17 19 18 18 18 18 18 18 18 18 18 18 19 19
9 8 9 9 10 10 11 10 10 11 12 12 13 13 13 11 14 14 17 18 18 18 17 17 17 17 17 18 18 18 18 18 18 17 19 20 17 17 18 18 18 18 18 18 17 17 17 18 18
8 8 7 11 11 11 11 10 11 11 11 11 12 13 13 12 12 15 17 17 18 17 17 18 17 18 17 17 18 18 18 17 16 17 17 17 17 17 17 17 18 18 18 17 17 17 17 18 18
7 6 7 9 11 11 10 10 11 11 11 11 12 12 12 12 11 14 16 17 18 18 17 17 17 16 16 16 17 17 17 16 16 16 15 16 17 16 16 16 17 18 18 17 17 17 17 18 18
9 7 8 8 10 11 10 10 11 12 11 11 11 10 10 10 11 13 15 16 17 17 17 16 16 16 15 15 15 15 15 15 15 15 15 15 16 16 15 16 16 17 17 17 17 17 17 17 18
8 8 9 9 10 10 10 10 11 12 11 10 9 8 9 10 11 12 15 16 16 17 16 16 15 16 14 14 15 15 15 14 14 15 16 16 16 17 16 15 16 17 17 17 17 17 17 17 18
10 9 10 10 11 11 11 10 11 12 11 10 10 8 8 9 9 11 13 14 15 16 16 15 15 14 14 14 14 15 15 14 14 16 15 16 17 17 16 15 15 17 17 18 17 17 17 18 18
10 10 12 11 11 12 11 10 10 12 11 11 10 10 10 10 10 10 11 14 15 14 15 15 15 14 14 15 14 15 15 15 14 14 15 15 15 16 15 16 15 18 18 17 18 18 17 18 18
10 12 13 13 11 11 11 11 12 10 10 10 9 9 8 9 10 10 11 12 12 13 14 15 14 14 14 14 15 15 15 15 16 15 15 15 15 16 15 15 16 19 18 18 18 18 17 17 17
11 12 11 10 11 10 12 11 11 9 10 10 9 9 9 9 10 11 11 12 14 14 14 15 14 15 15 14 15 14 14 15 15 15 15 15 15 15 15 17 17 18 18 18 18 17 17 17 17
11 11 11 10 11 11 11 11 8 10 11 10 10 10 10 10 11 12 12 12 14 14 17 16 15 15 15 14 14 14 14 14 14 14 14 14 15 15 16 17 17 18 18 18 19 17 16 17 17
11 11 9 10 10 11 12 12 10 10 9 11 10 11 11 12 12 13 12 12 15 16 17 16 14 13 14 14 14 14 13 13 14 13 14 14 14 15 15 16 16 17 18 18 18 17 17 17 17
11 11 11 12 10 11 12 12 11 9 12 12 12 12 11 11 11 11 11 11 11 11 13 13 13 13 13 13 14 13 13 13 14 14 14 14 14 14 14 15 14 15 15 15 16 15 16 16 16
12 12 11 11 11 12 12 11 9 9 11 12 11 11 11 10 10 10 10 10 10 10 10 11 11 11 13 13 14 13 14 13 13 14 14 14 14 14 14 14 15 14 15 15 15 14 14 14 14
11 11 12 11 13 13 12 11 10 8 9 11 11 10 10 9 9 9 8 8 8 8 9 9 10 11 12 12 13 13 13 13 13 13 13 13 14 14 14 14 14 14 14 14 14 14 14 13 13
11 11 11 11 11 12 13 12 8 8 8 10 9 9 9 8 8 8 8 7 7 8 9 9 10 11 11 11 11 12 12 12 13 13 13 13 13 13 13 13 13 13 14 14 14 13 13 13 13
12 12 13 11 12 10 10 11 8 9 9 10 9 9 10 10 10 9 9 9 9 9 9 10 10 11 11 12 12 12 12 12 12 12 12 12 12 12 12 12 12 12 12 12 12 13 13 13 13

GFSSGP_925_temp_114.txt.gz
Temp
16 18 18 17 15 13 14 15 17 18 19 19 17 21 22 22 23 21 21 21 20 21 20 20 20 21 20 20 20 20 20 20 19 19 19 18 18 19 19 18 19 19 19 19 18 18 18 18 17
17 17 18 12 13 14 14 14 16 17 19 17 19 21 22 22 21 20 21 20 20 21 20 20 20 21 21 20 20 20 20 20 19 19 19 18 19 19 19 19 19 19 18 19 18 18 18 17 17
17 18 14 13 12 14 15 15 15 18 17 18 20 20 21 21 21 20 21 21 20 20 20 20 20 20 20 20 20 20 20 20 20 20 19 19 19 19 19 19 19 19 18 18 18 18 17 18 18
17 15 12 13 13 13 16 16 16 17 18 17 19 20 19 19 17 18 20 20 20 19 20 20 20 20 20 20 20 20 20 20 20 20 19 19 19 19 19 19 19 19 18 17 17 17 18 18 18
15 11 11 12 13 13 14 15 16 16 17 18 17 20 18 19 18 19 18 21 19 19 19 19 19 20 21 21 20 20 20 20 20 20 19 19 19 19 19 19 19 18 17 17 17 17 18 18 18
11 10 11 12 12 13 13 14 16 16 17 17 18 17 18 18 18 17 19 21 21 20 19 19 19 19 20 20 21 20 20 20 20 20 20 19 19 19 19 19 19 18 17 17 17 18 18 18 18
11 11 12 12 12 14 14 15 16 16 15 17 17 18 18 16 18 17 17 20 21 21 21 20 19 19 19 20 20 20 20 20 20 19 19 19 19 19 19 19 19 19 18 18 18 18 18 18 18
10 10 10 11 12 14 13 14 14 16 16 14 16 16 17 16 18 18 17 17 20 21 21 20 20 19 19 19 19 19 19 19 19 19 19 19 19 19 18 19 19 19 19 19 19 19 18 18 18
11 10 10 12 11 14 12 12 13 14 14 14 15 16 16 16 17 19 18 17 16 17 19 21 20 20 19 19 19 19 19 19 19 19 19 19 18 19 18 18 18 19 19 19 19 19 18 18 18
10 9 10 11 12 13 12 12 12 13 13 13 14 15 16 17 16 16 16 16 16 16 17 18 20 20 20 19 19 19 19 19 19 18 19 18 19 19 18 18 18 18 19 19 19 19 19 18 18
9 10 10 12 12 12 11 11 12 12 11 11 13 14 13 15 15 14 15 16 16 16 15 16 17 19 20 20 19 19 19 19 19 19 18 18 18 18 18 18 18 18 18 18 18 18 18 18 18
10 10 10 11 11 10 10 11 10 10 11 12 12 13 12 12 12 14 14 16 17 17 16 16 16 16 17 18 19 19 19 20 19 19 18 18 18 18 19 18 18 17 17 18 18 18 18 18 18
9 9 10 10 9 9 10 9 10 10 11 11 12 12 11 10 12 14 16 16 17 17 17 16 15 16 16 17 18 19 19 19 20 20 20 19 18 17 19 18 17 17 18 18 18 18 18 18 18
8 8 9 9 9 10 10 10 10 10 10 11 11 11 10 10 11 13 15 16 17 17 17 16 15 16 16 17 18 19 19 19 19 19 19 20 20 18 18 18 18 18 18 18 17 17 18 18 18
9 8 8 9 10 10 10 9 9 11 10 10 11 11 11 11 12 12 15 16 17 18 18 16 17 16 16 17 18 18 18 17 18 17 18 18 18 19 19 18 18 18 18 18 17 17 17 17 17
7 7 7 11 10 11 11 10 12 11 10 10 11 12 12 11 11 13 14 15 17 17 17 17 17 16 16 17 17 18 18 17 17 18 17 17 17 17 17 19 18 18 17 18 17 17 17 17 17
6 6 7 8 11 10 11 9 10 10 10 11 11 11 11 12 10 12 14 15 16 17 17 17 16 16 17 16 17 17 17 17 17 17 16 16 16 16 16 18 18 18 16 17 17 17 17 17 17
8 7 8 8 9 10 9 9 11 11 11 10 11 11 10 10 10 11 14 15 16 16 17 17 16 16 16 16 16 16 16 16 17 16 16 16 16 16 16 16 15 16 15 16 17 17 17 17 17
9 10 10 11 10 10 9 9 10 11 10 9 10 10 9 9 10 11 12 14 15 15 15 16 16 16 15 14 14 14 14 14 14 15 15 15 15 15 16 16 15 15 15 16 17 17 17 16 16
8 9 8 10 11 9 10 10 11 12 11 10 10 9 8 9 9 10 11 12 14 15 15 16 15 16 15 14 14 14 15 15 14 14 15 14 15 15 15 15 15 15 15 15 16 16 16 16 17
8 8 9 10 12 11 10 9 10 12 11 10 9 8 8 8 9 9 10 11 13 13 15 15 15 15 13 14 14 13 14 14 15 14 14 14 14 15 15 16 15 14 14 14 14 15 16 16 17
8 10 11 12 12 11 12 10 11 9 9 10 9 8 7 8 8 9 10 11 12 14 16 15 14 13 14 14 13 14 14 14 15 15 14 14 15 15 16 16 16 15 16 16 16 17 17 17 16
10 11 10 10 11 10 11 10 11 10 10 10 10 9 8 8 9 9 10 12 14 15 14 13 14 14 14 14 13 14 14 14 15 15 14 15 15 14 14 15 15 15 15 16 14 17 17 17 16
11 10 10 10 11 11 11 11 9 11 10 10 11 10 11 9 10 10 11 12 13 13 14 13 13 13 14 15 14 14 14 14 14 14 14 14 14 14 14 14 14 14 14 15 16 19 18 17 16
10 11 9 8 10 10 11 12 11 10 9 11 12 12 11 11 11 11 11 11 12 12 12 12 13 14 14 14 13 14 14 14 15 14 14 14 14 14 14 14 14 14 15 16 16 18 18 17 16
11 11 11 10 10 11 12 11 11 10 10 12 12 11 11 11 10 10 10 11 11 11 13 14 15 16 15 14 13 13 13 13 14 14 14 13 14 13 14 14 14 14 15 15 16 15 16 15 15
11 12 11 11 11 12 11 11 10 9 9 11 11 10 10 9 8 8 8 9 10 10 11 13 12 12 13 13 13 13 13 13 13 13 13 13 13 13 14 14 14 14 15 16 15 15 15 15 14
11 11 12 11 12 13 12 11 10 8 8 9 10 9 8 8 8 8 7 7 8 8 9 11 10 10 11 12 13 13 13 13 13 13 13 13 13 13 13 13 13 13 14 14 14 14 14 13 13
11 11 11 11 11 12 12 11 8 7 7 8 9 9 8 8 8 7 7 7 7 7 7 8 8 8 8 10 10 10 11 11 12 12 12 12 12 12 12 13 13 13 13 13 13 13 13 13 13
11 11 11 10 11 10 10 11 9 9 9 10 9 9 9 9 9 8 8 7 7 7 7 7 7 7 8 9 10 10 10 10 10 10 10 11 11 11 11 11 12 12 11 12 12 11 11 11 11

GFSSGP_925_temp_117.txt.gz
Temp
17 18 18 18 19 17 17 18 17 19 19 20 19 21 23 23 24 24 21 19 19 20 20 20 21 20 21 20 20 20 20 20 20 20 19 18 18 18 18 18 19 19 18 19 19 18 19 18 17
17 18 18 16 18 18 19 16 18 19 19 19 19 21 22 23 22 22 21 19 20 19 19 20 21 20 20 20 20 20 20 20 19 19 19 19 19 19 18 19 19 19 19 19 18 18 18 17 17
17 18 17 17 15 18 19 16 17 18 18 19 21 20 21 20 20 18 18 18 20 19 19 20 20 20 20 20 20 20 20 20 19 19 19 19 19 19 19 19 19 19 19 19 18 18 17 17 18
17 16 15 16 16 15 17 17 17 18 19 19 18 21 19 17 16 16 16 18 19 19 19 20 20 20 20 20 20 20 20 20 20 19 20 19 19 19 19 19 19 19 18 18 18 18 17 18 18
15 14 14 14 15 14 15 16 16 17 18 19 18 20 19 18 17 16 17 18 19 19 19 19 20 20 20 20 20 20 20 20 20 20 19 19 19 19 19 19 19 19 18 18 17 17 18 18 18
13 13 14 15 14 14 14 15 16 17 17 18 19 19 19 17 18 18 16 18 18 19 20 20 20 20 20 20 20 20 20 20 20 19 19 19 19 19 19 19 19 19 18 17 17 18 18 18 18
13 13 14 13 14 15 15 14 16 17 16 18 17 19 19 17 17 18 18 18 19 19 20 20 20 20 19 20 20 19 20 20 20 19 19 19 19 19 19 19 19 19 18 17 17 17 18 18 18
11 12 12 12 14 16 13 14 14 16 16 15 16 18 19 17 17 18 19 17 18 19 19 19 20 20 19 19 20 20 20 19 19 19 19 19 19 19 19 19 19 19 18 17 18 18 18 18 18
11 12 13 13 12 14 13 14 14 14 14 15 15 16 17 16 17 18 18 18 17 17 17 18 19 19 20 20 20 20 20 20 19 19 19 19 18 18 18 19 19 19 19 18 18 18 18 18 18
11 12 13 12 12 13 12 13 13 14 14 14 15 15 17 17 15 14 15 15 17 17 17 16 17 18 19 19 20 19 20 20 19 19 19 19 19 19 18 18 18 18 19 19 18 18 17 18 18
10 11 11 12 12 11 11 11 12 12 13 13 15 15 14 14 14 14 14 15 16 17 18 17 16 17 18 20 20 20 20 20 19 19 19 18 18 18 18 18 17 17 18 17 17 17 16 17 18
11 10 10 11 11 10 11 11 11 11 13 14 13 13 13 13 13 13 14 15 16 17 18 17 17 16 18 18 19 19 20 20 19 19 19 18 18 18 18 17 18 17 17 18 17 16 17 17 17
10 9 10 10 10 10 10 10 11 11 12 13 12 12 12 12 12 12 14 14 15 16 18 18 17 16 17 17 18 19 19 19 19 19 19 19 19 18 18 18 18 17 17 17 18 17 17 17 17
8 9 9 9 10 10 10 10 10 12 11 11 11 12 12 12 12 12 13 14 15 17 17 18 17 16 15 17 17 18 19 19 18 18 18 18 19 19 19 19 19 18 18 17 18 17 17 17 17
9 9 9 10 10 10 10 10 9 12 11 11 12 12 12 12 12 12 13 14 15 16 17 17 18 16 15 16 17 17 18 19 18 18 18 18 18 18 18 18 19 19 18 18 17 17 17 17 17
8 8 10 11 10 11 11 12 12 12 11 12 12 12 13 14 12 12 14 14 15 15 15 17 17 17 16 15 16 16 17 18 18 18 18 18 18 18 17 17 17 18 18 18 17 17 17 17 17
8 9 8 9 10 10 10 11 11 12 12 12 12 12 12 12 12 11 13 14 15 15 15 15 17 17 16 16 16 16 16 16 16 17 17 18 18 17 16 17 16 16 17 16 17 17 16 17 16
8 8 9 9 10 10 10 10 11 11 11 12 12 12 12 12 12 12 12 13 14 15 15 16 16 16 16 16 15 15 15 16 16 17 16 16 16 17 17 16 16 16 15 15 17 17 17 16 16
9 9 9 10 11 10 9 10 11 12 12 12 11 10 11 11 11 11 11 12 13 14 15 15 15 15 16 14 13 13 14 16 15 17 17 16 14 15 15 15 16 16 15 15 16 15 16 15 16
8 8 8 10 10 10 11 12 13 12 11 11 11 10 10 10 10 10 10 11 12 13 14 14 14 15 15 15 14 14 14 15 16 15 14 15 15 14 14 15 15 15 15 15 15 15 15 15 15
8 8 8 10 11 12 11 11 10 12 11 11 11 10 10 10 10 10 11 11 12 12 13 14 14 15 15 13 13 13 14 15 15 15 14 15 15 15 14 14 14 15 15 15 15 15 15 14 15
9 9 10 10 11 11 12 11 11 10 11 11 11 11 11 10 10 10 11 10 11 12 13 14 14 14 14 13 13 14 14 14 14 14 15 15 15 15 14 14 14 15 15 15 14 14 15 15 14
10 11 10 10 10 10 11 11 11 11 11 10 10 11 11 10 10 10 10 10 12 13 13 14 14 13 14 13 13 13 14 14 14 15 15 15 14 14 15 14 14 14 14 14 14 15 15 16 15
10 10 10 10 11 12 11 11 11 11 9 9 11 12 11 11 10 11 11 11 11 13 13 13 12 13 12 12 13 13 13 13 13 14 14 14 14 14 14 14 14 14 15 15 15 16 16 16 17
10 10 9 9 11 11 11 12 11 10 9 10 11 11 11 10 9 9 11 12 11 12 11 11 12 12 12 13 13 14 14 13 13 14 14 14 14 14 14 14 14 14 14 15 14 14 14 14 14
11 11 10 10 11 11 12 11 11 10 9 10 10 10 10 10 9 9 8 11 11 11 11 11 12 12 13 13 13 15 15 14 13 13 14 13 14 14 14 14 14 14 14 14 14 15 16 15 15
11 11 11 11 11 11 12 11 10 10 8 9 9 9 9 9 8 8 8 9 9 10 10 11 12 14 15 15 14 14 13 13 13 13 14 13 13 13 13 13 13 13 13 14 14 14 14 14 14
11 11 12 11 12 12 13 11 10 8 8 8 9 8 9 8 8 7 7 7 7 8 8 9 9 10 10 11 11 12 12 13 13 13 13 13 13 13 13 13 13 13 13 13 13 14 14 14 13
11 11 11 11 11 12 12 10 8 8 8 8 9 9 9 8 7 7 7 7 6 6 7 7 7 7 7 8 8 10 9 10 11 12 12 11 12 12 12 12 12 12 13 13 13 13 13 13 13
11 11 11 11 12 11 11 11 10 10 9 9 9 9 9 9 8 8 7 6 6 6 6 6 6 6 6 6 8 7 8 8 9 9 9 10 10 10 10 10 10 10 10 10 11 10 10 11 11